Wetterdaten: Dienstag, 28.03.2017
Datum Zeit Temp. A. Feuchte A. Luftdruck Regen Wind Richtung Richtung Sonnenschein ET UV Solar Taupunkt Windchill Windben Empfang
28.03.2017 00:00 7,4 C 48 % 1022,9 hPa 0,0 l/m 8,2 km/h (2 Bft) O-NO 65 0 min 0,000 mm 0,0 UV-I 0 W/m -2,9 C 6,0 C 12,9 km/h (3 Bft) 100,00 %
28.03.2017 00:02 7,4 C 48 % 1022,9 hPa 0,0 l/m 7,7 km/h (2 Bft) O-NO 61 0 min 0,000 mm 0,0 UV-I 0 W/m -2,9 C 6,4 C 14,5 km/h (3 Bft) 97,67 %
28.03.2017 00:04 7,3 C 48 % 1022,9 hPa 0,0 l/m 7,1 km/h (2 Bft) O-NO 69 0 min 0,000 mm 0,0 UV-I 0 W/m -3,0 C 6,7 C 11,3 km/h (2 Bft) 100,00 %
28.03.2017 00:06 7,3 C 48 % 1022,9 hPa 0,0 l/m 7,4 km/h (2 Bft) O-NO 71 0 min 0,000 mm 0,0 UV-I 0 W/m -3,0 C 6,5 C 11,3 km/h (2 Bft) 95,74 %
28.03.2017 00:08 7,3 C 48 % 1022,9 hPa 0,0 l/m 8,0 km/h (2 Bft) O-NO 78 0 min 0,000 mm 0,0 UV-I 0 W/m -3,0 C 6,0 C 16,1 km/h (3 Bft) 100,00 %
28.03.2017 00:10 7,3 C 48 % 1022,8 hPa 0,0 l/m 7,1 km/h (2 Bft) O 85 0 min 0,000 mm 0,0 UV-I 0 W/m -3,0 C 6,7 C 11,3 km/h (2 Bft) 100,00 %
28.03.2017 00:12 7,2 C 49 % 1022,9 hPa 0,0 l/m 6,0 km/h (2 Bft) O 82 0 min 0,000 mm 0,0 UV-I 0 W/m -2,8 C 7,2 C 9,7 km/h (2 Bft) 94,34 %
28.03.2017 00:14 7,1 C 48 % 1022,9 hPa 0,0 l/m 7,7 km/h (2 Bft) O-NO 65 0 min 0,000 mm 0,0 UV-I 0 W/m -3,2 C 6,0 C 11,3 km/h (2 Bft) 100,00 %
28.03.2017 00:16 7,1 C 48 % 1022,9 hPa 0,0 l/m 7,3 km/h (2 Bft) O-NO 60 0 min 0,000 mm 0,0 UV-I 0 W/m -3,2 C 6,4 C 12,9 km/h (3 Bft) 97,56 %
28.03.2017 00:18 7,2 C 48 % 1022,9 hPa 0,0 l/m 7,9 km/h (2 Bft) O-NO 63 0 min 0,000 mm 0,0 UV-I 0 W/m -3,1 C 6,0 C 12,9 km/h (3 Bft) 98,00 %
28.03.2017 00:20 7,2 C 47 % 1022,9 hPa 0,0 l/m 8,5 km/h (2 Bft) O-NO 57 0 min 0,000 mm 0,0 UV-I 0 W/m -3,3 C 5,5 C 16,1 km/h (3 Bft) 98,00 %
28.03.2017 00:22 7,3 C 47 % 1022,9 hPa 0,0 l/m 6,6 km/h (2 Bft) O-NO 63 0 min 0,000 mm 0,0 UV-I 0 W/m -3,3 C 7,2 C 12,9 km/h (3 Bft) 91,67 %
28.03.2017 00:24 7,3 C 47 % 1023,0 hPa 0,0 l/m 9,0 km/h (2 Bft) NO 51 0 min 0,000 mm 0,0 UV-I 0 W/m -3,3 C 5,3 C 12,9 km/h (3 Bft) 96,36 %
28.03.2017 00:26 7,4 C 47 % 1022,9 hPa 0,0 l/m 10,6 km/h (2 Bft) O-NO 58 0 min 0,000 mm 0,0 UV-I 0 W/m -3,2 C 4,3 C 14,5 km/h (3 Bft) 97,44 %
28.03.2017 00:28 7,4 C 46 % 1022,9 hPa 0,0 l/m 11,5 km/h (2 Bft) O-NO 62 0 min 0,000 mm 0,0 UV-I 0 W/m -3,4 C 3,8 C 16,1 km/h (3 Bft) 98,00 %
28.03.2017 00:30 7,4 C 46 % 1022,9 hPa 0,0 l/m 10,7 km/h (2 Bft) O-NO 68 0 min 0,000 mm 0,0 UV-I 0 W/m -3,4 C 4,3 C 16,1 km/h (3 Bft) 97,56 %
28.03.2017 00:32 7,4 C 47 % 1022,9 hPa 0,0 l/m 10,2 km/h (2 Bft) O-NO 74 0 min 0,000 mm 0,0 UV-I 0 W/m -3,2 C 4,6 C 16,1 km/h (3 Bft) 96,61 %
28.03.2017 00:34 7,4 C 48 % 1022,9 hPa 0,0 l/m 9,8 km/h (2 Bft) O-NO 58 0 min 0,000 mm 0,0 UV-I 0 W/m -2,9 C 4,9 C 14,5 km/h (3 Bft) 100,00 %
28.03.2017 00:36 7,3 C 48 % 1022,9 hPa 0,0 l/m 6,9 km/h (2 Bft) O 101 0 min 0,000 mm 0,0 UV-I 0 W/m -3,0 C 6,9 C 14,5 km/h (3 Bft) 98,11 %
28.03.2017 00:38 7,2 C 48 % 1022,9 hPa 0,0 l/m 6,8 km/h (2 Bft) SO 124 0 min 0,000 mm 0,0 UV-I 0 W/m -3,1 C 6,9 C 12,9 km/h (3 Bft) 100,00 %
28.03.2017 00:40 7,1 C 48 % 1022,9 hPa 0,0 l/m 4,5 km/h (1 Bft) O-NO 69 0 min 0,000 mm 0,0 UV-I 0 W/m -3,2 C 7,1 C 9,7 km/h (2 Bft) 98,11 %
28.03.2017 00:42 7,1 C 49 % 1022,9 hPa 0,0 l/m 3,4 km/h (1 Bft) O-NO 57 0 min 0,000 mm 0,0 UV-I 0 W/m -2,9 C 7,1 C 6,4 km/h (2 Bft) 95,74 %
28.03.2017 00:44 7,0 C 49 % 1022,9 hPa 0,0 l/m 3,4 km/h (1 Bft) O 101 0 min 0,000 mm 0,0 UV-I 0 W/m -3,0 C 7,0 C 6,4 km/h (2 Bft) 97,56 %
28.03.2017 00:46 7,0 C 49 % 1022,9 hPa 0,0 l/m 3,9 km/h (1 Bft) O-NO 74 0 min 0,000 mm 0,0 UV-I 0 W/m -3,0 C 7,0 C 6,4 km/h (2 Bft) 95,74 %
28.03.2017 00:48 7,0 C 49 % 1022,9 hPa 0,0 l/m 5,2 km/h (1 Bft) NO 53 0 min 0,000 mm 0,0 UV-I 0 W/m -3,0 C 7,0 C 8,0 km/h (2 Bft) 94,00 %
28.03.2017 00:50 6,9 C 49 % 1022,8 hPa 0,0 l/m 6,2 km/h (2 Bft) O-NO 67 0 min 0,000 mm 0,0 UV-I 0 W/m -3,1 C 6,9 C 9,7 km/h (2 Bft) 100,00 %
28.03.2017 00:52 6,9 C 49 % 1022,8 hPa 0,0 l/m 9,3 km/h (2 Bft) O-NO 59 0 min 0,000 mm 0,0 UV-I 0 W/m -3,1 C 4,6 C 14,5 km/h (3 Bft) 100,00 %
28.03.2017 00:54 6,9 C 49 % 1022,8 hPa 0,0 l/m 7,0 km/h (2 Bft) NO 46 0 min 0,000 mm 0,0 UV-I 0 W/m -3,1 C 6,4 C 11,3 km/h (2 Bft) 98,11 %
28.03.2017 00:56 6,8 C 51 % 1022,8 hPa 0,0 l/m 7,6 km/h (2 Bft) O-NO 61 0 min 0,000 mm 0,0 UV-I 0 W/m -2,6 C 5,8 C 11,3 km/h (2 Bft) 97,56 %
28.03.2017 00:58 6,6 C 52 % 1022,8 hPa 0,0 l/m 5,3 km/h (1 Bft) O-NO 75 0 min 0,000 mm 0,0 UV-I 0 W/m -2,5 C 6,6 C 8,0 km/h (2 Bft) 98,11 %
28.03.2017 01:00 6,4 C 53 % 1022,8 hPa 0,0 l/m 6,0 km/h (2 Bft) O-NO 61 0 min 0,051 mm 0,0 UV-I 0 W/m -2,5 C 6,4 C 8,0 km/h (2 Bft) 94,44 %
28.03.2017 01:02 6,3 C 53 % 1022,8 hPa 0,0 l/m 5,8 km/h (2 Bft) O-NO 69 0 min 0,000 mm 0,0 UV-I 0 W/m -2,6 C 6,3 C 8,0 km/h (2 Bft) 94,83 %
28.03.2017 01:04 6,2 C 53 % 1022,8 hPa 0,0 l/m 6,5 km/h (2 Bft) O-NO 69 0 min 0,000 mm 0,0 UV-I 0 W/m -2,7 C 6,1 C 12,9 km/h (3 Bft) 97,92 %
28.03.2017 01:06 6,2 C 53 % 1022,8 hPa 0,0 l/m 6,9 km/h (2 Bft) NO 55 0 min 0,000 mm 0,0 UV-I 0 W/m -2,7 C 5,8 C 9,7 km/h (2 Bft) 95,12 %
28.03.2017 01:08 6,2 C 53 % 1022,7 hPa 0,0 l/m 6,6 km/h (2 Bft) O-NO 64 0 min 0,000 mm 0,0 UV-I 0 W/m -2,7 C 6,1 C 11,3 km/h (2 Bft) 98,00 %
28.03.2017 01:10 6,2 C 53 % 1022,8 hPa 0,0 l/m 6,3 km/h (2 Bft) O-NO 64 0 min 0,000 mm 0,0 UV-I 0 W/m -2,7 C 6,2 C 9,7 km/h (2 Bft) 95,45 %
28.03.2017 01:12 6,2 C 53 % 1022,8 hPa 0,0 l/m 6,2 km/h (2 Bft) O-NO 62 0 min 0,000 mm 0,0 UV-I 0 W/m -2,7 C 6,2 C 9,7 km/h (2 Bft) 94,34 %
28.03.2017 01:14 6,2 C 52 % 1022,8 hPa 0,0 l/m 6,2 km/h (2 Bft) O-NO 65 0 min 0,000 mm 0,0 UV-I 0 W/m -2,9 C 6,2 C 11,3 km/h (2 Bft) 95,45 %
28.03.2017 01:16 6,2 C 52 % 1022,8 hPa 0,0 l/m 5,7 km/h (1 Bft) O-NO 65 0 min 0,000 mm 0,0 UV-I 0 W/m -2,9 C 6,2 C 8,0 km/h (2 Bft) 94,34 %
28.03.2017 01:18 6,2 C 53 % 1022,8 hPa 0,0 l/m 4,5 km/h (1 Bft) NO 53 0 min 0,000 mm 0,0 UV-I 0 W/m -2,7 C 6,2 C 8,0 km/h (2 Bft) 93,62 %
28.03.2017 01:20 6,2 C 53 % 1022,8 hPa 0,0 l/m 5,4 km/h (1 Bft) O-NO 78 0 min 0,000 mm 0,0 UV-I 0 W/m -2,7 C 6,2 C 8,0 km/h (2 Bft) 91,49 %
28.03.2017 01:22 6,1 C 53 % 1022,8 hPa 0,0 l/m 5,6 km/h (1 Bft) NO 46 0 min 0,000 mm 0,0 UV-I 0 W/m -2,7 C 6,1 C 8,0 km/h (2 Bft) 95,45 %
28.03.2017 01:24 6,1 C 53 % 1022,8 hPa 0,0 l/m 5,4 km/h (1 Bft) O-NO 59 0 min 0,000 mm 0,0 UV-I 0 W/m -2,7 C 6,1 C 8,0 km/h (2 Bft) 95,74 %
28.03.2017 01:26 6,2 C 52 % 1022,8 hPa 0,0 l/m 5,9 km/h (2 Bft) O-NO 60 0 min 0,000 mm 0,0 UV-I 0 W/m -2,9 C 6,2 C 9,7 km/h (2 Bft) 93,62 %
28.03.2017 01:28 6,2 C 52 % 1022,8 hPa 0,0 l/m 5,4 km/h (1 Bft) O-NO 65 0 min 0,000 mm 0,0 UV-I 0 W/m -2,9 C 6,2 C 8,0 km/h (2 Bft) 92,11 %
28.03.2017 01:30 6,1 C 53 % 1022,8 hPa 0,0 l/m 4,0 km/h (1 Bft) O-NO 73 0 min 0,000 mm 0,0 UV-I 0 W/m -2,7 C 6,1 C 8,0 km/h (2 Bft) 94,00 %
28.03.2017 01:32 6,1 C 52 % 1022,8 hPa 0,0 l/m 2,6 km/h (1 Bft) O-NO 73 0 min 0,000 mm 0,0 UV-I 0 W/m -3,0 C 6,1 C 4,8 km/h (1 Bft) 94,00 %
28.03.2017 01:34 6,0 C 53 % 1022,8 hPa 0,0 l/m 2,0 km/h (1 Bft) O-NO 73 0 min 0,000 mm 0,0 UV-I 0 W/m -2,8 C 6,0 C 4,8 km/h (1 Bft) 90,24 %
28.03.2017 01:36 5,8 C 54 % 1022,8 hPa 0,0 l/m 0,3 km/h (0 Bft) O-NO 73 0 min 0,000 mm 0,0 UV-I 0 W/m -2,8 C 5,8 C 3,2 km/h (1 Bft) 92,45 %
28.03.2017 01:38 5,7 C 54 % 1022,8 hPa 0,0 l/m 0,9 km/h (0 Bft) O-NO 73 0 min 0,000 mm 0,0 UV-I 0 W/m -2,9 C 5,7 C 3,2 km/h (1 Bft) 90,00 %
28.03.2017 01:40 5,6 C 55 % 1022,8 hPa 0,0 l/m 0,0 km/h (0 Bft) O-NO 73 0 min 0,000 mm 0,0 UV-I 0 W/m -2,7 C 5,6 C 0,0 km/h (0 Bft) 96,30 %
28.03.2017 01:42 5,5 C 56 % 1022,8 hPa 0,0 l/m 0,4 km/h (0 Bft) O-NO 73 0 min 0,000 mm 0,0 UV-I 0 W/m -2,6 C 5,5 C 1,6 km/h (1 Bft) 92,54 %
28.03.2017 01:44 5,3 C 56 % 1022,8 hPa 0,0 l/m 0,2 km/h (0 Bft) O-NO 73 0 min 0,000 mm 0,0 UV-I 0 W/m -2,8 C 5,3 C 1,6 km/h (1 Bft) 97,62 %
28.03.2017 01:46 5,2 C 57 % 1022,8 hPa 0,0 l/m 0,0 km/h (0 Bft) O-NO 73 0 min 0,000 mm 0,0 UV-I 0 W/m -2,6 C 5,2 C 0,0 km/h (0 Bft) 89,36 %
28.03.2017 01:48 5,0 C 59 % 1022,8 hPa 0,0 l/m 0,0 km/h (0 Bft) O-NO 73 0 min 0,000 mm 0,0 UV-I 0 W/m -2,3 C 5,0 C 1,6 km/h (1 Bft) 92,00 %
28.03.2017 01:50 4,8 C 59 % 1022,8 hPa 0,0 l/m 1,8 km/h (1 Bft) S-SO 162 0 min 0,000 mm 0,0 UV-I 0 W/m -2,5 C 4,8 C 6,4 km/h (2 Bft) 95,12 %
28.03.2017 01:52 4,8 C 59 % 1022,9 hPa 0,0 l/m 4,8 km/h (1 Bft) S 180 0 min 0,000 mm 0,0 UV-I 0 W/m -2,5 C 4,8 C 6,4 km/h (2 Bft) 94,00 %
28.03.2017 01:54 4,7 C 60 % 1022,9 hPa 0,0 l/m 4,0 km/h (1 Bft) S 180 0 min 0,000 mm 0,0 UV-I 0 W/m -2,4 C 4,7 C 6,4 km/h (2 Bft) 96,00 %
28.03.2017 01:56 4,7 C 60 % 1022,9 hPa 0,0 l/m 3,8 km/h (1 Bft) S 180 0 min 0,000 mm 0,0 UV-I 0 W/m -2,4 C 4,7 C 4,8 km/h (1 Bft) 94,74 %
28.03.2017 01:58 4,7 C 60 % 1022,9 hPa 0,0 l/m 4,1 km/h (1 Bft) S 184 0 min 0,000 mm 0,0 UV-I 0 W/m -2,4 C 4,7 C 4,8 km/h (1 Bft) 96,23 %
28.03.2017 02:00 4,7 C 60 % 1022,8 hPa 0,0 l/m 2,9 km/h (1 Bft) S 184 0 min 0,025 mm 0,0 UV-I 0 W/m -2,4 C 4,7 C 4,8 km/h (1 Bft) 97,56 %
28.03.2017 02:02 4,4 C 61 % 1022,8 hPa 0,0 l/m 1,2 km/h (1 Bft) S 184 0 min 0,000 mm 0,0 UV-I 0 W/m -2,4 C 4,4 C 3,2 km/h (1 Bft) 96,23 %
28.03.2017 02:04 4,1 C 62 % 1022,7 hPa 0,0 l/m 1,4 km/h (1 Bft) S 184 0 min 0,000 mm 0,0 UV-I 0 W/m -2,5 C 4,1 C 3,2 km/h (1 Bft) 97,87 %
28.03.2017 02:06 3,9 C 63 % 1022,7 hPa 0,0 l/m 0,8 km/h (0 Bft) S 184 0 min 0,000 mm 0,0 UV-I 0 W/m -2,5 C 3,9 C 3,2 km/h (1 Bft) 92,68 %
28.03.2017 02:08 3,8 C 64 % 1022,7 hPa 0,0 l/m 3,3 km/h (1 Bft) S 184 0 min 0,000 mm 0,0 UV-I 0 W/m -2,4 C 3,8 C 4,8 km/h (1 Bft) 98,00 %
28.03.2017 02:10 3,9 C 64 % 1022,7 hPa 0,0 l/m 2,1 km/h (1 Bft) S 184 0 min 0,000 mm 0,0 UV-I 0 W/m -2,3 C 3,9 C 3,2 km/h (1 Bft) 96,67 %
28.03.2017 02:12 3,8 C 65 % 1022,7 hPa 0,0 l/m 2,2 km/h (1 Bft) S 184 0 min 0,000 mm 0,0 UV-I 0 W/m -2,2 C 3,8 C 4,8 km/h (1 Bft) 98,36 %
28.03.2017 02:14 3,8 C 65 % 1022,7 hPa 0,0 l/m 3,1 km/h (1 Bft) S 184 0 min 0,000 mm 0,0 UV-I 0 W/m -2,2 C 3,8 C 4,8 km/h (1 Bft) 100,00 %
28.03.2017 02:16 3,7 C 66 % 1022,7 hPa 0,0 l/m 3,2 km/h (1 Bft) S 184 0 min 0,000 mm 0,0 UV-I 0 W/m -2,0 C 3,7 C 4,8 km/h (1 Bft) 97,87 %
28.03.2017 02:18 3,7 C 66 % 1022,7 hPa 0,0 l/m 2,6 km/h (1 Bft) S 184 0 min 0,000 mm 0,0 UV-I 0 W/m -2,0 C 3,7 C 4,8 km/h (1 Bft) 100,00 %
28.03.2017 02:20 3,7 C 65 % 1022,7 hPa 0,0 l/m 1,5 km/h (1 Bft) S 184 0 min 0,000 mm 0,0 UV-I 0 W/m -2,3 C 3,7 C 3,2 km/h (1 Bft) 97,87 %
28.03.2017 02:22 3,7 C 65 % 1022,8 hPa 0,0 l/m 2,2 km/h (1 Bft) S 184 0 min 0,000 mm 0,0 UV-I 0 W/m -2,3 C 3,7 C 3,2 km/h (1 Bft) 95,74 %
28.03.2017 02:24 3,7 C 66 % 1022,7 hPa 0,0 l/m 3,3 km/h (1 Bft) S 184 0 min 0,000 mm 0,0 UV-I 0 W/m -2,0 C 3,7 C 4,8 km/h (1 Bft) 98,11 %
28.03.2017 02:26 3,6 C 66 % 1022,7 hPa 0,0 l/m 3,3 km/h (1 Bft) S 184 0 min 0,000 mm 0,0 UV-I 0 W/m -2,1 C 3,6 C 4,8 km/h (1 Bft) 94,74 %
28.03.2017 02:28 3,5 C 66 % 1022,6 hPa 0,0 l/m 2,1 km/h (1 Bft) S 184 0 min 0,000 mm 0,0 UV-I 0 W/m -2,2 C 3,5 C 3,2 km/h (1 Bft) 100,00 %
28.03.2017 02:30 3,3 C 68 % 1022,6 hPa 0,0 l/m 2,6 km/h (1 Bft) S 184 0 min 0,000 mm 0,0 UV-I 0 W/m -2,0 C 3,3 C 4,8 km/h (1 Bft) 100,00 %
28.03.2017 02:32 3,1 C 68 % 1022,6 hPa 0,0 l/m 1,8 km/h (1 Bft) S 184 0 min 0,000 mm 0,0 UV-I 0 W/m -2,2 C 3,1 C 3,2 km/h (1 Bft) 96,00 %
28.03.2017 02:34 3,2 C 67 % 1022,6 hPa 0,0 l/m 1,5 km/h (1 Bft) S 184 0 min 0,000 mm 0,0 UV-I 0 W/m -2,3 C 3,2 C 3,2 km/h (1 Bft) 98,00 %
28.03.2017 02:36 3,3 C 66 % 1022,6 hPa 0,0 l/m 2,6 km/h (1 Bft) S 184 0 min 0,000 mm 0,0 UV-I 0 W/m -2,4 C 3,3 C 3,2 km/h (1 Bft) 100,00 %
28.03.2017 02:38 3,4 C 67 % 1022,6 hPa 0,0 l/m 1,6 km/h (1 Bft) S 184 0 min 0,000 mm 0,0 UV-I 0 W/m -2,1 C 3,4 C 3,2 km/h (1 Bft) 94,34 %
28.03.2017 02:40 3,4 C 66 % 1022,6 hPa 0,0 l/m 2,6 km/h (1 Bft) S 184 0 min 0,000 mm 0,0 UV-I 0 W/m -2,3 C 3,4 C 3,2 km/h (1 Bft) 98,00 %
28.03.2017 02:42 3,4 C 66 % 1022,6 hPa 0,0 l/m 2,8 km/h (1 Bft) S 184 0 min 0,000 mm 0,0 UV-I 0 W/m -2,3 C 3,4 C 3,2 km/h (1 Bft) 100,00 %
28.03.2017 02:44 3,4 C 67 % 1022,6 hPa 0,0 l/m 2,1 km/h (1 Bft) S 184 0 min 0,000 mm 0,0 UV-I 0 W/m -2,1 C 3,4 C 3,2 km/h (1 Bft) 98,00 %
28.03.2017 02:46 3,3 C 68 % 1022,6 hPa 0,0 l/m 1,5 km/h (1 Bft) S 184 0 min 0,000 mm 0,0 UV-I 0 W/m -2,0 C 3,3 C 3,2 km/h (1 Bft) 97,37 %
28.03.2017 02:48 3,1 C 67 % 1022,6 hPa 0,0 l/m 1,2 km/h (1 Bft) S 184 0 min 0,000 mm 0,0 UV-I 0 W/m -2,4 C 3,1 C 1,6 km/h (1 Bft) 100,00 %
28.03.2017 02:50 3,2 C 67 % 1022,6 hPa 0,0 l/m 1,5 km/h (1 Bft) S 184 0 min 0,000 mm 0,0 UV-I 0 W/m -2,3 C 3,2 C 1,6 km/h (1 Bft) 100,00 %
28.03.2017 02:52 3,3 C 67 % 1022,5 hPa 0,0 l/m 1,8 km/h (1 Bft) S 184 0 min 0,000 mm 0,0 UV-I 0 W/m -2,2 C 3,3 C 3,2 km/h (1 Bft) 98,11 %
28.03.2017 02:54 3,4 C 66 % 1022,5 hPa 0,0 l/m 1,1 km/h (1 Bft) S 184 0 min 0,000 mm 0,0 UV-I 0 W/m -2,3 C 3,4 C 1,6 km/h (1 Bft) 97,37 %
28.03.2017 02:56 3,5 C 66 % 1022,4 hPa 0,0 l/m 0,1 km/h (0 Bft) S 184 0 min 0,000 mm 0,0 UV-I 0 W/m -2,2 C 3,5 C 1,6 km/h (1 Bft) 98,11 %
28.03.2017 02:58 3,6 C 65 % 1022,4 hPa 0,0 l/m 0,0 km/h (0 Bft) S 184 0 min 0,000 mm 0,0 UV-I 0 W/m -2,4 C 3,6 C 0,0 km/h (0 Bft) 97,87 %
28.03.2017 03:00 3,4 C 67 % 1022,5 hPa 0,0 l/m 0,0 km/h (0 Bft) S 184 0 min 0,000 mm 0,0 UV-I 0 W/m -2,1 C 3,4 C 0,0 km/h (0 Bft) 100,00 %
28.03.2017 03:02 3,2 C 69 % 1022,5 hPa 0,0 l/m 0,0 km/h (0 Bft) S 184 0 min 0,000 mm 0,0 UV-I 0 W/m -1,9 C 3,2 C 0,0 km/h (0 Bft) 98,08 %
28.03.2017 03:04 3,0 C 70 % 1022,4 hPa 0,0 l/m 0,0 km/h (0 Bft) S 184 0 min 0,000 mm 0,0 UV-I 0 W/m -1,9 C 3,0 C 0,0 km/h (0 Bft) 100,00 %
28.03.2017 03:06 2,9 C 69 % 1022,4 hPa 0,0 l/m 2,9 km/h (1 Bft) S 184 0 min 0,000 mm 0,0 UV-I 0 W/m -2,2 C 2,9 C 6,4 km/h (2 Bft) 97,56 %
28.03.2017 03:08 2,8 C 69 % 1022,4 hPa 0,0 l/m 4,7 km/h (1 Bft) S 184 0 min 0,000 mm 0,0 UV-I 0 W/m -2,3 C 2,8 C 6,4 km/h (2 Bft) 98,11 %
28.03.2017 03:10 2,7 C 70 % 1022,4 hPa 0,0 l/m 3,9 km/h (1 Bft) S 184 0 min 0,000 mm 0,0 UV-I 0 W/m -2,2 C 2,7 C 6,4 km/h (2 Bft) 97,73 %
28.03.2017 03:12 2,6 C 71 % 1022,4 hPa 0,0 l/m 5,1 km/h (1 Bft) S 184 0 min 0,000 mm 0,0 UV-I 0 W/m -2,1 C 2,6 C 8,0 km/h (2 Bft) 100,00 %
28.03.2017 03:14 2,6 C 71 % 1022,4 hPa 0,0 l/m 4,8 km/h (1 Bft) S 186 0 min 0,000 mm 0,0 UV-I 0 W/m -2,1 C 2,6 C 6,4 km/h (2 Bft) 98,00 %
28.03.2017 03:16 2,7 C 71 % 1022,4 hPa 0,0 l/m 5,3 km/h (1 Bft) S-SW 192 0 min 0,000 mm 0,0 UV-I 0 W/m -2,0 C 2,7 C 8,0 km/h (2 Bft) 100,00 %
28.03.2017 03:18 2,6 C 72 % 1022,4 hPa 0,0 l/m 3,3 km/h (1 Bft) S-SW 192 0 min 0,000 mm 0,0 UV-I 0 W/m -1,9 C 2,6 C 6,4 km/h (2 Bft) 100,00 %
28.03.2017 03:20 2,5 C 72 % 1022,4 hPa 0,0 l/m 3,9 km/h (1 Bft) S-SW 192 0 min 0,000 mm 0,0 UV-I 0 W/m -2,0 C 2,5 C 6,4 km/h (2 Bft) 98,39 %
28.03.2017 03:22 2,6 C 73 % 1022,4 hPa 0,0 l/m 3,9 km/h (1 Bft) S-SW 192 0 min 0,000 mm 0,0 UV-I 0 W/m -1,7 C 2,6 C 4,8 km/h (1 Bft) 100,00 %
28.03.2017 03:24 2,6 C 74 % 1022,4 hPa 0,0 l/m 4,5 km/h (1 Bft) S-SW 192 0 min 0,000 mm 0,0 UV-I 0 W/m -1,6 C 2,6 C 6,4 km/h (2 Bft) 97,87 %
28.03.2017 03:26 2,6 C 74 % 1022,3 hPa 0,0 l/m 2,8 km/h (1 Bft) S-SW 192 0 min 0,000 mm 0,0 UV-I 0 W/m -1,6 C 2,6 C 4,8 km/h (1 Bft) 96,00 %
28.03.2017 03:28 2,6 C 74 % 1022,2 hPa 0,0 l/m 3,1 km/h (1 Bft) S-SW 192 0 min 0,000 mm 0,0 UV-I 0 W/m -1,6 C 2,6 C 4,8 km/h (1 Bft) 96,08 %
28.03.2017 03:30 2,4 C 74 % 1022,2 hPa 0,0 l/m 3,3 km/h (1 Bft) S-SW 192 0 min 0,000 mm 0,0 UV-I 0 W/m -1,7 C 2,4 C 4,8 km/h (1 Bft) 97,37 %
28.03.2017 03:33 2,4 C 75 % 1022,2 hPa 0,0 l/m 3,5 km/h (1 Bft) S-SW 192 0 min 0,000 mm 0,0 UV-I 0 W/m -1,6 C 2,4 C 4,8 km/h (1 Bft) 98,65 %
28.03.2017 03:34 2,4 C 76 % 1022,2 hPa 0,0 l/m 3,4 km/h (1 Bft) S-SW 192 0 min 0,000 mm 0,0 UV-I 0 W/m -1,4 C 2,4 C 4,8 km/h (1 Bft) 100,00 %
28.03.2017 03:36 2,3 C 76 % 1022,2 hPa 0,0 l/m 3,1 km/h (1 Bft) S-SW 192 0 min 0,000 mm 0,0 UV-I 0 W/m -1,5 C 2,3 C 4,8 km/h (1 Bft) 94,00 %
28.03.2017 03:38 2,3 C 76 % 1022,1 hPa 0,0 l/m 2,9 km/h (1 Bft) S-SW 192 0 min 0,000 mm 0,0 UV-I 0 W/m -1,5 C 2,3 C 4,8 km/h (1 Bft) 93,18 %
28.03.2017 03:40 2,3 C 76 % 1022,1 hPa 0,0 l/m 2,0 km/h (1 Bft) S-SW 192 0 min 0,000 mm 0,0 UV-I 0 W/m -1,5 C 2,3 C 3,2 km/h (1 Bft) 98,00 %
28.03.2017 03:42 2,1 C 77 % 1022,2 hPa 0,0 l/m 2,3 km/h (1 Bft) S-SW 192 0 min 0,000 mm 0,0 UV-I 0 W/m -1,5 C 2,1 C 3,2 km/h (1 Bft) 97,62 %
28.03.2017 03:44 2,2 C 78 % 1022,2 hPa 0,0 l/m 2,3 km/h (1 Bft) S-SW 192 0 min 0,000 mm 0,0 UV-I 0 W/m -1,2 C 2,2 C 3,2 km/h (1 Bft) 92,45 %
28.03.2017 03:46 2,1 C 78 % 1022,1 hPa 0,0 l/m 2,5 km/h (1 Bft) S-SW 192 0 min 0,000 mm 0,0 UV-I 0 W/m -1,3 C 2,1 C 3,2 km/h (1 Bft) 97,14 %
28.03.2017 03:48 2,2 C 79 % 1022,1 hPa 0,0 l/m 2,3 km/h (1 Bft) S-SW 192 0 min 0,000 mm 0,0 UV-I 0 W/m -1,1 C 2,2 C 4,8 km/h (1 Bft) 93,62 %
28.03.2017 03:50 2,2 C 79 % 1022,1 hPa 0,0 l/m 3,3 km/h (1 Bft) S-SW 192 0 min 0,000 mm 0,0 UV-I 0 W/m -1,1 C 2,2 C 4,8 km/h (1 Bft) 96,23 %
28.03.2017 03:52 2,2 C 79 % 1022,1 hPa 0,0 l/m 3,2 km/h (1 Bft) S-SW 192 0 min 0,000 mm 0,0 UV-I 0 W/m -1,1 C 2,2 C 4,8 km/h (1 Bft) 97,73 %
28.03.2017 03:54 2,3 C 79 % 1022,1 hPa 0,0 l/m 3,1 km/h (1 Bft) S-SW 192 0 min 0,000 mm 0,0 UV-I 0 W/m -1,0 C 2,3 C 4,8 km/h (1 Bft) 94,34 %
28.03.2017 03:56 2,3 C 79 % 1022,1 hPa 0,0 l/m 2,5 km/h (1 Bft) S-SW 192 0 min 0,000 mm 0,0 UV-I 0 W/m -1,0 C 2,3 C 4,8 km/h (1 Bft) 93,18 %
28.03.2017 03:58 2,3 C 79 % 1022,1 hPa 0,0 l/m 1,5 km/h (1 Bft) S-SW 192 0 min 0,000 mm 0,0 UV-I 0 W/m -1,0 C 2,3 C 3,2 km/h (1 Bft) 95,74 %
28.03.2017 04:00 2,1 C 79 % 1022,2 hPa 0,0 l/m 3,2 km/h (1 Bft) S-SW 192 0 min 0,000 mm 0,0 UV-I 0 W/m -1,2 C 2,1 C 4,8 km/h (1 Bft) 95,74 %
28.03.2017 04:02 2,0 C 81 % 1022,2 hPa 0,0 l/m 3,4 km/h (1 Bft) S-SW 192 0 min 0,000 mm 0,0 UV-I 0 W/m -0,9 C 2,0 C 4,8 km/h (1 Bft) 96,55 %
28.03.2017 04:04 2,0 C 81 % 1022,2 hPa 0,0 l/m 2,9 km/h (1 Bft) S-SW 192 0 min 0,000 mm 0,0 UV-I 0 W/m -0,9 C 2,0 C 4,8 km/h (1 Bft) 94,29 %
28.03.2017 04:06 2,0 C 81 % 1022,2 hPa 0,0 l/m 2,7 km/h (1 Bft) S-SW 192 0 min 0,000 mm 0,0 UV-I 0 W/m -0,9 C 2,0 C 4,8 km/h (1 Bft) 97,73 %
28.03.2017 04:08 1,9 C 82 % 1022,2 hPa 0,0 l/m 2,6 km/h (1 Bft) S-SW 192 0 min 0,000 mm 0,0 UV-I 0 W/m -0,8 C 1,9 C 4,8 km/h (1 Bft) 95,16 %
28.03.2017 04:10 1,9 C 82 % 1022,2 hPa 0,0 l/m 2,2 km/h (1 Bft) S-SW 192 0 min 0,000 mm 0,0 UV-I 0 W/m -0,8 C 1,9 C 4,8 km/h (1 Bft) 92,00 %
28.03.2017 04:12 2,0 C 82 % 1022,2 hPa 0,0 l/m 3,1 km/h (1 Bft) S-SW 192 0 min 0,000 mm 0,0 UV-I 0 W/m -0,7 C 2,0 C 4,8 km/h (1 Bft) 95,83 %
28.03.2017 04:14 2,0 C 81 % 1022,2 hPa 0,0 l/m 2,1 km/h (1 Bft) S-SW 192 0 min 0,000 mm 0,0 UV-I 0 W/m -0,9 C 2,0 C 3,2 km/h (1 Bft) 95,71 %
28.03.2017 04:16 1,9 C 82 % 1022,2 hPa 0,0 l/m 2,6 km/h (1 Bft) S-SW 192 0 min 0,000 mm 0,0 UV-I 0 W/m -0,8 C 1,9 C 4,8 km/h (1 Bft) 95,74 %
28.03.2017 04:18 1,9 C 82 % 1022,1 hPa 0,0 l/m 4,2 km/h (1 Bft) S-SW 192 0 min 0,000 mm 0,0 UV-I 0 W/m -0,8 C 1,9 C 4,8 km/h (1 Bft) 100,00 %
28.03.2017 04:20 1,8 C 82 % 1022,1 hPa 0,0 l/m 3,7 km/h (1 Bft) S-SW 192 0 min 0,000 mm 0,0 UV-I 0 W/m -0,9 C 1,8 C 4,8 km/h (1 Bft) 100,00 %
28.03.2017 04:22 1,8 C 82 % 1022,1 hPa 0,0 l/m 1,7 km/h (1 Bft) S-SW 192 0 min 0,000 mm 0,0 UV-I 0 W/m -0,9 C 1,8 C 3,2 km/h (1 Bft) 100,00 %
28.03.2017 04:24 1,8 C 82 % 1022,1 hPa 0,0 l/m 1,4 km/h (1 Bft) S-SW 192 0 min 0,000 mm 0,0 UV-I 0 W/m -0,9 C 1,8 C 3,2 km/h (1 Bft) 100,00 %
28.03.2017 04:26 1,8 C 83 % 1022,1 hPa 0,0 l/m 1,6 km/h (1 Bft) S-SW 192 0 min 0,000 mm 0,0 UV-I 0 W/m -0,8 C 1,8 C 3,2 km/h (1 Bft) 100,00 %
28.03.2017 04:28 1,9 C 83 % 1022,1 hPa 0,0 l/m 2,4 km/h (1 Bft) S-SW 192 0 min 0,000 mm 0,0 UV-I 0 W/m -0,7 C 1,9 C 3,2 km/h (1 Bft) 100,00 %
28.03.2017 04:30 1,9 C 82 % 1022,1 hPa 0,0 l/m 3,0 km/h (1 Bft) S-SW 192 0 min 0,000 mm 0,0 UV-I 0 W/m -0,8 C 1,9 C 4,8 km/h (1 Bft) 97,87 %
28.03.2017 04:32 1,9 C 82 % 1022,1 hPa 0,0 l/m 1,4 km/h (1 Bft) S-SW 192 0 min 0,000 mm 0,0 UV-I 0 W/m -0,8 C 1,9 C 3,2 km/h (1 Bft) 98,00 %
28.03.2017 04:34 1,9 C 82 % 1022,1 hPa 0,0 l/m 2,1 km/h (1 Bft) S-SW 192 0 min 0,000 mm 0,0 UV-I 0 W/m -0,8 C 1,9 C 3,2 km/h (1 Bft) 100,00 %
28.03.2017 04:36 1,9 C 82 % 1022,1 hPa 0,0 l/m 1,6 km/h (1 Bft) S-SW 192 0 min 0,000 mm 0,0 UV-I 0 W/m -0,8 C 1,9 C 3,2 km/h (1 Bft) 97,37 %
28.03.2017 04:38 1,8 C 82 % 1022,1 hPa 0,0 l/m 3,6 km/h (1 Bft) S-SW 192 0 min 0,000 mm 0,0 UV-I 0 W/m -0,9 C 1,8 C 4,8 km/h (1 Bft) 100,00 %
28.03.2017 04:40 1,8 C 82 % 1022,1 hPa 0,0 l/m 3,7 km/h (1 Bft) S-SW 192 0 min 0,000 mm 0,0 UV-I 0 W/m -0,9 C 1,8 C 4,8 km/h (1 Bft) 100,00 %
28.03.2017 04:42 1,8 C 82 % 1022,0 hPa 0,0 l/m 4,2 km/h (1 Bft) S-SW 192 0 min 0,000 mm 0,0 UV-I 0 W/m -0,9 C 1,8 C 6,4 km/h (2 Bft) 100,00 %
28.03.2017 04:44 1,8 C 82 % 1022,0 hPa 0,0 l/m 4,9 km/h (1 Bft) S-SW 192 0 min 0,000 mm 0,0 UV-I 0 W/m -0,9 C 1,8 C 6,4 km/h (2 Bft) 100,00 %
28.03.2017 04:46 1,7 C 82 % 1022,0 hPa 0,0 l/m 3,2 km/h (1 Bft) S-SW 192 0 min 0,000 mm 0,0 UV-I 0 W/m -1,0 C 1,7 C 4,8 km/h (1 Bft) 100,00 %
28.03.2017 04:48 1,6 C 82 % 1022,0 hPa 0,0 l/m 2,0 km/h (1 Bft) S-SW 192 0 min 0,000 mm 0,0 UV-I 0 W/m -1,1 C 1,6 C 3,2 km/h (1 Bft) 98,00 %
28.03.2017 04:50 1,5 C 83 % 1022,0 hPa 0,0 l/m 3,0 km/h (1 Bft) S-SW 192 0 min 0,000 mm 0,0 UV-I 0 W/m -1,1 C 1,5 C 4,8 km/h (1 Bft) 97,87 %
28.03.2017 04:52 1,5 C 83 % 1022,1 hPa 0,0 l/m 3,8 km/h (1 Bft) S-SW 192 0 min 0,000 mm 0,0 UV-I 0 W/m -1,1 C 1,5 C 4,8 km/h (1 Bft) 100,00 %
28.03.2017 04:54 1,6 C 83 % 1022,1 hPa 0,0 l/m 3,1 km/h (1 Bft) S-SW 192 0 min 0,000 mm 0,0 UV-I 0 W/m -1,0 C 1,6 C 4,8 km/h (1 Bft) 98,00 %
28.03.2017 04:56 1,6 C 84 % 1022,1 hPa 0,0 l/m 3,4 km/h (1 Bft) S-SW 192 0 min 0,000 mm 0,0 UV-I 0 W/m -0,8 C 1,6 C 4,8 km/h (1 Bft) 96,00 %
28.03.2017 04:58 1,7 C 83 % 1022,1 hPa 0,0 l/m 1,9 km/h (1 Bft) S-SW 192 0 min 0,000 mm 0,0 UV-I 0 W/m -0,9 C 1,7 C 4,8 km/h (1 Bft) 100,00 %
28.03.2017 05:00 1,6 C 83 % 1022,2 hPa 0,0 l/m 2,3 km/h (1 Bft) S-SW 192 0 min 0,000 mm 0,0 UV-I 0 W/m -1,0 C 1,6 C 4,8 km/h (1 Bft) 97,87 %
28.03.2017 05:02 1,6 C 83 % 1022,1 hPa 0,0 l/m 3,4 km/h (1 Bft) S-SW 192 0 min 0,000 mm 0,0 UV-I 0 W/m -1,0 C 1,6 C 4,8 km/h (1 Bft) 97,87 %
28.03.2017 05:04 1,5 C 83 % 1022,2 hPa 0,0 l/m 2,6 km/h (1 Bft) S-SW 192 0 min 0,000 mm 0,0 UV-I 0 W/m -1,1 C 1,5 C 3,2 km/h (1 Bft) 95,74 %
28.03.2017 05:06 1,5 C 83 % 1022,1 hPa 0,0 l/m 3,0 km/h (1 Bft) S-SW 192 0 min 0,000 mm 0,0 UV-I 0 W/m -1,1 C 1,5 C 4,8 km/h (1 Bft) 98,21 %
28.03.2017 05:08 1,6 C 83 % 1022,2 hPa 0,0 l/m 3,0 km/h (1 Bft) S-SW 192 0 min 0,000 mm 0,0 UV-I 0 W/m -1,0 C 1,6 C 3,2 km/h (1 Bft) 97,14 %
28.03.2017 05:10 1,6 C 83 % 1022,2 hPa 0,0 l/m 1,3 km/h (1 Bft) S-SW 192 0 min 0,000 mm 0,0 UV-I 0 W/m -1,0 C 1,6 C 3,2 km/h (1 Bft) 98,21 %
28.03.2017 05:12 1,4 C 83 % 1022,2 hPa 0,0 l/m 1,9 km/h (1 Bft) S-SW 192 0 min 0,000 mm 0,0 UV-I 0 W/m -1,2 C 1,4 C 3,2 km/h (1 Bft) 100,00 %
28.03.2017 05:14 1,4 C 84 % 1022,2 hPa 0,0 l/m 0,8 km/h (0 Bft) S-SW 192 0 min 0,000 mm 0,0 UV-I 0 W/m -1,0 C 1,4 C 1,6 km/h (1 Bft) 93,62 %
28.03.2017 05:16 1,4 C 84 % 1022,3 hPa 0,0 l/m 0,2 km/h (0 Bft) S-SW 192 0 min 0,000 mm 0,0 UV-I 0 W/m -1,0 C 1,4 C 1,6 km/h (1 Bft) 100,00 %
28.03.2017 05:18 1,4 C 84 % 1022,3 hPa 0,0 l/m 0,2 km/h (0 Bft) S-SW 192 0 min 0,000 mm 0,0 UV-I 0 W/m -1,0 C 1,4 C 1,6 km/h (1 Bft) 95,74 %
28.03.2017 05:20 1,5 C 84 % 1022,3 hPa 0,0 l/m 2,0 km/h (1 Bft) S-SW 192 0 min 0,000 mm 0,0 UV-I 0 W/m -0,9 C 1,5 C 4,8 km/h (1 Bft) 96,00 %
28.03.2017 05:22 1,6 C 84 % 1022,3 hPa 0,0 l/m 2,1 km/h (1 Bft) S-SW 192 0 min 0,000 mm 0,0 UV-I 0 W/m -0,8 C 1,6 C 4,8 km/h (1 Bft) 97,87 %
28.03.2017 05:24 1,8 C 84 % 1022,3 hPa 0,0 l/m 1,3 km/h (1 Bft) S-SW 192 0 min 0,000 mm 0,0 UV-I 0 W/m -0,6 C 1,8 C 3,2 km/h (1 Bft) 90,24 %
28.03.2017 05:26 1,8 C 83 % 1022,3 hPa 0,0 l/m 1,1 km/h (1 Bft) S-SW 192 0 min 0,000 mm 0,0 UV-I 0 W/m -0,8 C 1,8 C 3,2 km/h (1 Bft) 92,00 %
28.03.2017 05:28 1,8 C 82 % 1022,3 hPa 0,0 l/m 1,3 km/h (1 Bft) S-SW 192 0 min 0,000 mm 0,0 UV-I 0 W/m -0,9 C 1,8 C 3,2 km/h (1 Bft) 97,37 %
28.03.2017 05:30 1,7 C 83 % 1022,3 hPa 0,0 l/m 0,5 km/h (0 Bft) S-SW 192 0 min 0,000 mm 0,0 UV-I 0 W/m -0,9 C 1,7 C 3,2 km/h (1 Bft) 94,92 %
28.03.2017 05:32 1,7 C 83 % 1022,3 hPa 0,0 l/m 1,6 km/h (1 Bft) S-SW 192 0 min 0,000 mm 0,0 UV-I 0 W/m -0,9 C 1,7 C 3,2 km/h (1 Bft) 97,37 %
28.03.2017 05:34 1,7 C 83 % 1022,4 hPa 0,0 l/m 1,9 km/h (1 Bft) S-SW 192 0 min 0,000 mm 0,0 UV-I 0 W/m -0,9 C 1,7 C 3,2 km/h (1 Bft) 97,62 %
28.03.2017 05:36 1,7 C 83 % 1022,4 hPa 0,0 l/m 2,0 km/h (1 Bft) S-SW 192 0 min 0,000 mm 0,0 UV-I 0 W/m -0,9 C 1,7 C 3,2 km/h (1 Bft) 96,36 %
28.03.2017 05:38 1,7 C 83 % 1022,4 hPa 0,0 l/m 2,0 km/h (1 Bft) S-SW 192 0 min 0,000 mm 0,0 UV-I 0 W/m -0,9 C 1,7 C 3,2 km/h (1 Bft) 97,62 %
28.03.2017 05:40 1,7 C 83 % 1022,4 hPa 0,0 l/m 2,1 km/h (1 Bft) S-SW 192 0 min 0,000 mm 0,0 UV-I 0 W/m -0,9 C 1,7 C 3,2 km/h (1 Bft) 87,27 %
28.03.2017 05:42 1,8 C 83 % 1022,4 hPa 0,0 l/m 2,3 km/h (1 Bft) S-SW 192 0 min 0,000 mm 0,0 UV-I 0 W/m -0,8 C 1,8 C 4,8 km/h (1 Bft) 95,24 %
28.03.2017 05:44 1,9 C 83 % 1022,4 hPa 0,0 l/m 2,9 km/h (1 Bft) S-SW 192 0 min 0,000 mm 0,0 UV-I 0 W/m -0,7 C 1,9 C 4,8 km/h (1 Bft) 94,00 %
28.03.2017 05:46 1,9 C 83 % 1022,4 hPa 0,0 l/m 3,3 km/h (1 Bft) S-SW 192 0 min 0,000 mm 0,0 UV-I 0 W/m -0,7 C 1,9 C 4,8 km/h (1 Bft) 94,00 %
28.03.2017 05:48 1,9 C 83 % 1022,4 hPa 0,0 l/m 4,4 km/h (1 Bft) S-SW 192 0 min 0,000 mm 0,0 UV-I 0 W/m -0,7 C 1,9 C 6,4 km/h (2 Bft) 95,12 %
28.03.2017 05:50 1,8 C 83 % 1022,4 hPa 0,0 l/m 4,5 km/h (1 Bft) S-SW 192 0 min 0,000 mm 0,0 UV-I 0 W/m -0,8 C 1,8 C 6,4 km/h (2 Bft) 95,74 %
28.03.2017 05:52 1,8 C 83 % 1022,4 hPa 0,0 l/m 4,5 km/h (1 Bft) S-SW 192 0 min 0,000 mm 0,0 UV-I 0 W/m -0,8 C 1,8 C 6,4 km/h (2 Bft) 93,75 %
28.03.2017 05:54 1,8 C 83 % 1022,4 hPa 0,0 l/m 4,0 km/h (1 Bft) S-SW 192 0 min 0,000 mm 0,0 UV-I 0 W/m -0,8 C 1,8 C 6,4 km/h (2 Bft) 94,00 %
28.03.2017 05:56 1,7 C 83 % 1022,4 hPa 0,0 l/m 4,1 km/h (1 Bft) S-SW 192 0 min 0,000 mm 0,0 UV-I 0 W/m -0,9 C 1,7 C 6,4 km/h (2 Bft) 92,68 %
28.03.2017 05:58 1,7 C 84 % 1022,4 hPa 0,0 l/m 2,6 km/h (1 Bft) S-SW 192 0 min 0,000 mm 0,0 UV-I 0 W/m -0,7 C 1,7 C 4,8 km/h (1 Bft) 92,00 %
28.03.2017 06:00 1,7 C 84 % 1022,4 hPa 0,0 l/m 3,8 km/h (1 Bft) S-SW 192 0 min 0,000 mm 0,0 UV-I 0 W/m -0,7 C 1,7 C 6,4 km/h (2 Bft) 94,74 %
28.03.2017 06:02 1,8 C 84 % 1022,4 hPa 0,0 l/m 3,3 km/h (1 Bft) S-SW 192 0 min 0,000 mm 0,0 UV-I 0 W/m -0,6 C 1,8 C 4,8 km/h (1 Bft) 94,44 %
28.03.2017 06:04 1,8 C 84 % 1022,4 hPa 0,0 l/m 3,3 km/h (1 Bft) S-SW 192 0 min 0,000 mm 0,0 UV-I 0 W/m -0,6 C 1,8 C 4,8 km/h (1 Bft) 93,62 %
28.03.2017 06:06 1,9 C 83 % 1022,4 hPa 0,0 l/m 2,3 km/h (1 Bft) S-SW 192 0 min 0,000 mm 0,0 UV-I 0 W/m -0,7 C 1,9 C 3,2 km/h (1 Bft) 94,34 %
28.03.2017 06:08 1,8 C 83 % 1022,4 hPa 0,0 l/m 2,4 km/h (1 Bft) S-SW 192 0 min 0,000 mm 0,0 UV-I 0 W/m -0,8 C 1,8 C 3,2 km/h (1 Bft) 92,11 %
28.03.2017 06:10 1,8 C 83 % 1022,4 hPa 0,0 l/m 2,3 km/h (1 Bft) S-SW 192 0 min 0,000 mm 0,0 UV-I 0 W/m -0,8 C 1,8 C 4,8 km/h (1 Bft) 96,23 %
28.03.2017 06:12 1,8 C 83 % 1022,4 hPa 0,0 l/m 2,5 km/h (1 Bft) S-SW 192 0 min 0,000 mm 0,0 UV-I 0 W/m -0,8 C 1,8 C 4,8 km/h (1 Bft) 92,00 %
28.03.2017 06:14 1,8 C 84 % 1022,4 hPa 0,0 l/m 3,1 km/h (1 Bft) S-SW 192 0 min 0,000 mm 0,0 UV-I 0 W/m -0,6 C 1,8 C 4,8 km/h (1 Bft) 97,37 %
28.03.2017 06:16 1,8 C 84 % 1022,3 hPa 0,0 l/m 2,3 km/h (1 Bft) S-SW 192 0 min 0,000 mm 0,0 UV-I 0 W/m -0,6 C 1,8 C 4,8 km/h (1 Bft) 92,00 %
28.03.2017 06:18 1,9 C 84 % 1022,3 hPa 0,0 l/m 1,9 km/h (1 Bft) S-SW 192 0 min 0,000 mm 0,0 UV-I 0 W/m -0,5 C 1,9 C 3,2 km/h (1 Bft) 92,00 %
28.03.2017 06:20 1,9 C 84 % 1022,4 hPa 0,0 l/m 2,0 km/h (1 Bft) S-SW 192 0 min 0,000 mm 0,0 UV-I 0 W/m -0,5 C 1,9 C 3,2 km/h (1 Bft) 92,31 %
28.03.2017 06:22 1,9 C 84 % 1022,4 hPa 0,0 l/m 2,2 km/h (1 Bft) S-SW 192 0 min 0,000 mm 0,0 UV-I 0 W/m -0,5 C 1,9 C 3,2 km/h (1 Bft) 94,00 %
28.03.2017 06:24 1,9 C 84 % 1022,5 hPa 0,0 l/m 2,2 km/h (1 Bft) S-SW 192 0 min 0,000 mm 0,0 UV-I 0 W/m -0,5 C 1,9 C 4,8 km/h (1 Bft) 94,34 %
28.03.2017 06:26 1,9 C 84 % 1022,5 hPa 0,0 l/m 1,3 km/h (1 Bft) S-SW 192 0 min 0,000 mm 0,0 UV-I 0 W/m -0,5 C 1,9 C 3,2 km/h (1 Bft) 95,74 %
28.03.2017 06:28 1,9 C 84 % 1022,5 hPa 0,0 l/m 1,0 km/h (0 Bft) S-SW 192 0 min 0,000 mm 0,0 UV-I 0 W/m -0,5 C 1,9 C 3,2 km/h (1 Bft) 93,62 %
28.03.2017 06:30 1,9 C 84 % 1022,5 hPa 0,0 l/m 1,9 km/h (1 Bft) S-SW 192 0 min 0,000 mm 0,0 UV-I 0 W/m -0,5 C 1,9 C 3,2 km/h (1 Bft) 95,12 %
28.03.2017 06:32 1,8 C 84 % 1022,6 hPa 0,0 l/m 0,5 km/h (0 Bft) S-SW 192 0 min 0,000 mm 0,0 UV-I 0 W/m -0,6 C 1,8 C 1,6 km/h (1 Bft) 98,00 %
28.03.2017 06:34 1,8 C 84 % 1022,5 hPa 0,0 l/m 0,2 km/h (0 Bft) S-SW 192 0 min 0,000 mm 0,0 UV-I 0 W/m -0,6 C 1,8 C 1,6 km/h (1 Bft) 95,12 %
28.03.2017 06:36 1,7 C 84 % 1022,6 hPa 0,0 l/m 0,4 km/h (0 Bft) S-SW 192 0 min 0,000 mm 0,0 UV-I 0 W/m -0,7 C 1,7 C 1,6 km/h (1 Bft) 96,00 %
28.03.2017 06:38 1,7 C 85 % 1022,6 hPa 0,0 l/m 0,1 km/h (0 Bft) S-SW 192 0 min 0,000 mm 0,0 UV-I 2 W/m -0,5 C 1,7 C 1,6 km/h (1 Bft) 97,56 %
28.03.2017 06:40 1,7 C 85 % 1022,6 hPa 0,0 l/m 0,0 km/h (0 Bft) S-SW 192 0 min 0,000 mm 0,0 UV-I 5 W/m -0,5 C 1,7 C 1,6 km/h (1 Bft) 100,00 %
28.03.2017 06:42 1,7 C 85 % 1022,6 hPa 0,0 l/m 0,2 km/h (0 Bft) S-SW 192 0 min 0,000 mm 0,0 UV-I 5 W/m -0,5 C 1,7 C 1,6 km/h (1 Bft) 97,37 %
28.03.2017 06:44 1,7 C 85 % 1022,7 hPa 0,0 l/m 1,7 km/h (1 Bft) S-SW 192 0 min 0,000 mm 0,0 UV-I 5 W/m -0,5 C 1,7 C 3,2 km/h (1 Bft) 98,11 %
28.03.2017 06:46 1,7 C 85 % 1022,7 hPa 0,0 l/m 1,0 km/h (0 Bft) S-SW 192 0 min 0,000 mm 0,0 UV-I 7 W/m -0,5 C 1,7 C 1,6 km/h (1 Bft) 94,00 %
28.03.2017 06:48 1,7 C 85 % 1022,7 hPa 0,0 l/m 0,2 km/h (0 Bft) S-SW 192 0 min 0,000 mm 0,0 UV-I 7 W/m -0,5 C 1,7 C 1,6 km/h (1 Bft) 95,12 %
28.03.2017 06:50 1,8 C 85 % 1022,8 hPa 0,0 l/m 0,0 km/h (0 Bft) S-SW 192 0 min 0,000 mm 0,0 UV-I 9 W/m -0,4 C 1,8 C 0,0 km/h (0 Bft) 96,00 %
28.03.2017 06:52 1,8 C 85 % 1022,8 hPa 0,0 l/m 0,0 km/h (0 Bft) S-SW 192 0 min 0,000 mm 0,0 UV-I 10 W/m -0,4 C 1,8 C 0,0 km/h (0 Bft) 97,73 %
28.03.2017 06:54 1,8 C 85 % 1022,8 hPa 0,0 l/m 0,0 km/h (0 Bft) S-SW 192 0 min 0,000 mm 0,0 UV-I 11 W/m -0,4 C 1,8 C 0,0 km/h (0 Bft) 98,00 %
28.03.2017 06:56 1,8 C 84 % 1022,8 hPa 0,0 l/m 0,0 km/h (0 Bft) S-SW 192 0 min 0,000 mm 0,0 UV-I 12 W/m -0,6 C 1,8 C 0,0 km/h (0 Bft) 97,87 %
28.03.2017 06:58 1,7 C 85 % 1022,8 hPa 0,0 l/m 0,0 km/h (0 Bft) S-SW 192 0 min 0,000 mm 0,0 UV-I 13 W/m -0,5 C 1,7 C 0,0 km/h (0 Bft) 97,87 %
28.03.2017 07:00 1,8 C 85 % 1022,8 hPa 0,0 l/m 0,0 km/h (0 Bft) S-SW 192 0 min 0,000 mm 0,0 UV-I 19 W/m -0,4 C 1,8 C 0,0 km/h (0 Bft) 100,00 %
28.03.2017 07:02 1,7 C 84 % 1022,9 hPa 0,0 l/m 0,1 km/h (0 Bft) S-SW 192 2 min 0,000 mm 0,0 UV-I 24 W/m -0,7 C 1,7 C 1,6 km/h (1 Bft) 95,74 %
28.03.2017 07:04 1,6 C 85 % 1022,9 hPa 0,0 l/m 0,2 km/h (0 Bft) S-SW 192 2 min 0,000 mm 0,0 UV-I 27 W/m -0,6 C 1,6 C 1,6 km/h (1 Bft) 97,37 %
28.03.2017 07:06 1,4 C 85 % 1022,9 hPa 0,0 l/m 0,1 km/h (0 Bft) S-SW 192 2 min 0,000 mm 0,0 UV-I 31 W/m -0,8 C 1,4 C 1,6 km/h (1 Bft) 94,34 %
28.03.2017 07:08 1,4 C 85 % 1022,9 hPa 0,0 l/m 0,7 km/h (0 Bft) S-SW 192 2 min 0,000 mm 0,0 UV-I 35 W/m -0,8 C 1,4 C 1,6 km/h (1 Bft) 98,11 %
28.03.2017 07:10 1,3 C 85 % 1022,9 hPa 0,0 l/m 1,7 km/h (1 Bft) S-SW 192 2 min 0,000 mm 0,0 UV-I 38 W/m -0,9 C 1,3 C 3,2 km/h (1 Bft) 98,00 %
28.03.2017 07:12 1,2 C 85 % 1022,9 hPa 0,0 l/m 1,7 km/h (1 Bft) S-SW 192 2 min 0,000 mm 0,0 UV-I 41 W/m -1,0 C 1,2 C 3,2 km/h (1 Bft) 95,12 %
28.03.2017 07:14 1,1 C 86 % 1022,9 hPa 0,0 l/m 1,8 km/h (1 Bft) S-SW 192 2 min 0,000 mm 0,0 UV-I 46 W/m -1,0 C 1,1 C 3,2 km/h (1 Bft) 92,68 %
28.03.2017 07:16 1,1 C 86 % 1022,9 hPa 0,0 l/m 1,5 km/h (1 Bft) S-SW 192 2 min 0,000 mm 0,0 UV-I 49 W/m -1,0 C 1,1 C 3,2 km/h (1 Bft) 97,87 %
28.03.2017 07:18 1,1 C 86 % 1022,9 hPa 0,0 l/m 2,0 km/h (1 Bft) S-SW 192 2 min 0,000 mm 0,0 UV-I 54 W/m -1,0 C 1,1 C 3,2 km/h (1 Bft) 98,00 %
28.03.2017 07:20 1,1 C 86 % 1022,9 hPa 0,0 l/m 1,7 km/h (1 Bft) S-SW 192 2 min 0,000 mm 0,0 UV-I 57 W/m -1,0 C 1,1 C 3,2 km/h (1 Bft) 96,00 %
28.03.2017 07:22 1,1 C 87 % 1022,9 hPa 0,0 l/m 2,2 km/h (1 Bft) S-SW 192 2 min 0,000 mm 0,0 UV-I 60 W/m -0,8 C 1,1 C 3,2 km/h (1 Bft) 100,00 %
28.03.2017 07:24 1,2 C 87 % 1022,9 hPa 0,0 l/m 1,4 km/h (1 Bft) S-SW 192 2 min 0,000 mm 0,0 UV-I 65 W/m -0,7 C 1,2 C 3,2 km/h (1 Bft) 94,00 %
28.03.2017 07:26 1,3 C 87 % 1023,0 hPa 0,0 l/m 1,4 km/h (1 Bft) S-SW 192 2 min 0,000 mm 0,0 UV-I 69 W/m -0,6 C 1,3 C 1,6 km/h (1 Bft) 92,00 %
28.03.2017 07:28 1,4 C 86 % 1023,0 hPa 0,0 l/m 1,7 km/h (1 Bft) S-SW 192 2 min 0,000 mm 0,0 UV-I 75 W/m -0,7 C 1,4 C 3,2 km/h (1 Bft) 96,00 %
28.03.2017 07:30 1,6 C 86 % 1023,0 hPa 0,0 l/m 2,1 km/h (1 Bft) S-SW 192 2 min 0,000 mm 0,0 UV-I 78 W/m -0,5 C 1,6 C 3,2 km/h (1 Bft) 91,49 %
28.03.2017 07:32 1,7 C 86 % 1023,1 hPa 0,0 l/m 2,8 km/h (1 Bft) S-SW 192 2 min 0,000 mm 0,0 UV-I 83 W/m -0,4 C 1,7 C 3,2 km/h (1 Bft) 97,87 %
28.03.2017 07:34 1,8 C 85 % 1023,0 hPa 0,0 l/m 2,3 km/h (1 Bft) S-SW 192 2 min 0,000 mm 0,0 UV-I 88 W/m -0,4 C 1,8 C 3,2 km/h (1 Bft) 92,68 %
28.03.2017 07:36 1,8 C 85 % 1023,0 hPa 0,0 l/m 0,9 km/h (0 Bft) S-SW 192 2 min 0,000 mm 0,0 UV-I 92 W/m -0,4 C 1,8 C 1,6 km/h (1 Bft) 100,00 %
28.03.2017 07:38 1,8 C 85 % 1023,1 hPa 0,0 l/m 1,2 km/h (1 Bft) S-SW 192 2 min 0,000 mm 0,0 UV-I 97 W/m -0,4 C 1,8 C 3,2 km/h (1 Bft) 98,15 %
28.03.2017 07:40 1,8 C 85 % 1023,1 hPa 0,0 l/m 1,8 km/h (1 Bft) S-SW 192 2 min 0,000 mm 0,0 UV-I 102 W/m -0,4 C 1,8 C 3,2 km/h (1 Bft) 98,00 %
28.03.2017 07:42 1,8 C 85 % 1023,0 hPa 0,0 l/m 3,0 km/h (1 Bft) S-SW 192 2 min 0,000 mm 0,0 UV-I 106 W/m -0,4 C 1,8 C 3,2 km/h (1 Bft) 88,24 %
28.03.2017 07:44 1,9 C 86 % 1023,1 hPa 0,0 l/m 2,7 km/h (1 Bft) S-SW 192 2 min 0,000 mm 0,0 UV-I 113 W/m -0,2 C 1,9 C 3,2 km/h (1 Bft) 97,14 %
28.03.2017 07:46 2,0 C 85 % 1023,1 hPa 0,0 l/m 2,6 km/h (1 Bft) S-SW 192 2 min 0,000 mm 0,0 UV-I 116 W/m -0,3 C 2,0 C 4,8 km/h (1 Bft) 98,21 %
28.03.2017 07:48 2,1 C 85 % 1023,1 hPa 0,0 l/m 3,0 km/h (1 Bft) S-SW 192 2 min 0,000 mm 0,0 UV-I 122 W/m -0,2 C 2,1 C 4,8 km/h (1 Bft) 96,15 %
28.03.2017 07:50 2,1 C 85 % 1023,1 hPa 0,0 l/m 2,2 km/h (1 Bft) S-SW 192 2 min 0,000 mm 0,0 UV-I 128 W/m -0,2 C 2,1 C 4,8 km/h (1 Bft) 96,43 %
28.03.2017 07:52 2,2 C 85 % 1023,1 hPa 0,0 l/m 2,1 km/h (1 Bft) S-SW 192 2 min 0,000 mm 0,0 UV-I 133 W/m -0,1 C 2,2 C 3,2 km/h (1 Bft) 94,64 %
28.03.2017 07:54 2,3 C 85 % 1023,1 hPa 0,0 l/m 1,1 km/h (1 Bft) S-SW 192 2 min 0,000 mm 0,0 UV-I 139 W/m 0,0 C 2,3 C 3,2 km/h (1 Bft) 97,87 %
28.03.2017 07:56 2,4 C 85 % 1023,1 hPa 0,0 l/m 2,1 km/h (1 Bft) S-SW 192 2 min 0,000 mm 0,0 UV-I 144 W/m 0,1 C 2,4 C 4,8 km/h (1 Bft) 91,49 %
28.03.2017 07:58 2,5 C 84 % 1023,2 hPa 0,0 l/m 1,1 km/h (1 Bft) S-SW 192 2 min 0,000 mm 0,0 UV-I 150 W/m 0,1 C 2,5 C 3,2 km/h (1 Bft) 95,12 %
28.03.2017 08:00 2,7 C 84 % 1023,2 hPa 0,0 l/m 2,8 km/h (1 Bft) S-SW 192 2 min 0,026 mm 0,0 UV-I 155 W/m 0,3 C 2,7 C 3,2 km/h (1 Bft) 96,00 %
28.03.2017 08:02 2,9 C 84 % 1023,2 hPa 0,0 l/m 2,4 km/h (1 Bft) S-SW 192 2 min 0,000 mm 0,0 UV-I 162 W/m 0,5 C 2,9 C 3,2 km/h (1 Bft) 95,45 %
28.03.2017 08:04 3,1 C 83 % 1023,2 hPa 0,0 l/m 3,4 km/h (1 Bft) S-SW 192 2 min 0,000 mm 0,0 UV-I 167 W/m 0,5 C 3,1 C 4,8 km/h (1 Bft) 90,00 %
28.03.2017 08:06 3,2 C 82 % 1023,2 hPa 0,0 l/m 3,4 km/h (1 Bft) S-SW 192 2 min 0,000 mm 0,0 UV-I 172 W/m 0,4 C 3,2 C 4,8 km/h (1 Bft) 98,00 %
28.03.2017 08:08 3,3 C 82 % 1023,2 hPa 0,0 l/m 2,5 km/h (1 Bft) S-SW 192 2 min 0,000 mm 0,0 UV-I 179 W/m 0,5 C 3,3 C 4,8 km/h (1 Bft) 96,23 %
28.03.2017 08:10 3,3 C 82 % 1023,3 hPa 0,0 l/m 2,2 km/h (1 Bft) S-SW 192 2 min 0,000 mm 0,0 UV-I 184 W/m 0,5 C 3,3 C 4,8 km/h (1 Bft) 97,56 %
28.03.2017 08:12 3,4 C 82 % 1023,2 hPa 0,0 l/m 1,5 km/h (1 Bft) S-SW 192 2 min 0,000 mm 0,0 UV-I 190 W/m 0,6 C 3,4 C 3,2 km/h (1 Bft) 94,00 %
28.03.2017 08:14 3,4 C 82 % 1023,2 hPa 0,0 l/m 0,7 km/h (0 Bft) S-SW 192 2 min 0,000 mm 0,0 UV-I 195 W/m 0,6 C 3,4 C 1,6 km/h (1 Bft) 97,37 %
28.03.2017 08:16 3,6 C 82 % 1023,2 hPa 0,0 l/m 2,3 km/h (1 Bft) S-SW 192 2 min 0,000 mm 0,0 UV-I 202 W/m 0,8 C 3,6 C 4,8 km/h (1 Bft) 93,33 %
28.03.2017 08:18 3,6 C 81 % 1023,2 hPa 0,0 l/m 2,4 km/h (1 Bft) S-SW 192 2 min 0,000 mm 0,0 UV-I 207 W/m 0,7 C 3,6 C 3,2 km/h (1 Bft) 100,00 %
28.03.2017 08:22 4,1 C 80 % 1023,2 hPa 0,0 l/m 3,3 km/h (1 Bft) S-SW 192 4 min 0,000 mm 0,0 UV-I 222 W/m 1,0 C 4,1 C 4,8 km/h (1 Bft) 96,75 %
28.03.2017 08:24 4,2 C 79 % 1023,3 hPa 0,0 l/m 3,1 km/h (1 Bft) S-SW 192 2 min 0,000 mm 0,0 UV-I 227 W/m 0,9 C 4,2 C 4,8 km/h (1 Bft) 97,44 %
28.03.2017 08:26 4,3 C 79 % 1023,2 hPa 0,0 l/m 2,0 km/h (1 Bft) S-SW 192 2 min 0,000 mm 0,0 UV-I 232 W/m 1,0 C 4,3 C 3,2 km/h (1 Bft) 98,00 %
28.03.2017 08:28 4,4 C 79 % 1023,3 hPa 0,0 l/m 3,0 km/h (1 Bft) S-SW 192 2 min 0,000 mm 0,0 UV-I 238 W/m 1,1 C 4,4 C 4,8 km/h (1 Bft) 95,74 %
28.03.2017 08:30 4,6 C 78 % 1023,3 hPa 0,0 l/m 2,9 km/h (1 Bft) S-SW 192 2 min 0,000 mm 0,0 UV-I 245 W/m 1,1 C 4,6 C 4,8 km/h (1 Bft) 94,00 %
28.03.2017 08:32 4,6 C 78 % 1023,3 hPa 0,0 l/m 2,6 km/h (1 Bft) S-SW 192 2 min 0,000 mm 0,0 UV-I 250 W/m 1,1 C 4,6 C 4,8 km/h (1 Bft) 95,12 %
28.03.2017 08:34 4,7 C 78 % 1023,3 hPa 0,0 l/m 3,2 km/h (1 Bft) S-SW 192 2 min 0,000 mm 0,0 UV-I 256 W/m 1,2 C 4,7 C 4,8 km/h (1 Bft) 96,00 %
28.03.2017 08:36 4,8 C 78 % 1023,4 hPa 0,0 l/m 3,6 km/h (1 Bft) S-SW 193 2 min 0,000 mm 0,0 UV-I 262 W/m 1,3 C 4,8 C 6,4 km/h (2 Bft) 98,00 %
28.03.2017 08:38 4,8 C 77 % 1023,3 hPa 0,0 l/m 3,8 km/h (1 Bft) S-SW 193 2 min 0,000 mm 0,0 UV-I 268 W/m 1,1 C 4,8 C 6,4 km/h (2 Bft) 97,37 %
28.03.2017 08:40 4,9 C 77 % 1023,3 hPa 0,0 l/m 3,8 km/h (1 Bft) S-SW 193 2 min 0,000 mm 0,0 UV-I 274 W/m 1,2 C 4,9 C 8,0 km/h (2 Bft) 96,23 %
28.03.2017 08:42 5,0 C 78 % 1023,4 hPa 0,0 l/m 3,8 km/h (1 Bft) S-SW 193 2 min 0,000 mm 0,0 UV-I 280 W/m 1,5 C 5,0 C 6,4 km/h (2 Bft) 91,67 %
28.03.2017 08:44 5,1 C 77 % 1023,4 hPa 0,0 l/m 2,9 km/h (1 Bft) S-SW 194 2 min 0,000 mm 0,0 UV-I 287 W/m 1,4 C 5,1 C 4,8 km/h (1 Bft) 96,72 %
28.03.2017 08:46 5,2 C 78 % 1023,4 hPa 0,0 l/m 3,1 km/h (1 Bft) S-SW 194 2 min 0,000 mm 0,4 UV-I 293 W/m 1,7 C 5,2 C 4,8 km/h (1 Bft) 91,43 %
28.03.2017 08:48 5,3 C 76 % 1023,5 hPa 0,0 l/m 3,6 km/h (1 Bft) S-SW 195 2 min 0,000 mm 0,5 UV-I 298 W/m 1,4 C 5,3 C 6,4 km/h (2 Bft) 98,31 %
28.03.2017 08:50 5,3 C 76 % 1023,4 hPa 0,0 l/m 4,4 km/h (1 Bft) S-SW 196 2 min 0,000 mm 0,5 UV-I 304 W/m 1,4 C 5,3 C 6,4 km/h (2 Bft) 95,45 %
28.03.2017 08:52 5,3 C 76 % 1023,5 hPa 0,0 l/m 3,7 km/h (1 Bft) S-SW 196 2 min 0,000 mm 0,5 UV-I 310 W/m 1,4 C 5,3 C 4,8 km/h (1 Bft) 98,00 %
28.03.2017 08:54 5,4 C 75 % 1023,5 hPa 0,0 l/m 3,3 km/h (1 Bft) SW 228 2 min 0,000 mm 0,5 UV-I 316 W/m 1,3 C 5,4 C 6,4 km/h (2 Bft) 97,87 %
28.03.2017 08:56 5,6 C 76 % 1023,5 hPa 0,0 l/m 3,2 km/h (1 Bft) SW 228 2 min 0,000 mm 0,5 UV-I 322 W/m 1,7 C 5,6 C 4,8 km/h (1 Bft) 100,00 %
28.03.2017 08:58 5,7 C 76 % 1023,5 hPa 0,0 l/m 3,1 km/h (1 Bft) SW 223 2 min 0,000 mm 0,6 UV-I 328 W/m 1,8 C 5,7 C 4,8 km/h (1 Bft) 98,08 %
28.03.2017 09:00 5,8 C 75 % 1023,5 hPa 0,0 l/m 3,3 km/h (1 Bft) SW 223 2 min 0,000 mm 0,6 UV-I 334 W/m 1,7 C 5,8 C 4,8 km/h (1 Bft) 97,87 %
28.03.2017 09:02 5,8 C 74 % 1023,5 hPa 0,0 l/m 2,8 km/h (1 Bft) SW 223 2 min 0,101 mm 0,6 UV-I 341 W/m 1,5 C 5,8 C 4,8 km/h (1 Bft) 100,00 %
28.03.2017 09:04 6,0 C 73 % 1023,4 hPa 0,0 l/m 4,4 km/h (1 Bft) SW 223 2 min 0,000 mm 0,6 UV-I 347 W/m 1,5 C 6,0 C 6,4 km/h (2 Bft) 100,00 %
28.03.2017 09:06 6,1 C 73 % 1023,5 hPa 0,0 l/m 3,6 km/h (1 Bft) SW 236 2 min 0,000 mm 0,7 UV-I 353 W/m 1,6 C 6,1 C 8,0 km/h (2 Bft) 98,00 %
28.03.2017 09:08 6,1 C 72 % 1023,5 hPa 0,0 l/m 4,1 km/h (1 Bft) SW 234 2 min 0,000 mm 0,7 UV-I 358 W/m 1,4 C 6,1 C 6,4 km/h (2 Bft) 100,00 %
28.03.2017 09:10 6,3 C 73 % 1023,5 hPa 0,0 l/m 3,7 km/h (1 Bft) SW 233 2 min 0,000 mm 0,7 UV-I 364 W/m 1,8 C 6,3 C 6,4 km/h (2 Bft) 100,00 %
28.03.2017 09:12 6,4 C 71 % 1023,5 hPa 0,0 l/m 4,1 km/h (1 Bft) SW 230 2 min 0,000 mm 0,7 UV-I 368 W/m 1,5 C 6,4 C 6,4 km/h (2 Bft) 97,73 %
28.03.2017 09:14 6,4 C 71 % 1023,5 hPa 0,0 l/m 4,9 km/h (1 Bft) SW 231 2 min 0,000 mm 0,7 UV-I 375 W/m 1,5 C 6,4 C 8,0 km/h (2 Bft) 100,00 %
28.03.2017 09:16 6,5 C 69 % 1023,5 hPa 0,0 l/m 3,9 km/h (1 Bft) SW 228 2 min 0,000 mm 0,8 UV-I 381 W/m 1,2 C 6,5 C 6,4 km/h (2 Bft) 100,00 %
28.03.2017 09:18 6,6 C 68 % 1023,5 hPa 0,0 l/m 3,3 km/h (1 Bft) SW 229 2 min 0,000 mm 0,8 UV-I 386 W/m 1,1 C 6,6 C 4,8 km/h (1 Bft) 98,00 %
28.03.2017 09:20 6,6 C 69 % 1023,6 hPa 0,0 l/m 3,2 km/h (1 Bft) SW 225 2 min 0,000 mm 0,8 UV-I 392 W/m 1,3 C 6,6 C 6,4 km/h (2 Bft) 100,00 %
28.03.2017 09:22 6,7 C 68 % 1023,6 hPa 0,0 l/m 4,4 km/h (1 Bft) SW 225 2 min 0,000 mm 0,8 UV-I 398 W/m 1,2 C 6,7 C 6,4 km/h (2 Bft) 97,56 %
28.03.2017 09:24 6,7 C 68 % 1023,5 hPa 0,0 l/m 3,0 km/h (1 Bft) SW 219 2 min 0,000 mm 0,8 UV-I 403 W/m 1,2 C 6,7 C 4,8 km/h (1 Bft) 100,00 %
28.03.2017 09:26 6,8 C 67 % 1023,6 hPa 0,0 l/m 2,3 km/h (1 Bft) SW 217 2 min 0,000 mm 0,9 UV-I 409 W/m 1,1 C 6,8 C 6,4 km/h (2 Bft) 100,00 %
28.03.2017 09:28 7,0 C 67 % 1023,5 hPa 0,0 l/m 2,9 km/h (1 Bft) SW 217 2 min 0,000 mm 0,9 UV-I 413 W/m 1,3 C 7,0 C 6,4 km/h (2 Bft) 97,87 %
28.03.2017 09:30 7,1 C 66 % 1023,6 hPa 0,0 l/m 1,0 km/h (0 Bft) SW 217 2 min 0,000 mm 0,9 UV-I 419 W/m 1,2 C 7,1 C 3,2 km/h (1 Bft) 100,00 %
28.03.2017 09:32 7,3 C 66 % 1023,6 hPa 0,0 l/m 2,2 km/h (1 Bft) SW 217 2 min 0,000 mm 0,9 UV-I 424 W/m 1,4 C 7,3 C 3,2 km/h (1 Bft) 98,00 %
28.03.2017 09:34 7,3 C 66 % 1023,5 hPa 0,0 l/m 0,1 km/h (0 Bft) SW 217 2 min 0,000 mm 0,9 UV-I 430 W/m 1,4 C 7,3 C 1,6 km/h (1 Bft) 97,22 %
28.03.2017 09:36 7,4 C 65 % 1023,6 hPa 0,0 l/m 2,9 km/h (1 Bft) SW 217 2 min 0,000 mm 1,0 UV-I 435 W/m 1,3 C 7,4 C 6,4 km/h (2 Bft) 97,37 %
28.03.2017 09:38 7,6 C 64 % 1023,5 hPa 0,0 l/m 3,9 km/h (1 Bft) SW 217 2 min 0,000 mm 1,0 UV-I 442 W/m 1,2 C 7,6 C 6,4 km/h (2 Bft) 96,77 %
28.03.2017 09:40 7,6 C 65 % 1023,6 hPa 0,0 l/m 2,1 km/h (1 Bft) SW 217 2 min 0,000 mm 1,0 UV-I 447 W/m 1,5 C 7,6 C 4,8 km/h (1 Bft) 97,37 %
28.03.2017 09:42 7,7 C 65 % 1023,6 hPa 0,0 l/m 1,1 km/h (1 Bft) SW 217 2 min 0,000 mm 1,1 UV-I 452 W/m 1,5 C 7,7 C 3,2 km/h (1 Bft) 96,23 %
28.03.2017 09:44 7,8 C 66 % 1023,6 hPa 0,0 l/m 3,4 km/h (1 Bft) SW 217 2 min 0,000 mm 1,1 UV-I 458 W/m 1,9 C 7,8 C 4,8 km/h (1 Bft) 95,74 %
28.03.2017 09:46 7,9 C 65 % 1023,6 hPa 0,0 l/m 2,3 km/h (1 Bft) SW 217 2 min 0,000 mm 1,1 UV-I 463 W/m 1,7 C 7,9 C 4,8 km/h (1 Bft) 97,56 %
28.03.2017 09:48 8,1 C 63 % 1023,6 hPa 0,0 l/m 2,2 km/h (1 Bft) SW 217 2 min 0,000 mm 1,1 UV-I 467 W/m 1,5 C 8,1 C 3,2 km/h (1 Bft) 94,00 %
28.03.2017 09:50 8,2 C 62 % 1023,7 hPa 0,0 l/m 3,4 km/h (1 Bft) SW 217 2 min 0,000 mm 1,2 UV-I 472 W/m 1,4 C 8,2 C 6,4 km/h (2 Bft) 98,25 %
28.03.2017 09:52 8,4 C 62 % 1023,7 hPa 0,0 l/m 3,0 km/h (1 Bft) SW 217 2 min 0,000 mm 1,2 UV-I 478 W/m 1,6 C 8,4 C 4,8 km/h (1 Bft) 97,87 %
28.03.2017 09:54 8,3 C 61 % 1023,7 hPa 0,0 l/m 3,1 km/h (1 Bft) SW 217 2 min 0,000 mm 1,2 UV-I 482 W/m 1,2 C 8,3 C 4,8 km/h (1 Bft) 97,37 %
28.03.2017 09:56 8,3 C 61 % 1023,8 hPa 0,0 l/m 1,7 km/h (1 Bft) SO 131 2 min 0,000 mm 1,2 UV-I 486 W/m 1,2 C 8,3 C 4,8 km/h (1 Bft) 97,87 %
28.03.2017 09:58 8,5 C 63 % 1023,7 hPa 0,0 l/m 3,0 km/h (1 Bft) S 171 2 min 0,000 mm 1,3 UV-I 493 W/m 1,9 C 8,5 C 6,4 km/h (2 Bft) 98,11 %
28.03.2017 10:00 8,6 C 61 % 1023,8 hPa 0,0 l/m 1,7 km/h (1 Bft) S 171 2 min 0,178 mm 1,3 UV-I 497 W/m 1,5 C 8,6 C 3,2 km/h (1 Bft) 95,45 %
28.03.2017 10:02 8,6 C 62 % 1023,7 hPa 0,0 l/m 3,3 km/h (1 Bft) SW 235 2 min 0,000 mm 1,3 UV-I 500 W/m 1,7 C 8,6 C 6,4 km/h (2 Bft) 97,56 %
28.03.2017 10:04 8,8 C 61 % 1023,7 hPa 0,0 l/m 2,3 km/h (1 Bft) SW 235 2 min 0,000 mm 1,3 UV-I 507 W/m 1,7 C 8,8 C 4,8 km/h (1 Bft) 96,00 %
28.03.2017 10:06 9,1 C 61 % 1023,6 hPa 0,0 l/m 2,9 km/h (1 Bft) SW 236 2 min 0,000 mm 1,4 UV-I 510 W/m 2,0 C 9,1 C 4,8 km/h (1 Bft) 92,11 %
28.03.2017 10:08 9,2 C 60 % 1023,7 hPa 0,0 l/m 3,5 km/h (1 Bft) W-SW 237 2 min 0,000 mm 1,4 UV-I 514 W/m 1,8 C 9,2 C 4,8 km/h (1 Bft) 96,77 %
28.03.2017 10:10 9,2 C 60 % 1023,7 hPa 0,0 l/m 3,9 km/h (1 Bft) SW 232 2 min 0,000 mm 1,4 UV-I 520 W/m 1,8 C 9,2 C 6,4 km/h (2 Bft) 95,12 %
28.03.2017 10:12 9,2 C 58 % 1023,7 hPa 0,0 l/m 3,4 km/h (1 Bft) SW 235 2 min 0,000 mm 1,4 UV-I 524 W/m 1,4 C 9,2 C 4,8 km/h (1 Bft) 97,62 %
28.03.2017 10:14 9,3 C 61 % 1023,7 hPa 0,0 l/m 3,0 km/h (1 Bft) W-SW 251 2 min 0,000 mm 1,5 UV-I 529 W/m 2,2 C 9,3 C 6,4 km/h (2 Bft) 93,88 %
28.03.2017 10:16 9,4 C 60 % 1023,7 hPa 0,0 l/m 5,8 km/h (2 Bft) SW 224 2 min 0,000 mm 1,5 UV-I 533 W/m 2,0 C 9,4 C 9,7 km/h (2 Bft) 92,86 %
28.03.2017 10:18 9,4 C 60 % 1023,7 hPa 0,0 l/m 3,6 km/h (1 Bft) W-SW 244 2 min 0,000 mm 1,5 UV-I 539 W/m 2,0 C 9,4 C 6,4 km/h (2 Bft) 92,31 %
28.03.2017 10:20 9,4 C 58 % 1023,8 hPa 0,0 l/m 2,9 km/h (1 Bft) S 188 2 min 0,000 mm 1,5 UV-I 543 W/m 1,6 C 9,4 C 4,8 km/h (1 Bft) 96,00 %
28.03.2017 10:22 9,6 C 59 % 1023,8 hPa 0,0 l/m 5,5 km/h (1 Bft) W-SW 249 2 min 0,000 mm 1,6 UV-I 548 W/m 2,0 C 9,6 C 11,3 km/h (2 Bft) 94,74 %
28.03.2017 10:24 9,6 C 57 % 1023,8 hPa 0,0 l/m 6,6 km/h (2 Bft) W-SW 246 2 min 0,000 mm 1,6 UV-I 552 W/m 1,5 C 9,5 C 11,3 km/h (2 Bft) 94,64 %
28.03.2017 10:26 9,7 C 57 % 1023,8 hPa 0,0 l/m 5,9 km/h (2 Bft) W-SW 258 2 min 0,000 mm 1,6 UV-I 557 W/m 1,6 C 9,7 C 9,7 km/h (2 Bft) 96,00 %
28.03.2017 10:28 9,6 C 58 % 1023,8 hPa 0,0 l/m 5,4 km/h (1 Bft) W-SW 238 2 min 0,000 mm 1,7 UV-I 561 W/m 1,8 C 9,6 C 8,0 km/h (2 Bft) 96,15 %
28.03.2017 10:30 9,7 C 58 % 1023,8 hPa 0,0 l/m 3,7 km/h (1 Bft) W-SW 243 2 min 0,000 mm 1,7 UV-I 564 W/m 1,8 C 9,7 C 6,4 km/h (2 Bft) 95,38 %
28.03.2017 10:32 9,8 C 58 % 1023,8 hPa 0,0 l/m 2,4 km/h (1 Bft) W-SW 243 2 min 0,000 mm 1,7 UV-I 569 W/m 1,9 C 9,8 C 3,2 km/h (1 Bft) 93,62 %
28.03.2017 10:34 9,9 C 59 % 1023,8 hPa 0,0 l/m 6,8 km/h (2 Bft) S-SW 206 2 min 0,000 mm 1,7 UV-I 573 W/m 2,3 C 9,6 C 9,7 km/h (2 Bft) 92,68 %
28.03.2017 10:36 10,1 C 59 % 1023,8 hPa 0,0 l/m 4,5 km/h (1 Bft) W 274 2 min 0,000 mm 1,8 UV-I 578 W/m 2,5 C 10,1 C 9,7 km/h (2 Bft) 94,34 %
28.03.2017 10:38 10,2 C 59 % 1023,9 hPa 0,0 l/m 3,8 km/h (1 Bft) W-SW 242 2 min 0,000 mm 1,8 UV-I 582 W/m 2,6 C 10,2 C 6,4 km/h (2 Bft) 95,12 %
28.03.2017 10:40 10,2 C 59 % 1023,8 hPa 0,0 l/m 2,5 km/h (1 Bft) W-SW 242 2 min 0,000 mm 1,8 UV-I 585 W/m 2,6 C 10,2 C 4,8 km/h (1 Bft) 96,00 %
28.03.2017 10:42 10,3 C 60 % 1023,8 hPa 0,0 l/m 3,3 km/h (1 Bft) W-SW 250 2 min 0,000 mm 1,9 UV-I 590 W/m 2,9 C 10,3 C 4,8 km/h (1 Bft) 97,56 %
28.03.2017 10:44 10,3 C 60 % 1023,9 hPa 0,0 l/m 5,2 km/h (1 Bft) SW 217 2 min 0,000 mm 1,9 UV-I 593 W/m 2,9 C 10,3 C 8,0 km/h (2 Bft) 96,61 %
28.03.2017 10:46 10,4 C 58 % 1023,9 hPa 0,0 l/m 4,0 km/h (1 Bft) S-SO 157 2 min 0,000 mm 1,9 UV-I 597 W/m 2,5 C 10,4 C 6,4 km/h (2 Bft) 100,00 %
28.03.2017 10:48 10,5 C 59 % 1023,8 hPa 0,0 l/m 4,9 km/h (1 Bft) S-SW 208 2 min 0,000 mm 1,9 UV-I 602 W/m 2,8 C 10,5 C 8,0 km/h (2 Bft) 100,00 %
28.03.2017 10:50 10,6 C 58 % 1023,9 hPa 0,0 l/m 2,3 km/h (1 Bft) S 170 2 min 0,000 mm 2,0 UV-I 607 W/m 2,7 C 10,6 C 6,4 km/h (2 Bft) 100,00 %
28.03.2017 10:52 10,5 C 57 % 1023,9 hPa 0,0 l/m 2,8 km/h (1 Bft) S-SO 154 2 min 0,000 mm 2,0 UV-I 611 W/m 2,3 C 10,5 C 6,4 km/h (2 Bft) 98,00 %
28.03.2017 10:54 10,5 C 58 % 1023,9 hPa 0,0 l/m 2,2 km/h (1 Bft) SW 220 2 min 0,000 mm 2,0 UV-I 615 W/m 2,6 C 10,5 C 3,2 km/h (1 Bft) 100,00 %
28.03.2017 10:56 10,7 C 58 % 1023,9 hPa 0,0 l/m 5,2 km/h (1 Bft) SW 225 2 min 0,000 mm 2,0 UV-I 619 W/m 2,8 C 10,7 C 8,0 km/h (2 Bft) 100,00 %
28.03.2017 10:58 10,8 C 57 % 1023,8 hPa 0,0 l/m 1,0 km/h (0 Bft) SW 225 2 min 0,000 mm 2,1 UV-I 623 W/m 2,6 C 10,8 C 3,2 km/h (1 Bft) 100,00 %
28.03.2017 11:00 11,0 C 58 % 1023,8 hPa 0,0 l/m 2,8 km/h (1 Bft) S 169 2 min 0,000 mm 2,1 UV-I 626 W/m 3,1 C 11,0 C 6,4 km/h (2 Bft) 98,00 %
28.03.2017 11:02 11,2 C 58 % 1023,9 hPa 0,0 l/m 3,6 km/h (1 Bft) SW 218 2 min 0,279 mm 2,1 UV-I 629 W/m 3,2 C 11,2 C 6,4 km/h (2 Bft) 97,87 %
28.03.2017 11:04 11,3 C 56 % 1023,8 hPa 0,0 l/m 2,7 km/h (1 Bft) S 173 2 min 0,000 mm 2,2 UV-I 631 W/m 2,8 C 11,3 C 4,8 km/h (1 Bft) 100,00 %
28.03.2017 11:06 11,4 C 55 % 1023,9 hPa 0,0 l/m 2,9 km/h (1 Bft) S 182 2 min 0,000 mm 2,2 UV-I 636 W/m 2,7 C 11,4 C 6,4 km/h (2 Bft) 97,37 %
28.03.2017 11:08 11,3 C 55 % 1023,9 hPa 0,0 l/m 3,0 km/h (1 Bft) W-SW 255 2 min 0,000 mm 2,2 UV-I 640 W/m 2,6 C 11,3 C 6,4 km/h (2 Bft) 98,00 %
28.03.2017 11:10 11,5 C 56 % 1023,9 hPa 0,0 l/m 4,6 km/h (1 Bft) W-SW 242 2 min 0,000 mm 2,2 UV-I 642 W/m 3,0 C 11,5 C 8,0 km/h (2 Bft) 100,00 %
28.03.2017 11:12 11,6 C 53 % 1023,9 hPa 0,0 l/m 4,3 km/h (1 Bft) W-SW 242 2 min 0,000 mm 2,2 UV-I 645 W/m 2,4 C 11,6 C 8,0 km/h (2 Bft) 98,00 %
28.03.2017 11:14 11,5 C 53 % 1023,8 hPa 0,0 l/m 2,7 km/h (1 Bft) SW 217 2 min 0,000 mm 2,3 UV-I 648 W/m 2,3 C 11,5 C 8,0 km/h (2 Bft) 100,00 %
28.03.2017 11:16 11,7 C 53 % 1023,9 hPa 0,0 l/m 4,1 km/h (1 Bft) W-SW 246 2 min 0,000 mm 2,3 UV-I 650 W/m 2,4 C 11,7 C 6,4 km/h (2 Bft) 100,00 %
28.03.2017 11:18 11,8 C 53 % 1023,8 hPa 0,0 l/m 2,2 km/h (1 Bft) W-SW 245 2 min 0,000 mm 2,3 UV-I 653 W/m 2,5 C 11,8 C 4,8 km/h (1 Bft) 98,21 %
28.03.2017 11:20 12,1 C 52 % 1023,8 hPa 0,0 l/m 2,2 km/h (1 Bft) W-SW 255 2 min 0,000 mm 2,4 UV-I 656 W/m 2,5 C 12,1 C 6,4 km/h (2 Bft) 100,00 %
28.03.2017 11:22 12,1 C 52 % 1023,8 hPa 0,0 l/m 0,4 km/h (0 Bft) W-SW 257 2 min 0,000 mm 2,4 UV-I 660 W/m 2,5 C 12,1 C 3,2 km/h (1 Bft) 100,00 %
28.03.2017 11:24 12,1 C 52 % 1023,8 hPa 0,0 l/m 0,1 km/h (0 Bft) W-SW 257 2 min 0,000 mm 2,4 UV-I 664 W/m 2,5 C 12,1 C 1,6 km/h (1 Bft) 100,00 %
28.03.2017 11:26 12,3 C 51 % 1023,8 hPa 0,0 l/m 4,2 km/h (1 Bft) W 264 2 min 0,000 mm 2,5 UV-I 668 W/m 2,5 C 12,3 C 6,4 km/h (2 Bft) 98,18 %
28.03.2017 11:28 12,3 C 49 % 1023,8 hPa 0,0 l/m 4,2 km/h (1 Bft) W 269 2 min 0,000 mm 2,5 UV-I 670 W/m 1,9 C 12,3 C 9,7 km/h (2 Bft) 100,00 %
28.03.2017 11:30 12,3 C 51 % 1023,9 hPa 0,0 l/m 4,3 km/h (1 Bft) W 277 2 min 0,000 mm 2,5 UV-I 674 W/m 2,5 C 12,3 C 11,3 km/h (2 Bft) 100,00 %
28.03.2017 11:32 12,4 C 49 % 1023,9 hPa 0,0 l/m 2,8 km/h (1 Bft) W 281 2 min 0,000 mm 2,6 UV-I 675 W/m 2,0 C 12,4 C 4,8 km/h (1 Bft) 98,44 %
28.03.2017 11:34 12,3 C 48 % 1023,9 hPa 0,0 l/m 2,2 km/h (1 Bft) W 270 2 min 0,000 mm 2,6 UV-I 677 W/m 1,6 C 12,3 C 4,8 km/h (1 Bft) 100,00 %
28.03.2017 11:36 12,4 C 51 % 1023,9 hPa 0,0 l/m 0,9 km/h (0 Bft) W 278 2 min 0,000 mm 2,6 UV-I 676 W/m 2,6 C 12,4 C 3,2 km/h (1 Bft) 100,00 %
28.03.2017 11:38 12,4 C 50 % 1023,8 hPa 0,0 l/m 0,5 km/h (0 Bft) N-NW 336 2 min 0,000 mm 2,7 UV-I 682 W/m 2,3 C 12,4 C 3,2 km/h (1 Bft) 96,43 %
28.03.2017 11:40 12,6 C 55 % 1023,9 hPa 0,0 l/m 2,6 km/h (1 Bft) N 9 2 min 0,000 mm 2,7 UV-I 685 W/m 3,8 C 12,6 C 4,8 km/h (1 Bft) 100,00 %
28.03.2017 11:42 12,8 C 53 % 1023,9 hPa 0,0 l/m 2,2 km/h (1 Bft) N-NW 344 2 min 0,000 mm 2,7 UV-I 688 W/m 3,5 C 12,8 C 4,8 km/h (1 Bft) 100,00 %
28.03.2017 11:44 12,8 C 56 % 1023,9 hPa 0,0 l/m 2,2 km/h (1 Bft) N 5 2 min 0,000 mm 2,8 UV-I 688 W/m 4,2 C 12,8 C 4,8 km/h (1 Bft) 100,00 %
28.03.2017 11:46 12,9 C 56 % 1023,9 hPa 0,0 l/m 1,6 km/h (1 Bft) N-NW 348 2 min 0,000 mm 2,8 UV-I 690 W/m 4,3 C 12,9 C 4,8 km/h (1 Bft) 100,00 %
28.03.2017 11:48 12,9 C 53 % 1023,9 hPa 0,0 l/m 2,2 km/h (1 Bft) N-NO 27 2 min 0,000 mm 2,8 UV-I 690 W/m 3,6 C 12,9 C 6,4 km/h (2 Bft) 97,56 %
28.03.2017 11:50 12,8 C 53 % 1023,9 hPa 0,0 l/m 2,8 km/h (1 Bft) NW 326 2 min 0,000 mm 2,8 UV-I 691 W/m 3,5 C 12,8 C 6,4 km/h (2 Bft) 100,00 %
28.03.2017 11:52 12,9 C 52 % 1023,9 hPa 0,0 l/m 1,1 km/h (1 Bft) N 349 2 min 0,000 mm 2,8 UV-I 695 W/m 3,3 C 12,9 C 3,2 km/h (1 Bft) 96,43 %
28.03.2017 11:54 13,0 C 56 % 1023,8 hPa 0,0 l/m 4,5 km/h (1 Bft) NO 35 2 min 0,000 mm 2,9 UV-I 695 W/m 4,4 C 13,0 C 8,0 km/h (2 Bft) 98,00 %
28.03.2017 11:56 12,8 C 51 % 1023,8 hPa 0,0 l/m 1,8 km/h (1 Bft) N-NO 13 2 min 0,000 mm 2,9 UV-I 701 W/m 2,9 C 12,8 C 4,8 km/h (1 Bft) 97,73 %
28.03.2017 11:58 12,9 C 49 % 1023,8 hPa 0,0 l/m 1,2 km/h (1 Bft) N-NO 17 2 min 0,000 mm 2,9 UV-I 702 W/m 2,5 C 12,9 C 4,8 km/h (1 Bft) 97,87 %
28.03.2017 12:00 12,9 C 54 % 1023,8 hPa 0,0 l/m 0,5 km/h (0 Bft) N-NO 15 2 min 0,331 mm 2,9 UV-I 705 W/m 3,8 C 12,9 C 3,2 km/h (1 Bft) 94,00 %
28.03.2017 12:02 13,2 C 56 % 1023,8 hPa 0,0 l/m 1,0 km/h (0 Bft) N-NO 31 2 min 0,000 mm 3,0 UV-I 706 W/m 4,6 C 13,2 C 3,2 km/h (1 Bft) 97,87 %
28.03.2017 12:04 13,3 C 54 % 1023,8 hPa 0,0 l/m 2,4 km/h (1 Bft) NO 35 2 min 0,000 mm 3,0 UV-I 710 W/m 4,2 C 13,3 C 6,4 km/h (2 Bft) 96,00 %
28.03.2017 12:06 13,3 C 52 % 1023,8 hPa 0,0 l/m 4,0 km/h (1 Bft) NO 39 2 min 0,000 mm 3,0 UV-I 710 W/m 3,7 C 13,3 C 6,4 km/h (2 Bft) 97,87 %
28.03.2017 12:08 13,3 C 50 % 1023,8 hPa 0,0 l/m 3,9 km/h (1 Bft) NO 53 2 min 0,000 mm 3,0 UV-I 712 W/m 3,1 C 13,3 C 6,4 km/h (2 Bft) 97,37 %
28.03.2017 12:10 13,4 C 50 % 1023,8 hPa 0,0 l/m 4,4 km/h (1 Bft) NO 49 2 min 0,000 mm 3,0 UV-I 714 W/m 3,2 C 13,4 C 6,4 km/h (2 Bft) 98,00 %
28.03.2017 12:12 13,4 C 47 % 1023,8 hPa 0,0 l/m 3,1 km/h (1 Bft) O-NO 76 2 min 0,000 mm 3,0 UV-I 715 W/m 2,3 C 13,4 C 6,4 km/h (2 Bft) 97,44 %
28.03.2017 12:14 13,3 C 48 % 1023,8 hPa 0,0 l/m 3,4 km/h (1 Bft) S-SW 208 2 min 0,000 mm 3,0 UV-I 716 W/m 2,5 C 13,3 C 11,3 km/h (2 Bft) 98,00 %
28.03.2017 12:16 13,5 C 52 % 1023,7 hPa 0,0 l/m 2,7 km/h (1 Bft) W-NW 297 2 min 0,000 mm 3,1 UV-I 719 W/m 3,8 C 13,5 C 4,8 km/h (1 Bft) 96,00 %
28.03.2017 12:18 13,7 C 48 % 1023,7 hPa 0,0 l/m 0,9 km/h (0 Bft) W-NW 298 2 min 0,000 mm 3,1 UV-I 720 W/m 2,9 C 13,7 C 3,2 km/h (1 Bft) 96,23 %
28.03.2017 12:20 13,8 C 50 % 1023,6 hPa 0,0 l/m 1,0 km/h (0 Bft) NW 319 2 min 0,000 mm 3,1 UV-I 721 W/m 3,6 C 13,8 C 3,2 km/h (1 Bft) 97,37 %
28.03.2017 12:22 13,9 C 47 % 1023,7 hPa 0,0 l/m 4,5 km/h (1 Bft) O 93 2 min 0,000 mm 3,1 UV-I 721 W/m 2,8 C 13,9 C 9,7 km/h (2 Bft) 97,87 %
28.03.2017 12:24 13,7 C 48 % 1023,7 hPa 0,0 l/m 3,8 km/h (1 Bft) O-SO 103 2 min 0,000 mm 3,1 UV-I 723 W/m 2,9 C 13,7 C 6,4 km/h (2 Bft) 100,00 %
28.03.2017 12:26 13,7 C 48 % 1023,7 hPa 0,0 l/m 4,2 km/h (1 Bft) O 101 2 min 0,000 mm 3,1 UV-I 723 W/m 2,9 C 13,7 C 6,4 km/h (2 Bft) 100,00 %
28.03.2017 12:28 13,7 C 49 % 1023,7 hPa 0,0 l/m 3,1 km/h (1 Bft) O-SO 116 2 min 0,000 mm 3,1 UV-I 724 W/m 3,2 C 13,7 C 4,8 km/h (1 Bft) 100,00 %
28.03.2017 12:30 13,8 C 48 % 1023,7 hPa 0,0 l/m 2,4 km/h (1 Bft) O-NO 66 2 min 0,000 mm 3,1 UV-I 726 W/m 3,0 C 13,8 C 4,8 km/h (1 Bft) 100,00 %
28.03.2017 12:32 14,2 C 51 % 1023,6 hPa 0,0 l/m 1,5 km/h (1 Bft) O-NO 65 2 min 0,000 mm 3,1 UV-I 727 W/m 4,2 C 14,2 C 3,2 km/h (1 Bft) 100,00 %
28.03.2017 12:34 14,3 C 46 % 1023,6 hPa 0,0 l/m 2,0 km/h (1 Bft) O-NO 65 2 min 0,000 mm 3,2 UV-I 729 W/m 2,8 C 14,3 C 4,8 km/h (1 Bft) 97,87 %
28.03.2017 12:36 14,1 C 46 % 1023,6 hPa 0,0 l/m 1,8 km/h (1 Bft) O 80 2 min 0,000 mm 3,2 UV-I 730 W/m 2,7 C 14,1 C 4,8 km/h (1 Bft) 100,00 %
28.03.2017 12:38 14,2 C 48 % 1023,5 hPa 0,0 l/m 4,5 km/h (1 Bft) O 98 2 min 0,000 mm 3,2 UV-I 731 W/m 3,4 C 14,2 C 8,0 km/h (2 Bft) 100,00 %
28.03.2017 12:40 14,3 C 48 % 1023,4 hPa 0,0 l/m 5,3 km/h (1 Bft) O 96 2 min 0,000 mm 3,2 UV-I 733 W/m 3,4 C 14,3 C 6,4 km/h (2 Bft) 100,00 %
28.03.2017 12:42 14,3 C 48 % 1023,4 hPa 0,0 l/m 1,7 km/h (1 Bft) O 87 2 min 0,000 mm 3,2 UV-I 733 W/m 3,4 C 14,3 C 4,8 km/h (1 Bft) 98,00 %
28.03.2017 12:44 14,5 C 46 % 1023,4 hPa 0,0 l/m 3,2 km/h (1 Bft) NW 314 2 min 0,000 mm 3,2 UV-I 733 W/m 3,0 C 14,5 C 6,4 km/h (2 Bft) 100,00 %
28.03.2017 12:46 14,5 C 50 % 1023,4 hPa 0,0 l/m 0,2 km/h (0 Bft) NW 317 2 min 0,000 mm 3,2 UV-I 736 W/m 4,2 C 14,5 C 1,6 km/h (1 Bft) 100,00 %
28.03.2017 12:48 14,7 C 54 % 1023,5 hPa 0,0 l/m 1,6 km/h (1 Bft) W-NW 303 2 min 0,000 mm 3,2 UV-I 735 W/m 5,5 C 14,7 C 4,8 km/h (1 Bft) 100,00 %
28.03.2017 12:50 14,8 C 49 % 1023,4 hPa 0,0 l/m 2,5 km/h (1 Bft) NW 318 2 min 0,000 mm 3,2 UV-I 737 W/m 4,2 C 14,8 C 4,8 km/h (1 Bft) 100,00 %
28.03.2017 12:52 14,8 C 45 % 1023,4 hPa 0,0 l/m 3,3 km/h (1 Bft) W-NW 289 2 min 0,000 mm 3,2 UV-I 739 W/m 3,0 C 14,8 C 6,4 km/h (2 Bft) 98,11 %
28.03.2017 12:54 14,6 C 45 % 1023,3 hPa 0,0 l/m 3,9 km/h (1 Bft) W 262 2 min 0,000 mm 3,2 UV-I 738 W/m 2,8 C 14,6 C 6,4 km/h (2 Bft) 100,00 %
28.03.2017 12:56 14,6 C 44 % 1023,3 hPa 0,0 l/m 4,5 km/h (1 Bft) W 268 2 min 0,000 mm 3,2 UV-I 738 W/m 2,5 C 14,6 C 9,7 km/h (2 Bft) 97,44 %
28.03.2017 12:58 14,6 C 43 % 1023,3 hPa 0,0 l/m 2,9 km/h (1 Bft) NW 321 2 min 0,000 mm 3,3 UV-I 739 W/m 2,2 C 14,6 C 4,8 km/h (1 Bft) 100,00 %
28.03.2017 13:00 14,6 C 45 % 1023,3 hPa 0,0 l/m 2,1 km/h (1 Bft) NW 309 2 min 0,381 mm 3,3 UV-I 740 W/m 2,8 C 14,6 C 4,8 km/h (1 Bft) 100,00 %
28.03.2017 13:02 14,7 C 48 % 1023,3 hPa 0,0 l/m 1,1 km/h (1 Bft) NW 309 2 min 0,000 mm 3,3 UV-I 740 W/m 3,8 C 14,7 C 3,2 km/h (1 Bft) 97,87 %
28.03.2017 13:04 14,8 C 45 % 1023,3 hPa 0,0 l/m 1,5 km/h (1 Bft) NW 322 2 min 0,000 mm 3,3 UV-I 741 W/m 3,0 C 14,8 C 3,2 km/h (1 Bft) 100,00 %
28.03.2017 13:06 14,9 C 45 % 1023,2 hPa 0,0 l/m 1,8 km/h (1 Bft) N-NW 327 2 min 0,000 mm 3,3 UV-I 741 W/m 3,1 C 14,9 C 4,8 km/h (1 Bft) 97,37 %
28.03.2017 13:08 14,9 C 50 % 1023,2 hPa 0,0 l/m 1,6 km/h (1 Bft) NW 324 2 min 0,000 mm 3,3 UV-I 740 W/m 4,6 C 14,9 C 4,8 km/h (1 Bft) 100,00 %
28.03.2017 13:10 15,0 C 46 % 1023,2 hPa 0,0 l/m 1,3 km/h (1 Bft) N-NW 333 2 min 0,000 mm 3,3 UV-I 738 W/m 3,5 C 15,0 C 3,2 km/h (1 Bft) 100,00 %
28.03.2017 13:12 15,2 C 52 % 1023,2 hPa 0,0 l/m 3,2 km/h (1 Bft) N-NO 25 2 min 0,000 mm 3,3 UV-I 739 W/m 5,4 C 15,2 C 8,0 km/h (2 Bft) 98,11 %
28.03.2017 13:14 15,4 C 47 % 1023,1 hPa 0,0 l/m 5,1 km/h (1 Bft) N-NO 23 2 min 0,000 mm 3,3 UV-I 739 W/m 4,1 C 15,4 C 8,0 km/h (2 Bft) 100,00 %
28.03.2017 13:16 15,5 C 44 % 1023,1 hPa 0,0 l/m 2,2 km/h (1 Bft) W-NW 302 2 min 0,000 mm 3,3 UV-I 739 W/m 3,3 C 15,5 C 4,8 km/h (1 Bft) 100,00 %
28.03.2017 13:18 15,5 C 47 % 1023,1 hPa 0,0 l/m 2,1 km/h (1 Bft) N-NO 21 2 min 0,000 mm 3,3 UV-I 739 W/m 4,2 C 15,5 C 4,8 km/h (1 Bft) 100,00 %
28.03.2017 13:20 15,4 C 43 % 1023,1 hPa 0,0 l/m 2,6 km/h (1 Bft) O-SO 116 2 min 0,000 mm 3,3 UV-I 738 W/m 2,9 C 15,4 C 4,8 km/h (1 Bft) 98,00 %
28.03.2017 13:22 15,2 C 43 % 1023,1 hPa 0,0 l/m 1,6 km/h (1 Bft) O-SO 123 2 min 0,000 mm 3,3 UV-I 739 W/m 2,7 C 15,2 C 4,8 km/h (1 Bft) 100,00 %
28.03.2017 13:24 15,4 C 46 % 1023,0 hPa 0,0 l/m 1,0 km/h (0 Bft) SO 125 2 min 0,000 mm 3,2 UV-I 738 W/m 3,8 C 15,4 C 3,2 km/h (1 Bft) 100,00 %
28.03.2017 13:26 15,7 C 44 % 1023,0 hPa 0,0 l/m 2,8 km/h (1 Bft) W-SW 249 2 min 0,000 mm 3,2 UV-I 738 W/m 3,5 C 15,7 C 11,3 km/h (2 Bft) 100,00 %
28.03.2017 13:28 15,7 C 43 % 1023,0 hPa 0,0 l/m 4,5 km/h (1 Bft) W 277 2 min 0,000 mm 3,2 UV-I 737 W/m 3,2 C 15,7 C 12,9 km/h (3 Bft) 100,00 %
28.03.2017 13:30 15,8 C 45 % 1022,9 hPa 0,0 l/m 0,7 km/h (0 Bft) W 261 2 min 0,000 mm 3,2 UV-I 737 W/m 3,9 C 15,8 C 1,6 km/h (1 Bft) 100,00 %
28.03.2017 13:32 15,9 C 43 % 1022,9 hPa 0,0 l/m 1,0 km/h (0 Bft) S-SO 165 2 min 0,000 mm 3,2 UV-I 733 W/m 3,3 C 15,9 C 3,2 km/h (1 Bft) 97,92 %
28.03.2017 13:34 16,2 C 46 % 1022,9 hPa 0,0 l/m 0,8 km/h (0 Bft) W 262 2 min 0,000 mm 3,2 UV-I 734 W/m 4,6 C 16,2 C 3,2 km/h (1 Bft) 97,87 %
28.03.2017 13:36 16,2 C 44 % 1022,8 hPa 0,0 l/m 3,0 km/h (1 Bft) W-NW 294 2 min 0,000 mm 3,2 UV-I 731 W/m 3,9 C 16,2 C 9,7 km/h (2 Bft) 100,00 %
28.03.2017 13:38 16,2 C 43 % 1022,8 hPa 0,0 l/m 4,8 km/h (1 Bft) W 264 2 min 0,000 mm 3,2 UV-I 732 W/m 3,6 C 16,2 C 9,7 km/h (2 Bft) 97,87 %
28.03.2017 13:40 16,1 C 42 % 1022,8 hPa 0,0 l/m 4,1 km/h (1 Bft) W 263 2 min 0,000 mm 3,2 UV-I 731 W/m 3,2 C 16,1 C 4,8 km/h (1 Bft) 100,00 %
28.03.2017 13:42 16,1 C 42 % 1022,8 hPa 0,0 l/m 4,4 km/h (1 Bft) SW 234 2 min 0,000 mm 3,2 UV-I 730 W/m 3,2 C 16,1 C 6,4 km/h (2 Bft) 98,46 %
28.03.2017 13:44 16,1 C 42 % 1022,8 hPa 0,0 l/m 3,3 km/h (1 Bft) W-SW 239 2 min 0,000 mm 3,2 UV-I 729 W/m 3,2 C 16,1 C 4,8 km/h (1 Bft) 97,73 %
28.03.2017 13:46 15,8 C 42 % 1022,8 hPa 0,0 l/m 2,5 km/h (1 Bft) O-NO 59 2 min 0,000 mm 3,2 UV-I 728 W/m 2,9 C 15,8 C 6,4 km/h (2 Bft) 98,00 %
28.03.2017 13:48 15,8 C 45 % 1022,7 hPa 0,0 l/m 3,8 km/h (1 Bft) NO 51 2 min 0,000 mm 3,1 UV-I 727 W/m 3,9 C 15,8 C 6,4 km/h (2 Bft) 98,11 %
28.03.2017 13:50 16,1 C 47 % 1022,7 hPa 0,0 l/m 2,8 km/h (1 Bft) NO 44 2 min 0,000 mm 3,1 UV-I 724 W/m 4,8 C 16,1 C 6,4 km/h (2 Bft) 97,37 %
28.03.2017 13:52 16,1 C 43 % 1022,7 hPa 0,0 l/m 3,3 km/h (1 Bft) NW 306 2 min 0,000 mm 3,1 UV-I 721 W/m 3,5 C 16,1 C 8,0 km/h (2 Bft) 96,43 %
28.03.2017 13:54 16,2 C 47 % 1022,6 hPa 0,0 l/m 1,6 km/h (1 Bft) NW 307 2 min 0,000 mm 3,1 UV-I 721 W/m 4,9 C 16,2 C 3,2 km/h (1 Bft) 94,29 %
28.03.2017 13:56 16,3 C 42 % 1022,6 hPa 0,0 l/m 1,9 km/h (1 Bft) N-NW 330 2 min 0,000 mm 3,1 UV-I 719 W/m 3,4 C 16,3 C 4,8 km/h (1 Bft) 98,21 %
28.03.2017 13:58 16,2 C 48 % 1022,6 hPa 0,0 l/m 0,4 km/h (0 Bft) N-NW 330 2 min 0,000 mm 3,1 UV-I 720 W/m 5,2 C 16,2 C 1,6 km/h (1 Bft) 97,37 %
28.03.2017 14:00 16,1 C 42 % 1022,6 hPa 0,0 l/m 0,6 km/h (0 Bft) N-NW 330 2 min 0,000 mm 3,1 UV-I 718 W/m 3,2 C 16,1 C 1,6 km/h (1 Bft) 97,87 %
28.03.2017 14:02 16,2 C 45 % 1022,5 hPa 0,0 l/m 1,0 km/h (0 Bft) N-NW 330 2 min 0,406 mm 3,1 UV-I 715 W/m 4,3 C 16,2 C 3,2 km/h (1 Bft) 94,34 %
28.03.2017 14:04 16,3 C 43 % 1022,6 hPa 0,0 l/m 1,3 km/h (1 Bft) N-NW 338 2 min 0,000 mm 3,1 UV-I 716 W/m 3,7 C 16,3 C 3,2 km/h (1 Bft) 98,00 %
28.03.2017 14:06 16,3 C 43 % 1022,5 hPa 0,0 l/m 1,0 km/h (0 Bft) W-NW 287 2 min 0,000 mm 3,1 UV-I 714 W/m 3,7 C 16,3 C 3,2 km/h (1 Bft) 97,56 %
28.03.2017 14:08 16,6 C 44 % 1022,5 hPa 0,0 l/m 2,9 km/h (1 Bft) N-NW 332 2 min 0,000 mm 3,0 UV-I 713 W/m 4,3 C 16,6 C 8,0 km/h (2 Bft) 98,11 %
28.03.2017 14:10 16,6 C 41 % 1022,5 hPa 0,0 l/m 1,5 km/h (1 Bft) N-NW 333 2 min 0,000 mm 3,0 UV-I 710 W/m 3,3 C 16,6 C 3,2 km/h (1 Bft) 97,44 %
28.03.2017 14:12 16,8 C 47 % 1022,4 hPa 0,0 l/m 1,6 km/h (1 Bft) N-NO 18 2 min 0,000 mm 3,0 UV-I 706 W/m 5,4 C 16,8 C 8,0 km/h (2 Bft) 96,00 %
28.03.2017 14:14 16,8 C 45 % 1022,4 hPa 0,0 l/m 2,1 km/h (1 Bft) NW 310 2 min 0,000 mm 3,0 UV-I 704 W/m 4,8 C 16,8 C 4,8 km/h (1 Bft) 97,87 %
28.03.2017 14:16 16,8 C 45 % 1022,4 hPa 0,0 l/m 1,5 km/h (1 Bft) N-NW 343 2 min 0,000 mm 3,0 UV-I 702 W/m 4,8 C 16,8 C 3,2 km/h (1 Bft) 100,00 %
28.03.2017 14:18 16,8 C 44 % 1022,4 hPa 0,0 l/m 1,9 km/h (1 Bft) NW 317 2 min 0,000 mm 2,9 UV-I 697 W/m 4,5 C 16,8 C 4,8 km/h (1 Bft) 97,87 %
28.03.2017 14:20 16,8 C 42 % 1022,4 hPa 0,0 l/m 2,3 km/h (1 Bft) W-NW 294 2 min 0,000 mm 2,9 UV-I 694 W/m 3,8 C 16,8 C 4,8 km/h (1 Bft) 100,00 %
28.03.2017 14:22 16,7 C 41 % 1022,4 hPa 0,0 l/m 4,0 km/h (1 Bft) W 278 2 min 0,000 mm 2,9 UV-I 693 W/m 3,4 C 16,7 C 6,4 km/h (2 Bft) 100,00 %
28.03.2017 14:24 16,7 C 40 % 1022,3 hPa 0,0 l/m 1,6 km/h (1 Bft) W-NW 292 2 min 0,000 mm 2,9 UV-I 692 W/m 3,0 C 16,7 C 6,4 km/h (2 Bft) 100,00 %
28.03.2017 14:26 16,8 C 41 % 1022,3 hPa 0,0 l/m 0,5 km/h (0 Bft) W-NW 292 2 min 0,000 mm 2,9 UV-I 689 W/m 3,5 C 16,8 C 3,2 km/h (1 Bft) 100,00 %
28.03.2017 14:28 16,9 C 42 % 1022,3 hPa 0,0 l/m 0,7 km/h (0 Bft) NW 323 2 min 0,000 mm 2,8 UV-I 686 W/m 3,9 C 16,9 C 1,6 km/h (1 Bft) 100,00 %
28.03.2017 14:30 17,2 C 40 % 1022,2 hPa 0,0 l/m 4,8 km/h (1 Bft) NW 322 2 min 0,000 mm 2,8 UV-I 683 W/m 3,5 C 17,2 C 11,3 km/h (2 Bft) 100,00 %
28.03.2017 14:32 17,3 C 43 % 1022,2 hPa 0,0 l/m 2,4 km/h (1 Bft) W-NW 292 2 min 0,000 mm 2,8 UV-I 680 W/m 4,6 C 17,3 C 9,7 km/h (2 Bft) 100,00 %
28.03.2017 14:34 17,4 C 43 % 1022,2 hPa 0,0 l/m 3,8 km/h (1 Bft) NW 317 2 min 0,000 mm 2,8 UV-I 677 W/m 4,7 C 17,4 C 8,0 km/h (2 Bft) 97,73 %
28.03.2017 14:36 17,2 C 44 % 1022,1 hPa 0,0 l/m 4,6 km/h (1 Bft) W-NW 298 2 min 0,000 mm 2,7 UV-I 676 W/m 4,8 C 17,2 C 8,0 km/h (2 Bft) 100,00 %
28.03.2017 14:38 17,2 C 42 % 1022,1 hPa 0,0 l/m 4,7 km/h (1 Bft) W-NW 302 2 min 0,000 mm 2,7 UV-I 675 W/m 4,2 C 17,2 C 8,0 km/h (2 Bft) 97,56 %
28.03.2017 14:40 17,2 C 45 % 1022,1 hPa 0,0 l/m 2,4 km/h (1 Bft) NW 309 2 min 0,000 mm 2,7 UV-I 670 W/m 5,2 C 17,2 C 4,8 km/h (1 Bft) 100,00 %
28.03.2017 14:42 17,2 C 41 % 1022,1 hPa 0,0 l/m 2,9 km/h (1 Bft) W 277 2 min 0,000 mm 2,7 UV-I 665 W/m 3,8 C 17,2 C 4,8 km/h (1 Bft) 100,00 %
28.03.2017 14:44 17,2 C 44 % 1022,1 hPa 0,0 l/m 1,4 km/h (1 Bft) N 5 2 min 0,000 mm 2,6 UV-I 662 W/m 4,8 C 17,2 C 4,8 km/h (1 Bft) 100,00 %
28.03.2017 14:46 17,3 C 41 % 1022,0 hPa 0,0 l/m 2,1 km/h (1 Bft) N-NW 340 2 min 0,000 mm 2,6 UV-I 660 W/m 3,9 C 17,3 C 4,8 km/h (1 Bft) 100,00 %
28.03.2017 14:48 17,4 C 41 % 1022,0 hPa 0,0 l/m 1,9 km/h (1 Bft) NW 315 2 min 0,000 mm 2,6 UV-I 657 W/m 4,0 C 17,4 C 3,2 km/h (1 Bft) 100,00 %
28.03.2017 14:50 17,6 C 42 % 1022,0 hPa 0,0 l/m 1,6 km/h (1 Bft) NW 308 2 min 0,000 mm 2,6 UV-I 658 W/m 4,5 C 17,6 C 4,8 km/h (1 Bft) 100,00 %
28.03.2017 14:52 17,8 C 43 % 1022,0 hPa 0,0 l/m 1,8 km/h (1 Bft) W-NW 301 2 min 0,000 mm 2,5 UV-I 653 W/m 5,1 C 17,8 C 6,4 km/h (2 Bft) 98,21 %
28.03.2017 14:54 17,9 C 44 % 1021,9 hPa 0,0 l/m 3,5 km/h (1 Bft) NW 315 2 min 0,000 mm 2,5 UV-I 648 W/m 5,5 C 17,9 C 9,7 km/h (2 Bft) 100,00 %
28.03.2017 14:56 17,8 C 41 % 1021,9 hPa 0,0 l/m 6,4 km/h (2 Bft) W 262 2 min 0,000 mm 2,5 UV-I 644 W/m 4,4 C 17,8 C 11,3 km/h (2 Bft) 100,00 %
28.03.2017 14:58 17,7 C 42 % 1021,9 hPa 0,0 l/m 3,5 km/h (1 Bft) NW 316 2 min 0,000 mm 2,4 UV-I 641 W/m 4,6 C 17,7 C 8,0 km/h (2 Bft) 100,00 %
28.03.2017 15:00 17,6 C 41 % 1021,9 hPa 0,0 l/m 2,4 km/h (1 Bft) NW 319 2 min 0,000 mm 2,4 UV-I 637 W/m 4,2 C 17,6 C 4,8 km/h (1 Bft) 100,00 %
28.03.2017 15:02 17,6 C 40 % 1021,9 hPa 0,0 l/m 3,2 km/h (1 Bft) W-NW 285 2 min 0,381 mm 2,4 UV-I 633 W/m 3,8 C 17,6 C 6,4 km/h (2 Bft) 97,87 %
28.03.2017 15:04 17,7 C 43 % 1021,8 hPa 0,0 l/m 2,8 km/h (1 Bft) NW 325 2 min 0,000 mm 2,4 UV-I 631 W/m 5,0 C 17,7 C 6,4 km/h (2 Bft) 100,00 %
28.03.2017 15:06 17,7 C 43 % 1021,8 hPa 0,0 l/m 5,1 km/h (1 Bft) NW 304 2 min 0,000 mm 2,3 UV-I 626 W/m 5,0 C 17,7 C 11,3 km/h (2 Bft) 100,00 %
28.03.2017 15:08 17,8 C 48 % 1021,9 hPa 0,0 l/m 4,8 km/h (1 Bft) W-NW 289 2 min 0,000 mm 2,3 UV-I 623 W/m 6,6 C 17,8 C 11,3 km/h (2 Bft) 100,00 %
28.03.2017 15:10 17,9 C 43 % 1021,8 hPa 0,0 l/m 4,3 km/h (1 Bft) N 355 2 min 0,000 mm 2,3 UV-I 621 W/m 5,1 C 17,9 C 11,3 km/h (2 Bft) 98,00 %
28.03.2017 15:12 17,9 C 45 % 1021,8 hPa 0,0 l/m 4,4 km/h (1 Bft) W-NW 298 2 min 0,000 mm 2,3 UV-I 619 W/m 5,8 C 17,9 C 9,7 km/h (2 Bft) 100,00 %
28.03.2017 15:14 17,9 C 42 % 1021,8 hPa 0,0 l/m 3,5 km/h (1 Bft) W-NW 297 2 min 0,000 mm 2,2 UV-I 614 W/m 4,8 C 17,9 C 8,0 km/h (2 Bft) 96,23 %
28.03.2017 15:16 17,9 C 41 % 1021,7 hPa 0,0 l/m 5,8 km/h (2 Bft) W-SW 248 2 min 0,000 mm 2,2 UV-I 609 W/m 4,5 C 17,9 C 11,3 km/h (2 Bft) 100,00 %
28.03.2017 15:18 18,0 C 41 % 1021,7 hPa 0,0 l/m 8,3 km/h (2 Bft) W-SW 255 2 min 0,000 mm 2,2 UV-I 604 W/m 4,6 C 17,1 C 14,5 km/h (3 Bft) 100,00 %
28.03.2017 15:20 18,2 C 40 % 1021,7 hPa 0,0 l/m 9,6 km/h (2 Bft) W 263 2 min 0,000 mm 2,2 UV-I 601 W/m 4,4 C 16,8 C 14,5 km/h (3 Bft) 100,00 %
28.03.2017 15:22 18,1 C 40 % 1021,7 hPa 0,0 l/m 5,1 km/h (1 Bft) W 277 2 min 0,000 mm 2,1 UV-I 598 W/m 4,3 C 18,1 C 9,7 km/h (2 Bft) 100,00 %
28.03.2017 15:24 18,1 C 41 % 1021,7 hPa 0,0 l/m 5,0 km/h (1 Bft) W 271 2 min 0,000 mm 2,1 UV-I 593 W/m 4,6 C 18,1 C 9,7 km/h (2 Bft) 98,00 %
28.03.2017 15:26 18,1 C 41 % 1021,7 hPa 0,0 l/m 3,0 km/h (1 Bft) W-SW 244 2 min 0,000 mm 2,1 UV-I 591 W/m 4,6 C 18,1 C 6,4 km/h (2 Bft) 100,00 %
28.03.2017 15:28 18,2 C 45 % 1021,7 hPa 0,0 l/m 1,1 km/h (1 Bft) W-SW 247 2 min 0,000 mm 2,1 UV-I 586 W/m 6,1 C 18,2 C 4,8 km/h (1 Bft) 97,87 %
28.03.2017 15:30 18,0 C 41 % 1021,6 hPa 0,0 l/m 5,0 km/h (1 Bft) W-NW 283 2 min 0,000 mm 2,0 UV-I 581 W/m 4,6 C 18,0 C 11,3 km/h (2 Bft) 100,00 %
28.03.2017 15:32 18,0 C 41 % 1021,6 hPa 0,0 l/m 5,1 km/h (1 Bft) W-NW 298 2 min 0,000 mm 2,0 UV-I 578 W/m 4,6 C 18,0 C 14,5 km/h (3 Bft) 97,37 %
28.03.2017 15:34 17,9 C 42 % 1021,5 hPa 0,0 l/m 1,8 km/h (1 Bft) N-NW 327 2 min 0,000 mm 2,0 UV-I 574 W/m 4,8 C 17,9 C 4,8 km/h (1 Bft) 100,00 %
28.03.2017 15:36 17,9 C 44 % 1021,5 hPa 0,0 l/m 2,4 km/h (1 Bft) W-NW 302 2 min 0,000 mm 2,0 UV-I 568 W/m 5,5 C 17,9 C 6,4 km/h (2 Bft) 100,00 %
28.03.2017 15:38 18,1 C 44 % 1021,5 hPa 0,0 l/m 3,6 km/h (1 Bft) N-NW 333 2 min 0,000 mm 1,9 UV-I 563 W/m 5,7 C 18,1 C 8,0 km/h (2 Bft) 97,73 %
28.03.2017 15:40 18,2 C 44 % 1021,5 hPa 0,0 l/m 4,4 km/h (1 Bft) W-NW 297 2 min 0,000 mm 1,9 UV-I 558 W/m 5,7 C 18,2 C 8,0 km/h (2 Bft) 92,68 %
28.03.2017 15:42 18,3 C 46 % 1021,5 hPa 0,0 l/m 1,9 km/h (1 Bft) W-NW 283 2 min 0,000 mm 1,9 UV-I 556 W/m 6,5 C 18,3 C 6,4 km/h (2 Bft) 98,11 %
28.03.2017 15:44 18,4 C 43 % 1021,5 hPa 0,0 l/m 1,2 km/h (1 Bft) NW 313 2 min 0,000 mm 1,8 UV-I 552 W/m 5,6 C 18,4 C 4,8 km/h (1 Bft) 97,87 %
28.03.2017 15:46 18,3 C 41 % 1021,4 hPa 0,0 l/m 3,6 km/h (1 Bft) W-NW 300 2 min 0,000 mm 1,8 UV-I 548 W/m 4,8 C 18,3 C 6,4 km/h (2 Bft) 95,45 %
28.03.2017 15:48 18,4 C 43 % 1021,5 hPa 0,0 l/m 1,7 km/h (1 Bft) W-NW 300 2 min 0,000 mm 1,8 UV-I 544 W/m 5,6 C 18,4 C 3,2 km/h (1 Bft) 95,12 %
28.03.2017 15:50 18,6 C 43 % 1021,4 hPa 0,0 l/m 0,6 km/h (0 Bft) W-NW 300 2 min 0,000 mm 1,8 UV-I 541 W/m 5,8 C 18,6 C 1,6 km/h (1 Bft) 96,00 %
28.03.2017 15:52 18,6 C 41 % 1021,4 hPa 0,0 l/m 3,7 km/h (1 Bft) N 11 2 min 0,000 mm 1,7 UV-I 538 W/m 5,1 C 18,6 C 8,0 km/h (2 Bft) 98,11 %
28.03.2017 15:54 18,6 C 43 % 1021,3 hPa 0,0 l/m 2,2 km/h (1 Bft) N-NW 333 2 min 0,000 mm 1,7 UV-I 531 W/m 5,8 C 18,6 C 4,8 km/h (1 Bft) 97,56 %
28.03.2017 15:56 18,7 C 46 % 1021,3 hPa 0,0 l/m 3,4 km/h (1 Bft) N-NW 341 2 min 0,000 mm 1,7 UV-I 525 W/m 6,8 C 18,7 C 6,4 km/h (2 Bft) 98,00 %
28.03.2017 15:58 18,6 C 43 % 1021,3 hPa 0,0 l/m 3,5 km/h (1 Bft) NW 304 2 min 0,000 mm 1,6 UV-I 518 W/m 5,8 C 18,6 C 8,0 km/h (2 Bft) 96,00 %
28.03.2017 16:00 18,4 C 41 % 1021,3 hPa 0,0 l/m 4,0 km/h (1 Bft) W-SW 250 2 min 0,000 mm 1,6 UV-I 514 W/m 4,9 C 18,4 C 8,0 km/h (2 Bft) 97,37 %
28.03.2017 16:02 18,4 C 42 % 1021,2 hPa 0,0 l/m 3,4 km/h (1 Bft) W-NW 294 2 min 0,356 mm 1,6 UV-I 509 W/m 5,3 C 18,4 C 6,4 km/h (2 Bft) 95,74 %
28.03.2017 16:04 18,4 C 42 % 1021,2 hPa 0,0 l/m 2,0 km/h (1 Bft) NW 308 2 min 0,000 mm 1,5 UV-I 504 W/m 5,3 C 18,4 C 4,8 km/h (1 Bft) 96,23 %
28.03.2017 16:06 18,4 C 40 % 1021,2 hPa 0,0 l/m 2,5 km/h (1 Bft) NW 319 2 min 0,000 mm 1,5 UV-I 500 W/m 4,6 C 18,4 C 4,8 km/h (1 Bft) 97,44 %
28.03.2017 16:08 18,4 C 41 % 1021,2 hPa 0,0 l/m 2,8 km/h (1 Bft) NW 308 2 min 0,000 mm 1,5 UV-I 494 W/m 4,9 C 18,4 C 11,3 km/h (2 Bft) 98,11 %
28.03.2017 16:10 18,4 C 41 % 1021,2 hPa 0,0 l/m 0,9 km/h (0 Bft) W-NW 296 2 min 0,000 mm 1,5 UV-I 490 W/m 4,9 C 18,4 C 4,8 km/h (1 Bft) 97,87 %
28.03.2017 16:12 18,4 C 44 % 1021,2 hPa 0,0 l/m 2,7 km/h (1 Bft) NW 319 2 min 0,000 mm 1,4 UV-I 484 W/m 5,9 C 18,4 C 4,8 km/h (1 Bft) 100,00 %
28.03.2017 16:14 18,4 C 40 % 1021,2 hPa 0,0 l/m 4,1 km/h (1 Bft) S-SW 211 2 min 0,000 mm 1,4 UV-I 479 W/m 4,6 C 18,4 C 12,9 km/h (3 Bft) 100,00 %
28.03.2017 16:16 18,5 C 42 % 1021,2 hPa 0,0 l/m 5,0 km/h (1 Bft) W-SW 254 2 min 0,000 mm 1,4 UV-I 476 W/m 5,3 C 18,5 C 9,7 km/h (2 Bft) 100,00 %
28.03.2017 16:18 18,6 C 41 % 1021,1 hPa 0,0 l/m 7,5 km/h (2 Bft) W-SW 252 2 min 0,000 mm 1,4 UV-I 470 W/m 5,1 C 18,1 C 11,3 km/h (2 Bft) 100,00 %
28.03.2017 16:20 18,5 C 43 % 1021,2 hPa 0,0 l/m 3,5 km/h (1 Bft) W-NW 283 2 min 0,000 mm 1,3 UV-I 464 W/m 5,7 C 18,5 C 11,3 km/h (2 Bft) 98,00 %
28.03.2017 16:23 18,5 C 40 % 1021,2 hPa 0,0 l/m 3,7 km/h (1 Bft) NW 311 3 min 0,000 mm 1,3 UV-I 457 W/m 4,6 C 18,5 C 8,0 km/h (2 Bft) 100,00 %
28.03.2017 16:24 18,5 C 40 % 1021,2 hPa 0,0 l/m 0,9 km/h (0 Bft) NW 311 1 min 0,000 mm 1,3 UV-I 451 W/m 4,6 C 18,5 C 3,2 km/h (1 Bft) 100,00 %
28.03.2017 16:26 18,7 C 42 % 1021,2 hPa 0,0 l/m 1,8 km/h (1 Bft) NW 304 2 min 0,000 mm 1,3 UV-I 448 W/m 5,5 C 18,7 C 4,8 km/h (1 Bft) 100,00 %
28.03.2017 16:28 18,7 C 38 % 1021,2 hPa 0,0 l/m 7,2 km/h (2 Bft) NW 314 2 min 0,000 mm 1,2 UV-I 443 W/m 4,1 C 18,3 C 14,5 km/h (3 Bft) 100,00 %
28.03.2017 16:30 18,6 C 38 % 1021,2 hPa 0,0 l/m 5,5 km/h (1 Bft) W-NW 288 2 min 0,000 mm 1,2 UV-I 439 W/m 4,0 C 18,6 C 14,5 km/h (3 Bft) 100,00 %
28.03.2017 16:32 18,4 C 38 % 1021,2 hPa 0,0 l/m 5,0 km/h (1 Bft) SW 230 2 min 0,000 mm 1,2 UV-I 432 W/m 3,8 C 18,4 C 11,3 km/h (2 Bft) 100,00 %
28.03.2017 16:34 18,5 C 40 % 1021,3 hPa 0,0 l/m 3,3 km/h (1 Bft) W-NW 300 2 min 0,000 mm 1,1 UV-I 425 W/m 4,6 C 18,5 C 6,4 km/h (2 Bft) 100,00 %
28.03.2017 16:36 18,5 C 39 % 1021,2 hPa 0,0 l/m 1,5 km/h (1 Bft) W 259 2 min 0,000 mm 1,1 UV-I 419 W/m 4,3 C 18,5 C 6,4 km/h (2 Bft) 100,00 %
28.03.2017 16:38 18,6 C 37 % 1021,2 hPa 0,0 l/m 5,9 km/h (2 Bft) W-NW 292 2 min 0,000 mm 1,1 UV-I 415 W/m 3,6 C 18,6 C 14,5 km/h (3 Bft) 100,00 %
28.03.2017 16:40 18,5 C 41 % 1021,2 hPa 0,0 l/m 1,9 km/h (1 Bft) W-NW 290 2 min 0,000 mm 1,1 UV-I 410 W/m 5,0 C 18,5 C 4,8 km/h (1 Bft) 97,87 %
28.03.2017 16:42 18,5 C 42 % 1021,2 hPa 0,0 l/m 3,0 km/h (1 Bft) NW 304 2 min 0,000 mm 1,0 UV-I 402 W/m 5,3 C 18,5 C 8,0 km/h (2 Bft) 100,00 %
28.03.2017 16:44 18,6 C 39 % 1021,2 hPa 0,0 l/m 2,5 km/h (1 Bft) NW 317 2 min 0,000 mm 1,0 UV-I 395 W/m 4,4 C 18,6 C 4,8 km/h (1 Bft) 100,00 %
28.03.2017 16:46 18,6 C 37 % 1021,2 hPa 0,0 l/m 3,7 km/h (1 Bft) W-NW 284 2 min 0,000 mm 1,0 UV-I 392 W/m 3,6 C 18,6 C 6,4 km/h (2 Bft) 97,44 %
28.03.2017 16:48 18,6 C 37 % 1021,2 hPa 0,0 l/m 3,4 km/h (1 Bft) W 271 2 min 0,000 mm 1,0 UV-I 388 W/m 3,6 C 18,6 C 9,7 km/h (2 Bft) 100,00 %
28.03.2017 16:50 18,6 C 37 % 1021,2 hPa 0,0 l/m 5,3 km/h (1 Bft) W 261 2 min 0,000 mm 0,9 UV-I 383 W/m 3,6 C 18,6 C 11,3 km/h (2 Bft) 100,00 %
28.03.2017 16:52 18,6 C 38 % 1021,2 hPa 0,0 l/m 4,8 km/h (1 Bft) NW 324 2 min 0,000 mm 0,9 UV-I 378 W/m 4,0 C 18,6 C 11,3 km/h (2 Bft) 100,00 %
28.03.2017 16:54 18,6 C 39 % 1021,2 hPa 0,0 l/m 5,0 km/h (1 Bft) W-NW 292 2 min 0,000 mm 0,9 UV-I 372 W/m 4,4 C 18,6 C 12,9 km/h (3 Bft) 100,00 %
28.03.2017 16:56 18,6 C 37 % 1021,2 hPa 0,0 l/m 6,5 km/h (2 Bft) W-NW 283 2 min 0,000 mm 0,9 UV-I 366 W/m 3,6 C 18,6 C 11,3 km/h (2 Bft) 100,00 %
28.03.2017 16:58 18,6 C 40 % 1021,2 hPa 0,0 l/m 3,0 km/h (1 Bft) W-SW 257 2 min 0,000 mm 0,8 UV-I 361 W/m 4,7 C 18,6 C 9,7 km/h (2 Bft) 97,56 %
28.03.2017 17:00 18,5 C 39 % 1021,2 hPa 0,0 l/m 3,5 km/h (1 Bft) W-NW 298 2 min 0,000 mm 0,8 UV-I 354 W/m 4,3 C 18,5 C 8,0 km/h (2 Bft) 98,21 %
28.03.2017 17:02 18,4 C 38 % 1021,2 hPa 0,0 l/m 1,6 km/h (1 Bft) W-NW 292 2 min 0,279 mm 0,8 UV-I 349 W/m 3,8 C 18,4 C 4,8 km/h (1 Bft) 100,00 %
28.03.2017 17:04 18,4 C 39 % 1021,2 hPa 0,0 l/m 1,7 km/h (1 Bft) NW 312 2 min 0,000 mm 0,8 UV-I 343 W/m 4,2 C 18,4 C 4,8 km/h (1 Bft) 100,00 %
28.03.2017 17:06 18,3 C 38 % 1021,2 hPa 0,0 l/m 2,6 km/h (1 Bft) W-NW 286 2 min 0,000 mm 0,7 UV-I 337 W/m 3,7 C 18,3 C 6,4 km/h (2 Bft) 97,37 %
28.03.2017 17:08 18,3 C 40 % 1021,2 hPa 0,0 l/m 2,1 km/h (1 Bft) W 276 2 min 0,000 mm 0,7 UV-I 330 W/m 4,5 C 18,3 C 4,8 km/h (1 Bft) 96,00 %
28.03.2017 17:10 18,3 C 38 % 1021,2 hPa 0,0 l/m 3,6 km/h (1 Bft) W-NW 293 2 min 0,000 mm 0,7 UV-I 324 W/m 3,7 C 18,3 C 8,0 km/h (2 Bft) 97,73 %
28.03.2017 17:12 18,3 C 39 % 1021,1 hPa 0,0 l/m 3,9 km/h (1 Bft) W-NW 300 2 min 0,000 mm 0,7 UV-I 320 W/m 4,1 C 18,3 C 8,0 km/h (2 Bft) 96,30 %
28.03.2017 17:14 18,2 C 40 % 1021,2 hPa 0,0 l/m 3,6 km/h (1 Bft) W-NW 299 2 min 0,000 mm 0,7 UV-I 315 W/m 4,4 C 18,2 C 6,4 km/h (2 Bft) 98,63 %
28.03.2017 17:16 18,1 C 40 % 1021,1 hPa 0,0 l/m 3,1 km/h (1 Bft) NW 309 2 min 0,000 mm 0,6 UV-I 308 W/m 4,3 C 18,1 C 4,8 km/h (1 Bft) 97,56 %
28.03.2017 17:18 18,1 C 38 % 1021,1 hPa 0,0 l/m 3,8 km/h (1 Bft) N 350 2 min 0,000 mm 0,6 UV-I 301 W/m 3,6 C 18,1 C 6,4 km/h (2 Bft) 96,23 %
28.03.2017 17:20 18,0 C 41 % 1021,1 hPa 0,0 l/m 2,6 km/h (1 Bft) NW 315 2 min 0,000 mm 0,6 UV-I 294 W/m 4,6 C 18,0 C 6,4 km/h (2 Bft) 97,56 %
28.03.2017 17:22 17,9 C 42 % 1021,1 hPa 0,0 l/m 4,1 km/h (1 Bft) NW 324 2 min 0,000 mm 0,6 UV-I 288 W/m 4,8 C 17,9 C 9,7 km/h (2 Bft) 98,11 %
28.03.2017 17:24 17,8 C 42 % 1021,0 hPa 0,0 l/m 2,7 km/h (1 Bft) NW 325 2 min 0,000 mm 0,6 UV-I 281 W/m 4,7 C 17,8 C 6,4 km/h (2 Bft) 97,44 %
28.03.2017 17:26 17,8 C 42 % 1021,0 hPa 0,0 l/m 3,3 km/h (1 Bft) W-NW 300 2 min 0,000 mm 0,5 UV-I 276 W/m 4,7 C 17,8 C 6,4 km/h (2 Bft) 98,08 %
28.03.2017 17:28 17,8 C 42 % 1021,1 hPa 0,0 l/m 6,4 km/h (2 Bft) W 281 2 min 0,000 mm 0,5 UV-I 272 W/m 4,7 C 17,8 C 14,5 km/h (3 Bft) 94,87 %
28.03.2017 17:30 17,9 C 39 % 1021,0 hPa 0,0 l/m 3,3 km/h (1 Bft) NW 322 2 min 0,000 mm 0,5 UV-I 266 W/m 3,8 C 17,9 C 6,4 km/h (2 Bft) 96,00 %
28.03.2017 17:32 17,9 C 42 % 1021,0 hPa 0,0 l/m 2,3 km/h (1 Bft) W-NW 294 2 min 0,000 mm 0,5 UV-I 260 W/m 4,8 C 17,9 C 4,8 km/h (1 Bft) 96,43 %
28.03.2017 17:34 17,8 C 41 % 1021,0 hPa 0,0 l/m 3,4 km/h (1 Bft) W 273 2 min 0,000 mm 0,5 UV-I 254 W/m 4,4 C 17,8 C 6,4 km/h (2 Bft) 94,74 %
28.03.2017 17:36 17,8 C 40 % 1021,0 hPa 0,0 l/m 4,5 km/h (1 Bft) W 281 2 min 0,000 mm 0,4 UV-I 249 W/m 4,0 C 17,8 C 14,5 km/h (3 Bft) 96,00 %
28.03.2017 17:38 17,8 C 40 % 1021,0 hPa 0,0 l/m 5,0 km/h (1 Bft) NW 317 2 min 0,000 mm 0,0 UV-I 242 W/m 4,0 C 17,8 C 12,9 km/h (3 Bft) 95,12 %
28.03.2017 17:40 17,8 C 40 % 1021,0 hPa 0,0 l/m 1,9 km/h (1 Bft) W-NW 284 2 min 0,000 mm 0,0 UV-I 237 W/m 4,0 C 17,8 C 4,8 km/h (1 Bft) 95,74 %
28.03.2017 17:42 17,7 C 41 % 1021,0 hPa 0,0 l/m 2,7 km/h (1 Bft) W-NW 284 2 min 0,000 mm 0,0 UV-I 232 W/m 4,3 C 17,7 C 4,8 km/h (1 Bft) 94,00 %
28.03.2017 17:44 17,7 C 40 % 1021,1 hPa 0,0 l/m 2,2 km/h (1 Bft) W-NW 285 2 min 0,000 mm 0,0 UV-I 227 W/m 3,9 C 17,7 C 3,2 km/h (1 Bft) 96,23 %
28.03.2017 17:46 17,6 C 41 % 1021,0 hPa 0,0 l/m 3,9 km/h (1 Bft) W 268 2 min 0,000 mm 0,0 UV-I 220 W/m 4,2 C 17,6 C 6,4 km/h (2 Bft) 93,62 %
28.03.2017 17:48 17,6 C 40 % 1021,0 hPa 0,0 l/m 3,4 km/h (1 Bft) W-SW 257 2 min 0,000 mm 0,0 UV-I 214 W/m 3,8 C 17,6 C 8,0 km/h (2 Bft) 97,37 %
28.03.2017 17:50 17,6 C 41 % 1021,1 hPa 0,0 l/m 2,6 km/h (1 Bft) W-NW 284 2 min 0,000 mm 0,0 UV-I 208 W/m 4,2 C 17,6 C 4,8 km/h (1 Bft) 94,34 %
28.03.2017 17:52 17,4 C 41 % 1021,1 hPa 0,0 l/m 2,4 km/h (1 Bft) W-NW 284 2 min 0,000 mm 0,0 UV-I 202 W/m 4,0 C 17,4 C 4,8 km/h (1 Bft) 96,08 %
28.03.2017 17:54 17,4 C 41 % 1021,1 hPa 0,0 l/m 3,0 km/h (1 Bft) W-NW 296 2 min 0,000 mm 0,0 UV-I 196 W/m 4,0 C 17,4 C 6,4 km/h (2 Bft) 94,29 %
28.03.2017 17:56 17,4 C 41 % 1021,0 hPa 0,0 l/m 2,3 km/h (1 Bft) NW 321 2 min 0,000 mm 0,0 UV-I 190 W/m 4,0 C 17,4 C 3,2 km/h (1 Bft) 96,00 %
28.03.2017 17:58 17,3 C 43 % 1021,1 hPa 0,0 l/m 1,5 km/h (1 Bft) NW 319 2 min 0,000 mm 0,0 UV-I 185 W/m 4,6 C 17,3 C 3,2 km/h (1 Bft) 96,00 %
28.03.2017 18:00 17,3 C 44 % 1021,1 hPa 0,0 l/m 1,4 km/h (1 Bft) NW 319 2 min 0,000 mm 0,0 UV-I 179 W/m 4,9 C 17,3 C 3,2 km/h (1 Bft) 92,31 %
28.03.2017 18:02 17,4 C 43 % 1021,1 hPa 0,0 l/m 0,9 km/h (0 Bft) NW 319 2 min 0,178 mm 0,0 UV-I 174 W/m 4,7 C 17,4 C 3,2 km/h (1 Bft) 95,12 %
28.03.2017 18:04 17,4 C 43 % 1021,1 hPa 0,0 l/m 2,4 km/h (1 Bft) NW 320 2 min 0,000 mm 0,0 UV-I 168 W/m 4,7 C 17,4 C 4,8 km/h (1 Bft) 93,22 %
28.03.2017 18:06 17,3 C 44 % 1021,1 hPa 0,0 l/m 2,3 km/h (1 Bft) W-NW 296 2 min 0,000 mm 0,0 UV-I 162 W/m 4,9 C 17,3 C 4,8 km/h (1 Bft) 93,88 %
28.03.2017 18:08 17,3 C 42 % 1021,1 hPa 0,0 l/m 2,0 km/h (1 Bft) W 278 2 min 0,000 mm 0,0 UV-I 156 W/m 4,3 C 17,3 C 4,8 km/h (1 Bft) 93,75 %
28.03.2017 18:10 17,2 C 43 % 1021,1 hPa 0,0 l/m 1,3 km/h (1 Bft) W 278 2 min 0,000 mm 0,0 UV-I 151 W/m 4,5 C 17,2 C 3,2 km/h (1 Bft) 98,00 %
28.03.2017 18:12 17,2 C 41 % 1021,1 hPa 0,0 l/m 2,3 km/h (1 Bft) W 278 2 min 0,000 mm 0,0 UV-I 146 W/m 3,8 C 17,2 C 4,8 km/h (1 Bft) 94,74 %
28.03.2017 18:14 17,2 C 41 % 1021,1 hPa 0,0 l/m 1,6 km/h (1 Bft) W 278 2 min 0,000 mm 0,0 UV-I 140 W/m 3,8 C 17,2 C 4,8 km/h (1 Bft) 98,11 %
28.03.2017 18:16 17,2 C 41 % 1021,1 hPa 0,0 l/m 5,1 km/h (1 Bft) W-NW 287 2 min 0,000 mm 0,0 UV-I 135 W/m 3,8 C 17,2 C 11,3 km/h (2 Bft) 97,56 %
28.03.2017 18:18 17,2 C 41 % 1021,1 hPa 0,0 l/m 3,5 km/h (1 Bft) W 281 2 min 0,000 mm 0,0 UV-I 130 W/m 3,8 C 17,2 C 9,7 km/h (2 Bft) 97,87 %
28.03.2017 18:20 17,2 C 42 % 1021,1 hPa 0,0 l/m 3,7 km/h (1 Bft) W 275 2 min 0,000 mm 0,0 UV-I 126 W/m 4,2 C 17,2 C 6,4 km/h (2 Bft) 94,29 %
28.03.2017 18:22 17,2 C 41 % 1021,1 hPa 0,0 l/m 2,0 km/h (1 Bft) W 275 2 min 0,000 mm 0,0 UV-I 120 W/m 3,8 C 17,2 C 4,8 km/h (1 Bft) 98,21 %
28.03.2017 18:24 17,1 C 43 % 1021,1 hPa 0,0 l/m 4,5 km/h (1 Bft) SW 236 2 min 0,000 mm 0,0 UV-I 115 W/m 4,4 C 17,1 C 9,7 km/h (2 Bft) 98,11 %
28.03.2017 18:26 17,0 C 41 % 1021,1 hPa 0,0 l/m 3,3 km/h (1 Bft) SW 236 2 min 0,000 mm 0,0 UV-I 112 W/m 3,7 C 17,0 C 6,4 km/h (2 Bft) 97,56 %
28.03.2017 18:28 17,0 C 42 % 1021,1 hPa 0,0 l/m 3,1 km/h (1 Bft) SW 236 2 min 0,000 mm 0,0 UV-I 107 W/m 4,0 C 17,0 C 6,4 km/h (2 Bft) 95,74 %
28.03.2017 18:30 16,9 C 42 % 1021,2 hPa 0,0 l/m 3,5 km/h (1 Bft) W-NW 282 2 min 0,000 mm 0,0 UV-I 101 W/m 3,9 C 16,9 C 9,7 km/h (2 Bft) 98,11 %
28.03.2017 18:32 16,8 C 41 % 1021,1 hPa 0,0 l/m 4,7 km/h (1 Bft) W-NW 284 2 min 0,000 mm 0,0 UV-I 96 W/m 3,5 C 16,8 C 11,3 km/h (2 Bft) 97,56 %
28.03.2017 18:34 16,8 C 41 % 1021,2 hPa 0,0 l/m 3,0 km/h (1 Bft) W-NW 298 2 min 0,000 mm 0,0 UV-I 91 W/m 3,5 C 16,8 C 8,0 km/h (2 Bft) 98,00 %
28.03.2017 18:36 16,7 C 41 % 1021,2 hPa 0,0 l/m 1,2 km/h (1 Bft) W-NW 297 2 min 0,000 mm 0,0 UV-I 87 W/m 3,4 C 16,7 C 4,8 km/h (1 Bft) 96,00 %
28.03.2017 18:38 16,6 C 42 % 1021,2 hPa 0,0 l/m 1,7 km/h (1 Bft) W-NW 297 2 min 0,000 mm 0,0 UV-I 83 W/m 3,6 C 16,6 C 3,2 km/h (1 Bft) 97,50 %
28.03.2017 18:40 16,4 C 43 % 1021,1 hPa 0,0 l/m 1,8 km/h (1 Bft) W-NW 298 2 min 0,000 mm 0,0 UV-I 78 W/m 3,8 C 16,4 C 3,2 km/h (1 Bft) 96,00 %
28.03.2017 18:42 16,3 C 43 % 1021,2 hPa 0,0 l/m 3,3 km/h (1 Bft) W-NW 290 2 min 0,000 mm 0,0 UV-I 74 W/m 3,7 C 16,3 C 6,4 km/h (2 Bft) 98,11 %
28.03.2017 18:44 16,3 C 43 % 1021,2 hPa 0,0 l/m 2,9 km/h (1 Bft) W-NW 290 2 min 0,000 mm 0,0 UV-I 69 W/m 3,7 C 16,3 C 4,8 km/h (1 Bft) 97,73 %
28.03.2017 18:46 16,3 C 43 % 1021,2 hPa 0,0 l/m 2,4 km/h (1 Bft) W-NW 290 2 min 0,000 mm 0,0 UV-I 65 W/m 3,7 C 16,3 C 3,2 km/h (1 Bft) 96,00 %
28.03.2017 18:48 16,2 C 44 % 1021,2 hPa 0,0 l/m 1,1 km/h (1 Bft) W-NW 290 2 min 0,000 mm 0,0 UV-I 61 W/m 3,9 C 16,2 C 3,2 km/h (1 Bft) 100,00 %
28.03.2017 18:50 16,1 C 45 % 1021,3 hPa 0,0 l/m 0,0 km/h (0 Bft) W-NW 290 2 min 0,000 mm 0,0 UV-I 56 W/m 4,2 C 16,1 C 1,6 km/h (1 Bft) 96,23 %
28.03.2017 18:52 15,9 C 44 % 1021,2 hPa 0,0 l/m 0,6 km/h (0 Bft) W-NW 290 2 min 0,000 mm 0,0 UV-I 53 W/m 3,7 C 15,9 C 1,6 km/h (1 Bft) 96,00 %
28.03.2017 18:54 16,0 C 43 % 1021,2 hPa 0,0 l/m 0,2 km/h (0 Bft) W-NW 290 2 min 0,000 mm 0,0 UV-I 50 W/m 3,4 C 16,0 C 1,6 km/h (1 Bft) 100,00 %
28.03.2017 18:56 15,9 C 44 % 1021,3 hPa 0,0 l/m 0,2 km/h (0 Bft) W-NW 290 2 min 0,000 mm 0,0 UV-I 46 W/m 3,7 C 15,9 C 1,6 km/h (1 Bft) 97,06 %
28.03.2017 18:58 15,9 C 43 % 1021,3 hPa 0,0 l/m 0,5 km/h (0 Bft) W-NW 290 2 min 0,000 mm 0,0 UV-I 42 W/m 3,3 C 15,9 C 3,2 km/h (1 Bft) 97,56 %
28.03.2017 19:00 15,9 C 44 % 1021,3 hPa 0,0 l/m 0,0 km/h (0 Bft) W-NW 290 2 min 0,000 mm 0,0 UV-I 40 W/m 3,7 C 15,9 C 1,6 km/h (1 Bft) 98,00 %
28.03.2017 19:02 15,8 C 44 % 1021,3 hPa 0,0 l/m 0,1 km/h (0 Bft) W-NW 290 2 min 0,076 mm 0,0 UV-I 37 W/m 3,6 C 15,8 C 1,6 km/h (1 Bft) 100,00 %
28.03.2017 19:04 15,7 C 45 % 1021,3 hPa 0,0 l/m 0,9 km/h (0 Bft) W-NW 290 2 min 0,000 mm 0,0 UV-I 33 W/m 3,8 C 15,7 C 1,6 km/h (1 Bft) 100,00 %
28.03.2017 19:06 15,6 C 45 % 1021,3 hPa 0,0 l/m 0,1 km/h (0 Bft) W-NW 290 2 min 0,000 mm 0,0 UV-I 31 W/m 3,7 C 15,6 C 1,6 km/h (1 Bft) 100,00 %
28.03.2017 19:08 15,6 C 45 % 1021,3 hPa 0,0 l/m 0,0 km/h (0 Bft) W-NW 290 2 min 0,000 mm 0,0 UV-I 28 W/m 3,7 C 15,6 C 0,0 km/h (0 Bft) 100,00 %
28.03.2017 19:10 15,5 C 45 % 1021,3 hPa 0,0 l/m 0,5 km/h (0 Bft) W-NW 290 2 min 0,000 mm 0,0 UV-I 26 W/m 3,6 C 15,5 C 1,6 km/h (1 Bft) 100,00 %
28.03.2017 19:12 15,4 C 45 % 1021,4 hPa 0,0 l/m 1,8 km/h (1 Bft) W-NW 290 2 min 0,000 mm 0,0 UV-I 23 W/m 3,5 C 15,4 C 3,2 km/h (1 Bft) 100,00 %
28.03.2017 19:14 15,3 C 46 % 1021,3 hPa 0,0 l/m 1,4 km/h (1 Bft) W-NW 290 2 min 0,000 mm 0,0 UV-I 21 W/m 3,8 C 15,3 C 3,2 km/h (1 Bft) 100,00 %
28.03.2017 19:16 15,3 C 45 % 1021,3 hPa 0,0 l/m 0,4 km/h (0 Bft) W-NW 290 2 min 0,000 mm 0,0 UV-I 19 W/m 3,4 C 15,3 C 1,6 km/h (1 Bft) 100,00 %
28.03.2017 19:18 15,2 C 46 % 1021,4 hPa 0,0 l/m 0,4 km/h (0 Bft) W-NW 290 2 min 0,000 mm 0,0 UV-I 15 W/m 3,7 C 15,2 C 3,2 km/h (1 Bft) 100,00 %
28.03.2017 19:20 15,1 C 46 % 1021,4 hPa 0,0 l/m 0,1 km/h (0 Bft) W-NW 290 0 min 0,000 mm 0,0 UV-I 14 W/m 3,6 C 15,1 C 1,6 km/h (1 Bft) 100,00 %
28.03.2017 19:22 14,9 C 46 % 1021,4 hPa 0,0 l/m 1,5 km/h (1 Bft) W-NW 290 0 min 0,000 mm 0,0 UV-I 12 W/m 3,4 C 14,9 C 4,8 km/h (1 Bft) 100,00 %
28.03.2017 19:24 14,8 C 47 % 1021,5 hPa 0,0 l/m 0,6 km/h (0 Bft) W-NW 290 0 min 0,000 mm 0,0 UV-I 11 W/m 3,6 C 14,8 C 3,2 km/h (1 Bft) 98,11 %
28.03.2017 19:26 14,7 C 49 % 1021,5 hPa 0,0 l/m 0,0 km/h (0 Bft) W-NW 290 0 min 0,000 mm 0,0 UV-I 11 W/m 4,1 C 14,7 C 0,0 km/h (0 Bft) 100,00 %
28.03.2017 19:28 14,5 C 52 % 1021,5 hPa 0,0 l/m 0,4 km/h (0 Bft) W-NW 290 0 min 0,000 mm 0,0 UV-I 10 W/m 4,8 C 14,5 C 1,6 km/h (1 Bft) 100,00 %
28.03.2017 19:30 14,2 C 54 % 1021,5 hPa 0,0 l/m 0,3 km/h (0 Bft) W-NW 290 0 min 0,000 mm 0,0 UV-I 9 W/m 5,0 C 14,2 C 3,2 km/h (1 Bft) 100,00 %
28.03.2017 19:32 13,7 C 57 % 1021,5 hPa 0,0 l/m 0,6 km/h (0 Bft) W-NW 290 0 min 0,000 mm 0,0 UV-I 7 W/m 5,3 C 13,7 C 1,6 km/h (1 Bft) 97,37 %
28.03.2017 19:34 13,3 C 60 % 1021,6 hPa 0,0 l/m 0,0 km/h (0 Bft) W-NW 290 0 min 0,000 mm 0,0 UV-I 7 W/m 5,7 C 13,3 C 0,0 km/h (0 Bft) 100,00 %
28.03.2017 19:36 12,8 C 59 % 1021,5 hPa 0,0 l/m 0,0 km/h (0 Bft) W-NW 290 0 min 0,000 mm 0,0 UV-I 6 W/m 5,0 C 12,8 C 0,0 km/h (0 Bft) 100,00 %
28.03.2017 19:38 12,6 C 60 % 1021,6 hPa 0,0 l/m 0,0 km/h (0 Bft) W-NW 290 0 min 0,000 mm 0,0 UV-I 5 W/m 5,0 C 12,6 C 0,0 km/h (0 Bft) 100,00 %
28.03.2017 19:40 12,6 C 58 % 1021,6 hPa 0,0 l/m 0,0 km/h (0 Bft) W-NW 290 0 min 0,000 mm 0,0 UV-I 5 W/m 4,6 C 12,6 C 0,0 km/h (0 Bft) 100,00 %
28.03.2017 19:42 12,7 C 57 % 1021,6 hPa 0,0 l/m 0,0 km/h (0 Bft) W-NW 290 0 min 0,000 mm 0,0 UV-I 5 W/m 4,4 C 12,7 C 0,0 km/h (0 Bft) 100,00 %
28.03.2017 19:44 12,8 C 57 % 1021,6 hPa 0,0 l/m 0,0 km/h (0 Bft) W-NW 290 0 min 0,000 mm 0,0 UV-I 0 W/m 4,5 C 12,8 C 0,0 km/h (0 Bft) 97,62 %
28.03.2017 19:46 12,7 C 58 % 1021,7 hPa 0,0 l/m 0,1 km/h (0 Bft) W-NW 290 0 min 0,000 mm 0,0 UV-I 0 W/m 4,7 C 12,7 C 1,6 km/h (1 Bft) 100,00 %
28.03.2017 19:48 12,3 C 62 % 1021,7 hPa 0,0 l/m 0,6 km/h (0 Bft) W-NW 290 0 min 0,000 mm 0,0 UV-I 0 W/m 5,2 C 12,3 C 1,6 km/h (1 Bft) 100,00 %
28.03.2017 19:50 12,1 C 61 % 1021,7 hPa 0,0 l/m 0,1 km/h (0 Bft) W-NW 290 0 min 0,000 mm 0,0 UV-I 0 W/m 4,8 C 12,1 C 1,6 km/h (1 Bft) 100,00 %
28.03.2017 19:52 12,0 C 62 % 1021,7 hPa 0,0 l/m 0,1 km/h (0 Bft) W-NW 290 0 min 0,000 mm 0,0 UV-I 0 W/m 4,9 C 12,0 C 1,6 km/h (1 Bft) 95,74 %
28.03.2017 19:54 11,8 C 64 % 1021,8 hPa 0,0 l/m 1,1 km/h (1 Bft) W-NW 290 0 min 0,000 mm 0,0 UV-I 0 W/m 5,2 C 11,8 C 3,2 km/h (1 Bft) 98,15 %
28.03.2017 19:56 11,5 C 65 % 1021,8 hPa 0,0 l/m 0,0 km/h (0 Bft) W-NW 290 0 min 0,000 mm 0,0 UV-I 0 W/m 5,2 C 11,5 C 0,0 km/h (0 Bft) 98,00 %
28.03.2017 19:58 11,3 C 68 % 1021,8 hPa 0,0 l/m 0,7 km/h (0 Bft) W-NW 290 0 min 0,000 mm 0,0 UV-I 0 W/m 5,6 C 11,3 C 1,6 km/h (1 Bft) 97,37 %
28.03.2017 20:00 11,1 C 68 % 1021,8 hPa 0,0 l/m 1,5 km/h (1 Bft) W-NW 290 0 min 0,000 mm 0,0 UV-I 0 W/m 5,4 C 11,1 C 3,2 km/h (1 Bft) 97,22 %
28.03.2017 20:02 10,9 C 69 % 1021,8 hPa 0,0 l/m 1,4 km/h (1 Bft) W-NW 290 0 min 0,025 mm 0,0 UV-I 0 W/m 5,4 C 10,9 C 3,2 km/h (1 Bft) 98,21 %
28.03.2017 20:04 10,8 C 70 % 1021,9 hPa 0,0 l/m 1,1 km/h (1 Bft) W-NW 290 0 min 0,000 mm 0,0 UV-I 0 W/m 5,6 C 10,8 C 3,2 km/h (1 Bft) 97,87 %
28.03.2017 20:06 10,8 C 68 % 1021,9 hPa 0,0 l/m 1,6 km/h (1 Bft) W-NW 290 0 min 0,000 mm 0,0 UV-I 0 W/m 5,1 C 10,8 C 3,2 km/h (1 Bft) 94,00 %
28.03.2017 20:08 10,7 C 68 % 1021,9 hPa 0,0 l/m 0,8 km/h (0 Bft) W-NW 290 0 min 0,000 mm 0,0 UV-I 0 W/m 5,0 C 10,7 C 1,6 km/h (1 Bft) 96,23 %
28.03.2017 20:10 10,7 C 66 % 1021,9 hPa 0,0 l/m 1,4 km/h (1 Bft) W-NW 290 0 min 0,000 mm 0,0 UV-I 0 W/m 4,6 C 10,7 C 3,2 km/h (1 Bft) 94,74 %
28.03.2017 20:12 11,1 C 63 % 1021,9 hPa 0,0 l/m 1,0 km/h (0 Bft) W-NW 289 0 min 0,000 mm 0,0 UV-I 0 W/m 4,3 C 11,1 C 1,6 km/h (1 Bft) 96,23 %
28.03.2017 20:14 11,2 C 64 % 1021,9 hPa 0,0 l/m 1,9 km/h (1 Bft) W-NW 284 0 min 0,000 mm 0,0 UV-I 0 W/m 4,6 C 11,2 C 3,2 km/h (1 Bft) 97,37 %
28.03.2017 20:16 11,1 C 64 % 1021,9 hPa 0,0 l/m 3,1 km/h (1 Bft) W-SW 257 0 min 0,000 mm 0,0 UV-I 0 W/m 4,6 C 11,1 C 3,2 km/h (1 Bft) 98,31 %
28.03.2017 20:18 11,1 C 63 % 1022,0 hPa 0,0 l/m 2,7 km/h (1 Bft) W-SW 254 0 min 0,000 mm 0,0 UV-I 0 W/m 4,3 C 11,1 C 4,8 km/h (1 Bft) 97,87 %
28.03.2017 20:20 11,0 C 64 % 1022,0 hPa 0,0 l/m 1,3 km/h (1 Bft) W-SW 254 0 min 0,000 mm 0,0 UV-I 0 W/m 4,5 C 11,0 C 3,2 km/h (1 Bft) 96,55 %
28.03.2017 20:22 10,9 C 64 % 1022,0 hPa 0,0 l/m 1,3 km/h (1 Bft) W-SW 254 0 min 0,000 mm 0,0 UV-I 0 W/m 4,4 C 10,9 C 3,2 km/h (1 Bft) 96,92 %
28.03.2017 20:24 10,7 C 66 % 1022,0 hPa 0,0 l/m 2,4 km/h (1 Bft) W-SW 253 0 min 0,000 mm 0,0 UV-I 0 W/m 4,6 C 10,7 C 3,2 km/h (1 Bft) 92,68 %
28.03.2017 20:26 10,6 C 66 % 1022,0 hPa 0,0 l/m 2,2 km/h (1 Bft) W-SW 252 0 min 0,000 mm 0,0 UV-I 0 W/m 4,5 C 10,6 C 3,2 km/h (1 Bft) 97,56 %
28.03.2017 20:28 10,6 C 65 % 1022,1 hPa 0,0 l/m 1,7 km/h (1 Bft) W-SW 252 0 min 0,000 mm 0,0 UV-I 0 W/m 4,3 C 10,6 C 3,2 km/h (1 Bft) 97,87 %
28.03.2017 20:30 10,6 C 65 % 1022,1 hPa 0,0 l/m 1,5 km/h (1 Bft) W-SW 252 0 min 0,000 mm 0,0 UV-I 0 W/m 4,3 C 10,6 C 3,2 km/h (1 Bft) 98,21 %
28.03.2017 20:32 10,6 C 66 % 1022,1 hPa 0,0 l/m 2,4 km/h (1 Bft) W-SW 245 0 min 0,000 mm 0,0 UV-I 0 W/m 4,5 C 10,6 C 4,8 km/h (1 Bft) 97,87 %
28.03.2017 20:34 10,6 C 65 % 1022,2 hPa 0,0 l/m 2,3 km/h (1 Bft) W-SW 242 0 min 0,000 mm 0,0 UV-I 0 W/m 4,3 C 10,6 C 3,2 km/h (1 Bft) 97,56 %
28.03.2017 20:36 10,6 C 67 % 1022,2 hPa 0,0 l/m 1,2 km/h (1 Bft) W-SW 241 0 min 0,000 mm 0,0 UV-I 0 W/m 4,7 C 10,6 C 1,6 km/h (1 Bft) 98,11 %
28.03.2017 20:38 10,4 C 67 % 1022,2 hPa 0,0 l/m 1,6 km/h (1 Bft) W-SW 241 0 min 0,000 mm 0,0 UV-I 0 W/m 4,5 C 10,4 C 3,2 km/h (1 Bft) 100,00 %
28.03.2017 20:40 10,4 C 66 % 1022,3 hPa 0,0 l/m 2,1 km/h (1 Bft) W-SW 241 0 min 0,000 mm 0,0 UV-I 0 W/m 4,3 C 10,4 C 4,8 km/h (1 Bft) 97,96 %
28.03.2017 20:42 10,5 C 67 % 1022,3 hPa 0,0 l/m 2,6 km/h (1 Bft) W-SW 240 0 min 0,000 mm 0,0 UV-I 0 W/m 4,6 C 10,5 C 4,8 km/h (1 Bft) 100,00 %
28.03.2017 20:44 10,5 C 66 % 1022,4 hPa 0,0 l/m 2,5 km/h (1 Bft) W-SW 240 0 min 0,000 mm 0,0 UV-I 0 W/m 4,4 C 10,5 C 3,2 km/h (1 Bft) 100,00 %
28.03.2017 20:46 10,6 C 67 % 1022,4 hPa 0,0 l/m 2,6 km/h (1 Bft) W-SW 240 0 min 0,000 mm 0,0 UV-I 0 W/m 4,7 C 10,6 C 3,2 km/h (1 Bft) 100,00 %
28.03.2017 20:48 10,6 C 66 % 1022,4 hPa 0,0 l/m 4,2 km/h (1 Bft) W-SW 240 0 min 0,000 mm 0,0 UV-I 0 W/m 4,5 C 10,6 C 4,8 km/h (1 Bft) 97,56 %
28.03.2017 20:50 10,5 C 66 % 1022,4 hPa 0,0 l/m 3,6 km/h (1 Bft) W-SW 239 0 min 0,000 mm 0,0 UV-I 0 W/m 4,4 C 10,5 C 6,4 km/h (2 Bft) 96,00 %
28.03.2017 20:52 10,4 C 67 % 1022,3 hPa 0,0 l/m 4,2 km/h (1 Bft) W-SW 239 0 min 0,000 mm 0,0 UV-I 0 W/m 4,5 C 10,4 C 4,8 km/h (1 Bft) 100,00 %
28.03.2017 20:54 10,4 C 66 % 1022,4 hPa 0,0 l/m 4,1 km/h (1 Bft) W-SW 239 0 min 0,000 mm 0,0 UV-I 0 W/m 4,3 C 10,4 C 6,4 km/h (2 Bft) 98,00 %
28.03.2017 20:56 10,3 C 67 % 1022,4 hPa 0,0 l/m 4,1 km/h (1 Bft) SW 236 0 min 0,000 mm 0,0 UV-I 0 W/m 4,4 C 10,3 C 4,8 km/h (1 Bft) 100,00 %
28.03.2017 20:58 10,3 C 66 % 1022,4 hPa 0,0 l/m 3,7 km/h (1 Bft) SW 214 0 min 0,000 mm 0,0 UV-I 0 W/m 4,2 C 10,3 C 6,4 km/h (2 Bft) 100,00 %
28.03.2017 21:00 10,2 C 67 % 1022,4 hPa 0,0 l/m 3,0 km/h (1 Bft) S-SW 210 0 min 0,000 mm 0,0 UV-I 0 W/m 4,4 C 10,2 C 4,8 km/h (1 Bft) 100,00 %
28.03.2017 21:02 10,2 C 67 % 1022,4 hPa 0,0 l/m 4,0 km/h (1 Bft) S-SW 200 0 min 0,026 mm 0,0 UV-I 0 W/m 4,4 C 10,2 C 6,4 km/h (2 Bft) 100,00 %
28.03.2017 21:04 10,1 C 67 % 1022,4 hPa 0,0 l/m 4,2 km/h (1 Bft) S-SW 200 0 min 0,000 mm 0,0 UV-I 0 W/m 4,3 C 10,1 C 6,4 km/h (2 Bft) 100,00 %
28.03.2017 21:06 10,2 C 66 % 1022,5 hPa 0,0 l/m 4,4 km/h (1 Bft) S-SW 200 0 min 0,000 mm 0,0 UV-I 0 W/m 4,1 C 10,2 C 6,4 km/h (2 Bft) 100,00 %
28.03.2017 21:08 10,2 C 66 % 1022,5 hPa 0,0 l/m 4,5 km/h (1 Bft) S-SW 200 0 min 0,000 mm 0,0 UV-I 0 W/m 4,1 C 10,2 C 8,0 km/h (2 Bft) 97,56 %
28.03.2017 21:10 10,2 C 65 % 1022,5 hPa 0,0 l/m 3,7 km/h (1 Bft) S-SW 194 0 min 0,000 mm 0,0 UV-I 0 W/m 3,9 C 10,2 C 8,0 km/h (2 Bft) 98,11 %
28.03.2017 21:12 10,2 C 66 % 1022,5 hPa 0,0 l/m 3,2 km/h (1 Bft) S-SW 194 0 min 0,000 mm 0,0 UV-I 0 W/m 4,1 C 10,2 C 4,8 km/h (1 Bft) 100,00 %
28.03.2017 21:14 10,2 C 65 % 1022,5 hPa 0,0 l/m 3,0 km/h (1 Bft) S-SW 194 0 min 0,000 mm 0,0 UV-I 0 W/m 3,9 C 10,2 C 6,4 km/h (2 Bft) 100,00 %
28.03.2017 21:16 10,2 C 65 % 1022,5 hPa 0,0 l/m 2,8 km/h (1 Bft) S-SW 194 0 min 0,000 mm 0,0 UV-I 0 W/m 3,9 C 10,2 C 4,8 km/h (1 Bft) 100,00 %
28.03.2017 21:18 10,2 C 65 % 1022,6 hPa 0,0 l/m 2,8 km/h (1 Bft) S-SW 194 0 min 0,000 mm 0,0 UV-I 0 W/m 3,9 C 10,2 C 3,2 km/h (1 Bft) 100,00 %
28.03.2017 21:20 10,2 C 65 % 1022,6 hPa 0,0 l/m 3,9 km/h (1 Bft) S-SW 194 0 min 0,000 mm 0,0 UV-I 0 W/m 3,9 C 10,2 C 6,4 km/h (2 Bft) 97,30 %
28.03.2017 21:22 10,2 C 65 % 1022,6 hPa 0,0 l/m 2,5 km/h (1 Bft) S-SW 194 0 min 0,000 mm 0,0 UV-I 0 W/m 3,9 C 10,2 C 3,2 km/h (1 Bft) 98,21 %
28.03.2017 21:24 10,1 C 65 % 1022,6 hPa 0,0 l/m 2,1 km/h (1 Bft) S-SW 194 0 min 0,000 mm 0,0 UV-I 0 W/m 3,8 C 10,1 C 3,2 km/h (1 Bft) 100,00 %
28.03.2017 21:26 10,1 C 65 % 1022,7 hPa 0,0 l/m 3,2 km/h (1 Bft) S-SW 193 0 min 0,000 mm 0,0 UV-I 0 W/m 3,8 C 10,1 C 4,8 km/h (1 Bft) 100,00 %
28.03.2017 21:28 10,0 C 65 % 1022,7 hPa 0,0 l/m 3,0 km/h (1 Bft) S-SW 193 0 min 0,000 mm 0,0 UV-I 0 W/m 3,7 C 10,0 C 4,8 km/h (1 Bft) 100,00 %
28.03.2017 21:30 9,9 C 66 % 1022,7 hPa 0,0 l/m 3,1 km/h (1 Bft) S-SW 193 0 min 0,000 mm 0,0 UV-I 0 W/m 3,9 C 9,9 C 4,8 km/h (1 Bft) 100,00 %
28.03.2017 21:32 9,8 C 67 % 1022,7 hPa 0,0 l/m 3,9 km/h (1 Bft) S-SW 193 0 min 0,000 mm 0,0 UV-I 0 W/m 4,0 C 9,8 C 4,8 km/h (1 Bft) 97,87 %
28.03.2017 21:34 9,7 C 68 % 1022,7 hPa 0,0 l/m 3,8 km/h (1 Bft) S-SW 193 0 min 0,000 mm 0,0 UV-I 0 W/m 4,1 C 9,7 C 4,8 km/h (1 Bft) 100,00 %
28.03.2017 21:36 9,7 C 67 % 1022,7 hPa 0,0 l/m 2,9 km/h (1 Bft) S-SW 193 0 min 0,000 mm 0,0 UV-I 0 W/m 3,9 C 9,7 C 4,8 km/h (1 Bft) 100,00 %
28.03.2017 21:38 9,8 C 67 % 1022,7 hPa 0,0 l/m 3,0 km/h (1 Bft) S-SW 193 0 min 0,000 mm 0,0 UV-I 0 W/m 4,0 C 9,8 C 4,8 km/h (1 Bft) 97,96 %
28.03.2017 21:40 9,9 C 66 % 1022,7 hPa 0,0 l/m 2,7 km/h (1 Bft) S-SW 192 0 min 0,000 mm 0,0 UV-I 0 W/m 3,9 C 9,9 C 3,2 km/h (1 Bft) 100,00 %
28.03.2017 21:42 10,1 C 66 % 1022,7 hPa 0,0 l/m 2,6 km/h (1 Bft) S-SW 192 0 min 0,000 mm 0,0 UV-I 0 W/m 4,0 C 10,1 C 4,8 km/h (1 Bft) 100,00 %
28.03.2017 21:44 10,1 C 66 % 1022,7 hPa 0,0 l/m 3,1 km/h (1 Bft) S 190 0 min 0,000 mm 0,0 UV-I 0 W/m 4,0 C 10,1 C 4,8 km/h (1 Bft) 100,00 %
28.03.2017 21:46 10,2 C 66 % 1022,7 hPa 0,0 l/m 2,9 km/h (1 Bft) S 190 0 min 0,000 mm 0,0 UV-I 0 W/m 4,1 C 10,2 C 4,8 km/h (1 Bft) 100,00 %
28.03.2017 21:48 10,3 C 66 % 1022,7 hPa 0,0 l/m 3,9 km/h (1 Bft) S 190 0 min 0,000 mm 0,0 UV-I 0 W/m 4,2 C 10,3 C 6,4 km/h (2 Bft) 100,00 %
28.03.2017 21:50 10,4 C 66 % 1022,8 hPa 0,0 l/m 5,4 km/h (1 Bft) S 190 0 min 0,000 mm 0,0 UV-I 0 W/m 4,3 C 10,4 C 8,0 km/h (2 Bft) 98,00 %
28.03.2017 21:52 10,4 C 66 % 1022,8 hPa 0,0 l/m 5,1 km/h (1 Bft) S 190 0 min 0,000 mm 0,0 UV-I 0 W/m 4,3 C 10,4 C 8,0 km/h (2 Bft) 100,00 %
28.03.2017 21:54 10,5 C 66 % 1022,8 hPa 0,0 l/m 5,5 km/h (1 Bft) S 190 0 min 0,000 mm 0,0 UV-I 0 W/m 4,4 C 10,5 C 8,0 km/h (2 Bft) 100,00 %
28.03.2017 21:56 10,4 C 67 % 1022,8 hPa 0,0 l/m 4,3 km/h (1 Bft) S 190 0 min 0,000 mm 0,0 UV-I 0 W/m 4,5 C 10,4 C 6,4 km/h (2 Bft) 100,00 %
28.03.2017 21:58 10,3 C 67 % 1022,8 hPa 0,0 l/m 4,6 km/h (1 Bft) S 189 0 min 0,000 mm 0,0 UV-I 0 W/m 4,4 C 10,3 C 6,4 km/h (2 Bft) 100,00 %
28.03.2017 22:00 10,3 C 68 % 1022,8 hPa 0,0 l/m 4,2 km/h (1 Bft) S 189 0 min 0,000 mm 0,0 UV-I 0 W/m 4,7 C 10,3 C 6,4 km/h (2 Bft) 96,00 %
28.03.2017 22:02 10,2 C 68 % 1022,9 hPa 0,0 l/m 4,9 km/h (1 Bft) S 189 0 min 0,025 mm 0,0 UV-I 0 W/m 4,6 C 10,2 C 6,4 km/h (2 Bft) 100,00 %
28.03.2017 22:04 10,2 C 68 % 1022,8 hPa 0,0 l/m 4,8 km/h (1 Bft) S 189 0 min 0,000 mm 0,0 UV-I 0 W/m 4,6 C 10,2 C 8,0 km/h (2 Bft) 100,00 %
28.03.2017 22:06 10,2 C 68 % 1022,8 hPa 0,0 l/m 5,2 km/h (1 Bft) S 189 0 min 0,000 mm 0,0 UV-I 0 W/m 4,6 C 10,2 C 8,0 km/h (2 Bft) 100,00 %
28.03.2017 22:08 10,2 C 68 % 1022,9 hPa 0,0 l/m 5,4 km/h (1 Bft) S 189 0 min 0,000 mm 0,0 UV-I 0 W/m 4,6 C 10,2 C 8,0 km/h (2 Bft) 100,00 %
28.03.2017 22:10 10,2 C 69 % 1022,9 hPa 0,0 l/m 5,7 km/h (1 Bft) S 189 0 min 0,000 mm 0,0 UV-I 0 W/m 4,8 C 10,2 C 8,0 km/h (2 Bft) 100,00 %
28.03.2017 22:12 10,1 C 69 % 1022,9 hPa 0,0 l/m 5,9 km/h (2 Bft) S 189 0 min 0,000 mm 0,0 UV-I 0 W/m 4,7 C 10,1 C 8,0 km/h (2 Bft) 100,00 %
28.03.2017 22:14 10,2 C 69 % 1022,9 hPa 0,0 l/m 6,2 km/h (2 Bft) S 189 0 min 0,000 mm 0,0 UV-I 0 W/m 4,8 C 10,2 C 8,0 km/h (2 Bft) 97,87 %
28.03.2017 22:16 10,1 C 69 % 1022,9 hPa 0,0 l/m 5,7 km/h (1 Bft) S 190 0 min 0,000 mm 0,0 UV-I 0 W/m 4,7 C 10,1 C 8,0 km/h (2 Bft) 95,45 %
28.03.2017 22:18 10,1 C 69 % 1022,9 hPa 0,0 l/m 5,7 km/h (1 Bft) S 190 0 min 0,000 mm 0,0 UV-I 0 W/m 4,7 C 10,1 C 8,0 km/h (2 Bft) 97,87 %
28.03.2017 22:20 10,1 C 69 % 1022,9 hPa 0,0 l/m 5,2 km/h (1 Bft) S 190 0 min 0,000 mm 0,0 UV-I 0 W/m 4,7 C 10,1 C 6,4 km/h (2 Bft) 97,87 %
28.03.2017 22:22 10,1 C 69 % 1022,9 hPa 0,0 l/m 4,7 km/h (1 Bft) S 190 0 min 0,000 mm 0,0 UV-I 0 W/m 4,7 C 10,1 C 8,0 km/h (2 Bft) 97,37 %
28.03.2017 22:24 10,0 C 69 % 1022,9 hPa 0,0 l/m 5,1 km/h (1 Bft) S 190 0 min 0,000 mm 0,0 UV-I 0 W/m 4,6 C 10,0 C 8,0 km/h (2 Bft) 96,43 %
28.03.2017 22:26 10,0 C 70 % 1022,9 hPa 0,0 l/m 5,1 km/h (1 Bft) S 190 0 min 0,000 mm 0,0 UV-I 0 W/m 4,8 C 10,0 C 8,0 km/h (2 Bft) 100,00 %
28.03.2017 22:28 10,0 C 70 % 1022,9 hPa 0,0 l/m 3,6 km/h (1 Bft) S 190 0 min 0,000 mm 0,0 UV-I 0 W/m 4,8 C 10,0 C 6,4 km/h (2 Bft) 96,43 %
28.03.2017 22:30 10,0 C 70 % 1023,0 hPa 0,0 l/m 4,3 km/h (1 Bft) S 190 0 min 0,000 mm 0,0 UV-I 0 W/m 4,8 C 10,0 C 6,4 km/h (2 Bft) 97,37 %
28.03.2017 22:32 10,0 C 70 % 1023,0 hPa 0,0 l/m 4,9 km/h (1 Bft) S 190 0 min 0,000 mm 0,0 UV-I 0 W/m 4,8 C 10,0 C 6,4 km/h (2 Bft) 96,23 %
28.03.2017 22:34 10,0 C 70 % 1023,0 hPa 0,0 l/m 5,1 km/h (1 Bft) S 190 0 min 0,000 mm 0,0 UV-I 0 W/m 4,8 C 10,0 C 6,4 km/h (2 Bft) 97,73 %
28.03.2017 22:36 10,0 C 70 % 1023,0 hPa 0,0 l/m 5,9 km/h (2 Bft) S 190 0 min 0,000 mm 0,0 UV-I 0 W/m 4,8 C 10,0 C 9,7 km/h (2 Bft) 98,00 %
28.03.2017 22:38 10,1 C 70 % 1023,0 hPa 0,0 l/m 5,9 km/h (2 Bft) S 189 0 min 0,000 mm 0,0 UV-I 0 W/m 4,9 C 10,1 C 8,0 km/h (2 Bft) 95,45 %
28.03.2017 22:40 10,1 C 70 % 1023,0 hPa 0,0 l/m 5,5 km/h (1 Bft) S 188 0 min 0,000 mm 0,0 UV-I 0 W/m 4,9 C 10,1 C 8,0 km/h (2 Bft) 97,62 %
28.03.2017 22:42 10,1 C 70 % 1023,0 hPa 0,0 l/m 6,2 km/h (2 Bft) S-SW 195 0 min 0,000 mm 0,0 UV-I 0 W/m 4,9 C 10,1 C 9,7 km/h (2 Bft) 96,43 %
28.03.2017 22:44 10,1 C 70 % 1023,0 hPa 0,0 l/m 5,3 km/h (1 Bft) S 190 0 min 0,000 mm 0,0 UV-I 0 W/m 4,9 C 10,1 C 8,0 km/h (2 Bft) 94,74 %
28.03.2017 22:46 10,1 C 70 % 1023,1 hPa 0,0 l/m 5,2 km/h (1 Bft) S 190 0 min 0,000 mm 0,0 UV-I 0 W/m 4,9 C 10,1 C 8,0 km/h (2 Bft) 92,00 %
28.03.2017 22:48 10,1 C 71 % 1023,1 hPa 0,0 l/m 5,8 km/h (2 Bft) S 190 0 min 0,000 mm 0,0 UV-I 0 W/m 5,1 C 10,1 C 8,0 km/h (2 Bft) 96,00 %
28.03.2017 22:50 10,1 C 71 % 1023,1 hPa 0,0 l/m 5,0 km/h (1 Bft) S 190 0 min 0,000 mm 0,0 UV-I 0 W/m 5,1 C 10,1 C 8,0 km/h (2 Bft) 96,00 %
28.03.2017 22:52 10,1 C 71 % 1023,1 hPa 0,0 l/m 5,3 km/h (1 Bft) S 190 0 min 0,000 mm 0,0 UV-I 0 W/m 5,1 C 10,1 C 6,4 km/h (2 Bft) 97,73 %
28.03.2017 22:54 10,0 C 71 % 1023,1 hPa 0,0 l/m 5,5 km/h (1 Bft) S 185 0 min 0,000 mm 0,0 UV-I 0 W/m 5,0 C 10,0 C 6,4 km/h (2 Bft) 97,87 %
28.03.2017 22:56 10,0 C 71 % 1023,1 hPa 0,0 l/m 6,8 km/h (2 Bft) S-SW 209 0 min 0,000 mm 0,0 UV-I 0 W/m 5,0 C 9,7 C 9,7 km/h (2 Bft) 97,37 %
28.03.2017 22:58 9,9 C 71 % 1023,2 hPa 0,0 l/m 7,0 km/h (2 Bft) S-SW 208 0 min 0,000 mm 0,0 UV-I 0 W/m 4,9 C 9,5 C 9,7 km/h (2 Bft) 94,34 %
28.03.2017 23:00 10,0 C 71 % 1023,2 hPa 0,0 l/m 5,9 km/h (2 Bft) S-SW 209 0 min 0,000 mm 0,0 UV-I 0 W/m 5,0 C 10,0 C 9,7 km/h (2 Bft) 96,00 %
28.03.2017 23:02 10,1 C 71 % 1023,2 hPa 0,0 l/m 8,2 km/h (2 Bft) S-SW 211 0 min 0,026 mm 0,0 UV-I 0 W/m 5,1 C 8,8 C 11,3 km/h (2 Bft) 97,14 %
28.03.2017 23:04 10,0 C 71 % 1023,2 hPa 0,0 l/m 7,0 km/h (2 Bft) S-SW 201 0 min 0,000 mm 0,0 UV-I 0 W/m 5,0 C 9,6 C 9,7 km/h (2 Bft) 98,21 %
28.03.2017 23:06 10,0 C 71 % 1023,2 hPa 0,0 l/m 7,0 km/h (2 Bft) S-SW 206 0 min 0,000 mm 0,0 UV-I 0 W/m 5,0 C 9,6 C 9,7 km/h (2 Bft) 97,56 %
28.03.2017 23:08 10,0 C 71 % 1023,2 hPa 0,0 l/m 6,4 km/h (2 Bft) S-SW 212 0 min 0,000 mm 0,0 UV-I 0 W/m 5,0 C 10,0 C 9,7 km/h (2 Bft) 96,43 %
28.03.2017 23:10 10,0 C 71 % 1023,2 hPa 0,0 l/m 7,0 km/h (2 Bft) S-SW 197 0 min 0,000 mm 0,0 UV-I 0 W/m 5,0 C 9,6 C 9,7 km/h (2 Bft) 97,56 %
28.03.2017 23:12 9,9 C 72 % 1023,3 hPa 0,0 l/m 7,9 km/h (2 Bft) S-SW 199 0 min 0,000 mm 0,0 UV-I 0 W/m 5,1 C 8,8 C 11,3 km/h (2 Bft) 98,11 %
28.03.2017 23:14 9,9 C 72 % 1023,3 hPa 0,0 l/m 7,4 km/h (2 Bft) SW 217 0 min 0,000 mm 0,0 UV-I 0 W/m 5,1 C 9,2 C 11,3 km/h (2 Bft) 97,44 %
28.03.2017 23:16 9,9 C 72 % 1023,3 hPa 0,0 l/m 5,9 km/h (2 Bft) S-SW 196 0 min 0,000 mm 0,0 UV-I 0 W/m 5,1 C 9,9 C 8,0 km/h (2 Bft) 97,87 %
28.03.2017 23:18 9,9 C 72 % 1023,3 hPa 0,0 l/m 7,2 km/h (2 Bft) SW 217 0 min 0,000 mm 0,0 UV-I 0 W/m 5,1 C 9,3 C 12,9 km/h (3 Bft) 96,15 %
28.03.2017 23:20 9,9 C 72 % 1023,3 hPa 0,0 l/m 7,1 km/h (2 Bft) S-SW 205 0 min 0,000 mm 0,0 UV-I 0 W/m 5,1 C 9,4 C 11,3 km/h (2 Bft) 98,00 %
28.03.2017 23:22 9,9 C 72 % 1023,3 hPa 0,0 l/m 7,3 km/h (2 Bft) S-SW 209 0 min 0,000 mm 0,0 UV-I 0 W/m 5,1 C 9,2 C 11,3 km/h (2 Bft) 97,44 %
28.03.2017 23:24 9,9 C 72 % 1023,4 hPa 0,0 l/m 7,1 km/h (2 Bft) SW 220 0 min 0,000 mm 0,0 UV-I 0 W/m 5,1 C 9,4 C 11,3 km/h (2 Bft) 94,00 %
28.03.2017 23:26 9,8 C 72 % 1023,4 hPa 0,0 l/m 7,0 km/h (2 Bft) S-SW 203 0 min 0,000 mm 0,0 UV-I 0 W/m 5,0 C 9,4 C 12,9 km/h (3 Bft) 95,45 %
28.03.2017 23:28 9,8 C 72 % 1023,4 hPa 0,0 l/m 8,7 km/h (2 Bft) S-SW 213 0 min 0,000 mm 0,0 UV-I 0 W/m 5,0 C 8,2 C 11,3 km/h (2 Bft) 98,00 %
28.03.2017 23:30 9,8 C 72 % 1023,4 hPa 0,0 l/m 7,6 km/h (2 Bft) S-SW 209 0 min 0,000 mm 0,0 UV-I 0 W/m 5,0 C 8,9 C 11,3 km/h (2 Bft) 95,74 %
28.03.2017 23:32 9,7 C 72 % 1023,4 hPa 0,0 l/m 6,8 km/h (2 Bft) SW 214 0 min 0,000 mm 0,0 UV-I 0 W/m 4,9 C 9,4 C 9,7 km/h (2 Bft) 98,00 %
28.03.2017 23:34 9,7 C 73 % 1023,4 hPa 0,0 l/m 7,6 km/h (2 Bft) S-SW 211 0 min 0,000 mm 0,0 UV-I 0 W/m 5,1 C 8,8 C 9,7 km/h (2 Bft) 97,56 %
28.03.2017 23:36 9,7 C 73 % 1023,4 hPa 0,0 l/m 6,1 km/h (2 Bft) S-SW 207 0 min 0,000 mm 0,0 UV-I 0 W/m 5,1 C 9,7 C 9,7 km/h (2 Bft) 97,87 %
28.03.2017 23:38 9,6 C 73 % 1023,4 hPa 0,0 l/m 6,5 km/h (2 Bft) S-SW 209 0 min 0,000 mm 0,0 UV-I 0 W/m 5,0 C 9,6 C 12,9 km/h (3 Bft) 96,00 %
28.03.2017 23:40 9,6 C 73 % 1023,4 hPa 0,0 l/m 6,6 km/h (2 Bft) S-SW 210 0 min 0,000 mm 0,0 UV-I 0 W/m 5,0 C 9,5 C 11,3 km/h (2 Bft) 97,87 %
28.03.2017 23:42 9,6 C 73 % 1023,5 hPa 0,0 l/m 6,6 km/h (2 Bft) S-SW 205 0 min 0,000 mm 0,0 UV-I 0 W/m 5,0 C 9,5 C 9,7 km/h (2 Bft) 98,00 %
28.03.2017 23:44 9,6 C 73 % 1023,5 hPa 0,0 l/m 5,7 km/h (1 Bft) SW 217 0 min 0,000 mm 0,0 UV-I 0 W/m 5,0 C 9,6 C 9,7 km/h (2 Bft) 97,37 %
28.03.2017 23:46 9,5 C 73 % 1023,5 hPa 0,0 l/m 6,0 km/h (2 Bft) S-SW 209 0 min 0,000 mm 0,0 UV-I 0 W/m 4,9 C 9,5 C 11,3 km/h (2 Bft) 93,18 %
28.03.2017 23:48 9,4 C 74 % 1023,5 hPa 0,0 l/m 5,3 km/h (1 Bft) S-SW 209 0 min 0,000 mm 0,0 UV-I 0 W/m 5,0 C 9,4 C 6,4 km/h (2 Bft) 98,00 %
28.03.2017 23:50 9,3 C 74 % 1023,5 hPa 0,0 l/m 6,2 km/h (2 Bft) S-SW 210 0 min 0,000 mm 0,0 UV-I 0 W/m 4,9 C 9,3 C 9,7 km/h (2 Bft) 96,23 %
28.03.2017 23:52 9,3 C 74 % 1023,5 hPa 0,0 l/m 5,7 km/h (1 Bft) S-SW 209 0 min 0,000 mm 0,0 UV-I 0 W/m 4,9 C 9,3 C 8,0 km/h (2 Bft) 90,00 %
28.03.2017 23:54 9,2 C 75 % 1023,6 hPa 0,0 l/m 4,6 km/h (1 Bft) S 187 0 min 0,000 mm 0,0 UV-I 0 W/m 5,0 C 9,2 C 6,4 km/h (2 Bft) 97,73 %
28.03.2017 23:56 9,2 C 75 % 1023,6 hPa 0,0 l/m 5,9 km/h (2 Bft) S-SW 201 0 min 0,000 mm 0,0 UV-I 0 W/m 5,0 C 9,2 C 8,0 km/h (2 Bft) 97,22 %
28.03.2017 23:58 9,1 C 75 % 1023,6 hPa 0,0 l/m 6,0 km/h (2 Bft) S-SW 210 0 min 0,000 mm 0,0 UV-I 0 W/m 4,9 C 9,1 C 8,0 km/h (2 Bft) 98,36 %
_ Min-Zeit 07:14 16:38 17:24 - 01:40 - - - - - - 00:28 07:14 01:40 05:40
Minimum _ 1,1 C 37 % 1021,0 hPa - 0,0 km/h (0 Bft) - - - - - - -3,4 C 1,1 C 0,0 km/h (0 Bft) 87,27 %
_ Max-Zeit 15:56 07:22 10:38 00:00 00:28 - - 08:22 14:02 12:58 13:04 15:56 15:56 00:08 00:00
Maximum _ 18,7 C 87 % 1023,9 hPa 0,0 l/m 11,5 km/h
O-NO (2 Bft)
- - 4 min 0,406 mm 3,3 UV-I 741 W/m 6,8 C 18,7 C 16,1 km/h
O-NO (3 Bft)
100,00 %
Durchschnitt _ 9,7 C 61 % 1022,6 hPa #0,0 l/m 3,1 km/h (1 Bft) S-SW - #12:18 h #3,150 mm 2,0 UV-I 421 W/m 2,0 C 9,6 C 5,7 km/h (1 Bft) 97,46 %